     2              OBSERVATION DATA    GPS                 RINEX VERSION / TYPE
teqc 2000Jul20 Karen Wendt 20030613 21:02:55UTC             PGM / RUN BY / DATE
                                                            COMMENT
L2: 1 -> 1; 150 -> 5; 250 -> 9                              COMMENT
L2: 1 -> 1; 150 -> 5; 250 -> 9                              COMMENT
L2: 1 -> 1; 150 -> 5; 250 -> 9                              COMMENT
L2: 1 -> 1; 150 -> 5; 250 -> 9                              COMMENT
L2: 1 -> 1; 150 -> 5; 250 -> 9                              COMMENT
L2: 1 -> 1; 150 -> 5; 250 -> 9                              COMMENT
L2: 1 -> 1; 150 -> 5; 250 -> 9                              COMMENT
L2: 1 -> 1; 150 -> 5; 250 -> 9                              COMMENT
L2: 1 -> 1; 150 -> 5; 250 -> 9                              COMMENT
L2: 1 -> 1; 150 -> 5; 250 -> 9                              COMMENT
L2: 1 -> 1; 150 -> 5; 250 -> 9                              COMMENT
L2: 1 -> 1; 150 -> 5; 250 -> 9                              COMMENT
L2: 1 -> 1; 150 -> 5; 250 -> 9                              COMMENT
L2: 1 -> 1; 150 -> 5; 250 -> 9                              COMMENT
Original Marker Name: stov Stovepipe_Wells_1949_USCGS       COMMENT
Campaign Name: USGS Death Valley 2003                       COMMENT
4-Character Station Name: STOV                              COMMENT
6-Character Antenna Code: DMRCHT                            COMMENT
Vertical Measurement Point: BCR                             COMMENT
Vertical Offset to Rinex Ref. Point: 0.0348                 COMMENT
Radial Measurement Point: ECF                               COMMENT
Radial Offset to Rinex Ref. Point: 0.1897                   COMMENT
Antenna Height from Field Measurement: 1.3020 m             COMMENT
Additional Antenna Identification Info.:                    COMMENT
Turborogue and Ashtech Choke Ring                           COMMENT
Original XYZ: -2338928.2861 -4561442.5128 3782413.8902      COMMENT
New XYZ position is based on association with SCEC monument COMMENT
E1G0C5U0+0011. Position of that monument is believed to be  COMMENT
valid to within 1 m horizontally; vertical accuracy         COMMENT
should be no worse than 3-times this value.                 COMMENT
                                                            COMMENT
Revised Rinex header created by UCSD GPS archive for        COMMENT
GSAC on 20-Apr-2005 (2005:110) 16:32:52 GMT                 COMMENT
For assistance contact dagnew@ucsd.edu                      COMMENT
or anderson@python.ucsd.edu                                 COMMENT
                                                            COMMENT
STOVEPIPE WELLS 1949                                        MARKER NAME
CHS US GEOLOGICAL SURVEY                                    OBSERVER / AGENCY
LP03360 ASHTECH Z-XII3 CC00                                 REC # / TYPE / VERS
CR14329 DORNE-MARGOL. TYPE T                                ANT # / TYPE
 -2338948.0000 -4561424.0000  3782403.0000                  APPROX POSITION XYZ
        1.2533        0.0000        0.0000                  ANTENNA: DELTA H/E/N
     1     1     0                                          WAVELENGTH FACT L1/2
     5    C1    L1    L2    P1    P2                        # / TYPES OF OBSERV
    30                                                      INTERVAL
  2003     6     8    14    40    0.000000                  TIME OF FIRST OBS
  2003     6     8    22    42    0.000000                  TIME OF LAST OBS
                                                            END OF HEADER
 03  6  8 14 40  0.0000000  0  6G30G24G 6G17G21G10
  20489517.404      -36346.30749    -25761.42748  20489517.652    20489522.042
  22787075.589      155839.48449    112609.49446  22787075.206    22787081.677
  22064205.557     -225147.19649   -166489.37047  22064205.388    22064210.772
  22601271.075     -237410.63549   -171941.65346  22601270.276    22601276.738
  23928031.006     -281143.77649   -204724.72245  23928029.860    23928035.395
  20841083.761     -128137.32149    -80152.82647  20841083.088    20841088.601
 03  6  8 14 40 30.0000000  0  6G30G24G 6G17G21G10
  20487058.681      -49265.83249    -35828.61048  20487059.164    20487063.545
  22798090.715      213722.11049    157712.77946  22798089.941    22798096.421
  22047708.490     -311837.74049   -234040.45347  22047708.749    22047714.163
  22584283.804     -326684.16649   -241505.43746  22584282.167    22584288.589
  23907782.721     -387538.03749   -287629.32945  23907784.705    23907789.715
  20833274.565     -169177.54149   -112132.23647  20833273.425    20833278.977
 03  6  8 14 41  0.0000000  0  6G30G24G 6G17G21G10
  20463107.489     -175131.00249   -133905.38848  20463107.835    20463112.220
  22787514.009      158141.82249    114403.40946  22787513.373    22787519.736
  22009626.580     -511961.47249   -389981.02246  22009626.522    22009631.896
  22545735.501     -529253.52649   -399351.69746  22545734.463    22545740.957
  23865964.504     -607299.84649   -458872.27945  23865964.986    23865970.107
  20803978.603     -323127.34449   -232093.12747  20803977.676    20803983.319
 03  6  8 14 41 30.0000000  0  6G30G24G 6G17G21G10
  20464979.686     -165293.03249   -126239.45348  20464979.949    20464984.336
  22802662.045      237745.49849    176432.19346  22802661.526    22802667.884
  21997275.388     -576868.24449   -440557.71347  21997275.223    21997280.597
  22532944.726     -596469.02149   -451727.38746  22532943.847    22532950.322
  23849889.380     -691779.48749   -524700.55945  23849889.075    23849894.146
  20800513.308     -341337.37449   -246282.75847  20800512.425    20800518.038
 03  6  8 14 42  0.0000000  0  6G30G24G 6G17G21G10
  20466965.345     -154858.58649   -118108.74248  20466965.604    20466969.988
  22817824.649      317425.47549    238520.42746  22817824.179    22817830.556
  21984945.344     -641663.52649   -491047.54747  21984945.139    21984950.492
  22520201.044     -663437.05649   -503910.26446  22520200.260    22520206.743
  23833847.045     -776083.04949   -590391.63945  23833846.691    23833851.713
  20797168.830     -358913.28949   -259978.29047  20797167.930    20797173.492
 03  6  8 14 42 30.0000000  0  6G30G24G 6G17G21G10
  20469064.532     -143827.77749   -109513.32948  20469064.741    20469069.122
  22833001.530      397180.36349    300667.04946  22833001.102    22833007.415
  21972636.736     -706346.20049   -541449.63347  21972636.450    21972641.815
  22507504.653     -730157.25049   -555900.01346  22507503.839    22507510.326
  23817838.155     -860209.84149   -655944.98845  23817837.814    23817842.969
  20793945.169     -375854.29849   -273179.09247  20793944.242    20793949.758
 03  6  8 14 43  0.0000000  0  6G30G24G 6G17G21G10
  20471277.074     -132200.99449   -100453.52048  20471277.270    20471281.660
  22848192.326      477008.31649    362870.58646  22848191.935    22848198.244
  21960349.606     -770915.29249   -591763.20947  21960349.376    21960354.732
  22494855.398     -796629.57049   -607696.61346  22494854.616    22494861.087
  23801863.260     -944159.45149   -721360.26145  23801862.883    23801868.002
  20790842.210     -392160.11949   -285884.92847  20790841.310    20790846.912
 03  6  8 14 43 30.0000000  0  6G30G24G 6G17G21G10
  20472476.906     -125896.04849    -95540.59848  20472477.099    20472481.503
  22862270.673      550990.48449    420518.96746  22862270.330    22862276.671
  21946958.202     -841287.46849   -646598.67347  21946957.997    21946963.342
  22481127.225     -868771.27249   -663910.91846  22481126.490    22481132.988
  23784795.997    -1033849.13949   -791248.32745  23784795.518    23784800.614
  20786734.233     -413747.61549   -302706.36947  20786733.364    20786738.979
 03  6  8 14 44  0.0000000  0  6G30G24G 6G17G21G10
  20476040.399    -1682589.87049  -1308548.79248  20476040.612    20476045.020
  22878612.816     -938551.51649   -740163.15946  22878612.436    22878618.836
  21935839.285    -2475138.46949  -1919729.31347  21935838.995    21935844.348
  22469696.774    -2504258.57149  -1938316.59046  22469696.083    22469702.625
  23770012.961    -2686954.90649  -2079382.68245  23770012.493    23770017.608
  20784997.788    -1998293.10349  -1537417.13847  20784996.886    20785002.502
 03  6  8 14 44 30.0000000  0  6G30G24G 6G17G21G10
  20478592.977    -1669176.54049  -1298096.87148  20478593.155    20478597.535
  22893843.624     -858513.40549   -677795.85646  22893843.271    22893849.653
  21923618.127    -2539361.03649  -1969772.86947  21923617.875    21923623.222
  22457189.461    -2569985.10649  -1989532.05846  22457188.752    22457195.267
  23754139.786    -2770369.94049  -2144381.41945  23754139.191    23754144.260
  20782258.222    -2012689.84449  -1548635.38747  20782257.323    20782262.920
 03  6  8 14 45  0.0000000  0  6G30G24G 6G17G21G10
  20481258.154    -1655170.96649  -1287183.45548  20481258.350    20481262.746
  22909086.750     -778410.81149   -615378.29646  22909086.370    22909092.674
  21911418.973    -2603468.65849  -2019726.86347  21911418.660    21911424.003
  22444728.996    -2635465.42549  -2040555.66646  22444728.298    22444734.767
  23738300.175    -2853608.23049  -2209242.40445  23738299.438    23738304.618
  20779639.325    -2026451.94349  -1559359.11347  20779638.456    20779644.109
 03  6  8 14 45 30.0000000  0  6G30G24G 6G17G21G10
  20484036.508    -1640571.04249  -1275806.91348  20484036.686    20484041.090
  22924342.269     -698242.73949   -552909.72146  22924341.898    22924348.227
  21899242.232    -2667457.77849  -2069588.51347  21899241.960    21899247.275
  22432315.910    -2700696.49349  -2091385.05546  22432315.281    22432321.711
  23722494.298    -2936666.99949  -2273963.50745  23722493.760    23722499.084
  20777141.730    -2039576.48949  -1569586.04047  20777140.895    20777146.616
 03  6  8 14 46  0.0000000  0  6G30G24G 6G17G21G10
  20486926.985    -1625381.67049  -1263971.05748  20486927.165    20486931.579
  22939609.120     -618015.31249   -490394.89846  22939608.779    22939615.071
  21887087.454    -2731331.75449  -2119360.43747  21887087.185    21887092.500
  22419949.476    -2765683.04649  -2142023.90646  22419948.792    22419955.207
  23706722.202    -3019549.95149  -2338547.62745  23706721.628    23706726.929
  20774764.819    -2052067.54349  -1579319.33447  20774763.970    20774769.687
 03  6  8 14 46 30.0000000  0  6G30G24G 6G17G21G10
  20489930.506    -1609598.10249  -1251672.20348  20489930.706    20489935.116
  22954887.948     -537725.10049   -427831.15746  22954887.591    22954893.904
  21874955.753    -2795084.30649  -2169037.75747  21874955.503    21874960.814
  22407630.544    -2830419.59949  -2192467.97146  22407629.831    22407636.246
  23690984.474    -3102251.89949  -2402990.68745  23690983.953    23690989.230
  20772509.495    -2063919.88449  -1588554.93947  20772508.611    20772514.289
 03  6  8 14 47  0.0000000  0  6G30G24G 6G17G21G10
  20493047.112    -1593220.42449  -1238910.39148  20493047.298    20493051.695
  22970178.501     -457373.01849   -365219.19546  22970178.137    22970184.433
  21862847.445    -2858714.08949  -2218619.40347  21862847.216    21862852.505
  22395359.204    -2894905.47049  -2242716.68146  22395358.566    22395365.050
  23675281.434    -3184771.89249  -2467291.98245  23675281.004    23675286.158
  20770375.802    -2075132.82649  -1597292.30647  20770374.928    20770380.557
 03  6  8 14 47 30.0000000  0  6G30G24G 6G17G21G10
  20496276.499    -1576250.30749  -1225686.94648  20496276.663    20496281.072
  22985480.316     -376961.65149   -302561.06446  22985479.944    22985486.296
  21850762.483    -2922221.28849  -2268105.54147  21850762.222    21850767.510
  22383135.389    -2959141.91149  -2292771.04146  22383134.778    22383141.269
  23659612.920    -3267110.83449  -2531452.17545  23659612.471    23659617.662
  20768363.647    -2085707.26949  -1605532.14547  20768362.762    20768368.363
 03  6  8 14 48  0.0000000  0  6G30G24G 6G17G21G10
  20499618.138    -1558690.12749  -1212003.70948  20499618.300    20499622.746
  23000792.745     -296494.73549   -239859.61546  23000792.403    23000798.774
  21838700.616    -2985606.81049  -2317496.85247  21838700.382    21838705.681
  22370958.766    -3023130.98849  -2342632.64046  22370958.108    22370964.563
  23643978.632    -3349269.82249  -2595472.16945  23643978.164    23643983.453
  20766472.629    -2095644.55249  -1613275.49347  20766471.751    20766477.388
 03  6  8 14 48 30.0000000  0  6G30G24G 6G17G21G10
  20503072.116    -1540539.35249  -1197860.27448  20503072.298    20503076.750
  23016115.673     -215972.09749   -177114.76446  23016115.345    23016121.752
  21826662.365    -3048868.46449  -2366791.64647  21826662.096    21826667.419
  22358829.500    -3086870.89849  -2392300.09046  22358828.805    22358835.230
  23628378.851    -3431247.18549  -2659350.62545  23628378.414    23628383.739
  20764703.093    -2104943.52349  -1620521.44947  20764702.216    20764707.874
 03  6  8 14 49  0.0000000  0  6G30G24G 6G17G21G10
  20506638.728    -1521796.69249  -1183255.63048  20506638.919    20506643.400
  23031449.243     -135393.74349   -114326.50846  23031448.940    23031455.336
  21814648.166    -3112003.38049  -2415987.69247  21814647.913    21814653.245
  22346747.845    -3150359.97849  -2441772.08546  22346747.229    22346753.710
  23612814.069    -3513040.84149  -2723085.93545  23612813.599    23612818.999
  20763055.416    -2113602.33449  -1627268.58747  20763054.536    20763060.158
 03  6  8 14 49 30.0000000  0  6G30G24G 6G17G21G10
  20510317.736    -1502463.62649  -1168190.92748  20510317.942    20510322.385
  23046793.030      -54762.06549    -51496.67746  23046792.727    23046799.075
  21802658.179    -3175011.20749  -2465084.69947  21802657.964    21802663.288
  22334713.864    -3213598.80649  -2491049.08446  22334713.260    22334719.785
  23597284.185    -3594651.21449  -2786678.42245  23597283.720    23597289.047
  20761529.502    -2121621.53649  -1633517.32247  20761528.623    20761534.192
 03  6  8 14 50  0.0000000  0  6G30G24G 6G17G21G10
  20514108.599    -1482542.76949  -1152668.20248  20514108.798    20514113.239
  23062146.311       25919.63449     11372.11546  23062146.038    23062152.412
  21790692.197    -3237892.82649  -2514083.36647  21790691.978    21790697.320
  22322727.078    -3276589.68049  -2540132.87546  22322726.468    22322733.029
  23581788.869    -3676079.90249  -2850129.33345  23581788.417    23581793.693
  20760124.903    -2129003.13749  -1639269.22147  20760123.985    20760129.548
 03  6  8 14 50 30.0000000  0  6G30G24G 6G17G21G10
  20518011.683    -1462031.91249  -1136685.73848  20518011.916    20518016.377
  23077509.324      106652.53149     74280.80146  23077509.053    23077515.446
  21778750.999    -3300644.53449  -2562980.80247  21778750.745    21778756.071
  22310788.211    -3339329.20549  -2589020.79646  22310787.563    22310794.127
  23566328.786    -3757323.74849  -2913436.21745  23566328.270    23566333.429
  20758842.139    -2135744.17649  -1644521.98647  20758841.253    20758846.828
 03  6  8 14 51  0.0000000  0  6G30G24G 6G17G21G10
  20522027.060    -1440931.40849  -1120243.81348  20522027.266    20522031.741
  23092881.941      187435.83049    137228.76346  23092881.631    23092888.065
  21766834.773    -3363264.77649  -2611775.79747  21766834.574    21766839.882
  22298897.153    -3401816.94249  -2637712.53547  22298896.535    22298903.107
  23550904.077    -3838381.81649  -2976598.34845  23550903.449    23550908.591
  20757681.381    -2141844.18349  -1649275.24947  20757680.497    20757686.070
 03  6  8 14 51 30.0000000  0  6G30G24G 6G17G21G10
  20526154.370    -1419242.47949  -1103343.37848  20526154.589    20526159.036
  23108263.623      268267.31449    200214.28246  23108263.392    23108269.879
  21754943.708    -3425753.00949  -2660467.93047  21754943.476    21754948.791
  22287053.939    -3464053.52049  -2686208.56047  22287053.334    22287059.871
  23535514.526    -3919254.25949  -3039615.83745  23535513.982    23535519.085
  20756642.466    -2147303.81749  -1653529.51347  20756641.586    20756647.181
 03  6  8 14 52  0.0000000  0  6G30G24G 6G17G21G10
  20530393.442    -1396966.33449  -1085985.36848  20530393.654    20530398.115
  23123654.301      349145.17349    263235.92846  23123653.958    23123660.614
  21743077.852    -3488108.44249  -2709056.58247  21743077.631    21743082.932
  22275258.368    -3526039.61149  -2734509.39447  22275257.730    22275264.301
  23520160.275    -3999941.46849  -3102488.98145  23520159.733    23520164.837
  20755725.349    -2152123.30849  -1657284.97147  20755724.481    20755730.049
 03  6  8 14 52 30.0000000  0  6G30G24G 6G17G21G10
  20534744.062    -1374103.58649  -1068170.26448  20534744.302    20534748.782
  23139053.445      430068.02949    326292.63546  23139053.156    23139059.803
  21731237.500    -3550330.10649  -2757540.99847  21731237.287    21731242.588
  22263510.623    -3587774.44349  -2782614.45547  22263510.023    22263516.600
  23504841.293    -4080442.90649  -3165217.36645  23504840.688    23504845.993
  20754930.029    -2156302.82849  -1660541.74647  20754929.172    20754934.770
 03  6  8 14 53  0.0000000  0  6G30G24G 6G17G21G10
  20539206.449    -1350653.94349  -1049897.84248  20539206.683    20539211.132
  23154461.197      511035.67049    389384.23646  23154460.860    23154467.518
  21719422.991    -3612415.67949  -2805919.37247  21719422.807    21719428.109
  22251810.810    -3649257.32349  -2830523.17747  22251810.232    22251816.827
  23489557.993    -4160756.96949  -3227799.75245  23489557.418    23489562.775
  20754256.687    -2159841.27149  -1663298.98447  20754255.838    20754261.434
 03  6  8 14 53 30.0000000  0  6G30G24G 6G17G21G10
  20543780.203    -1326619.18349  -1031169.48348  20543780.427    20543784.861
  23169876.964      592045.68649    452508.87746  23169876.618    23169883.254
  21707634.522    -3674365.01249  -2854191.57947  21707634.277    21707639.584
  22240158.837    -3710489.15049  -2878236.28247  22240158.249    22240164.809
  23474310.207    -4240884.26849  -3290236.59745  23474309.724    23474315.074
  20753705.178    -2162739.71349  -1665557.52047  20753704.319    20753709.916
 03  6  8 14 54  0.0000000  0  6G30G24G 6G17G21G10
  20548465.201    -1301999.36849  -1011985.23548  20548465.413    20548469.885
  23185300.595      673097.02149    515665.69346  23185300.300    23185306.909
  21695872.247    -3736176.19149  -2902356.13647  21695872.020    21695877.295
  22228554.647    -3771469.43749  -2925753.37547  22228554.092    22228560.625
  23459098.358    -4320823.62949  -3352527.00245  23459097.805    23459103.122
  20753275.537    -2164997.47149  -1667316.81847  20753274.687    20753280.286
 03  6  8 14 54 30.0000000  0  6G30G24G 6G17G21G10
  20553261.263    -1276795.91749   -992346.20248  20553261.463    20553265.984
  23200731.831      754188.37749    578853.70246  23200731.548    23200738.225
  21684136.481    -3797848.46449  -2950412.44547  21684136.225    21684141.499
  22216998.350    -3832198.07349  -2973074.37647  22216997.793    22217004.362
  23443922.296    -4400575.06749  -3414670.96545  23443921.651    23443926.881
  20752967.765    -2166615.28449  -1668577.46447  20752966.900    20752972.439
 03  6  8 14 55  0.0000000  0  6G30G24G 6G17G21G10
  20558168.354    -1251009.38349   -972252.82848  20558168.566    20558173.066
  23216170.335      835318.29549    642071.73646  23216170.100    23216176.843
  21672427.251    -3859380.69749  -2998359.64947  21672427.061    21672432.273
  22205489.984    -3892675.02549  -3020199.25947  22205489.420    22205495.984
  23428781.885    -4480138.55349  -3476668.48445  23428781.252    23428786.414
  20752781.689    -2167593.11649  -1669339.42547  20752780.839    20752786.375
 03  6  8 14 55 30.0000000  0  6G30G24G 6G17G21G10
  20563186.315    -1224639.76249   -951705.09348  20563186.552    20563191.061
  23231616.152      916486.45149    705319.60146  23231615.907    23231622.588
  21660745.208    -3920770.74049  -3046196.03747  21660744.958    21660750.181
  22194029.665    -3952899.96749  -3067127.77047  22194029.073    22194035.588
  23413677.468    -4559512.64649  -3538518.41645  23413676.829    23413682.049
  20752717.555    -2167930.44549  -1669602.28847  20752716.693    20752722.247
 03  6  8 14 56  0.0000000  0  6G30G24G 6G17G21G10
  20568315.048    -1197688.27649   -930703.96248  20568315.262    20568319.791
  23247068.881      997690.98549    768595.79946  23247068.629    23247075.402
  21649090.313    -3982017.66249  -3093920.91147  21649090.077    21649095.269
  22182617.310    -4012872.55349  -3113859.64247  22182616.674    22182623.180
  23398609.172    -4638697.01349  -3600220.50445  23398608.541    23398613.865
  20752775.163    -2167627.59449  -1669366.30947  20752774.323    20752779.911
 03  6  8 14 56 30.0000000  0  6G30G24G 6G17G21G10
  20573554.396    -1170155.62249   -909249.97048  20573554.614    20573559.139
  23262528.384     1078931.07649    831899.70046  23262528.157    23262534.975
  21637462.957    -4043119.95049  -3141533.08347  21637462.696    21637467.927
  22171252.997    -4072592.51049  -3160394.66247  22171252.351    22171258.847
  23383577.186    -4717691.17549  -3661774.39345  23383576.517    23383581.783
  20752954.665    -2166684.39749  -1668631.35847  20752953.819    20752959.423
 03  6  8 14 57  0.0000000  0  6G30G24G 6G17G21G10
  20578903.993    -1142043.62049   -887344.54448  20578904.201    20578908.697
  23277994.347     1160204.41849    895229.51946  23277994.030    23278000.892
  21625863.177    -4104077.24349  -3189032.27047  21625862.947    21625868.158
  22159936.646    -4132060.40549  -3206733.27047  22159936.005    22159942.469
  23368581.198    -4796495.48249  -3723180.33545  23368580.548    23368585.803
  20753255.801    -2165102.09549  -1667398.40847  20753254.951    20753260.515
 03  6  8 14 57 30.0000000  0  6G30G24G 6G17G21G10
  20584363.817    -1113352.25249   -864987.65848  20584364.021    20584368.529
  23293466.417     1241510.72349    958585.00046  23293466.159    23293473.077
  21614291.397    -4164887.45149  -3236416.84847  21614291.148    21614296.362
  22148668.344    -4191275.77749  -3252875.11247  22148667.706    22148674.131
  23353621.663    -4875109.01349  -3784437.62245  23353620.905    23353626.205
  20753678.604    -2162880.33349  -1665667.17847  20753677.768    20753683.312
 03  6  8 14 58  0.0000000  0  6G30G24G 6G17G21G10
  20589933.502    -1084083.23549   -842180.65648  20589933.745    20589938.267
  23308944.536     1322847.67649   1021964.38346  23308944.163    23308951.019
  21602747.617    -4225550.21349  -3283686.53147  21602747.409    21602752.631
  22137448.070    -4250238.79449  -3298820.30747  22137447.414    22137453.861
  23338698.211    -4953531.93149  -3845546.38445  23338697.526    23338702.812
  20754222.964    -2160019.81149  -1663438.20847  20754222.131    20754227.707
 03  6  8 14 58 30.0000000  0  6G30G24G 6G17G21G10
  20595613.205    -1054236.54849   -818923.52648  20595613.423    20595617.944
  23324428.350     1404215.21849   1085367.60746  23324428.024    23324434.804
  21591232.450    -4286063.04549  -3330839.38147  21591232.241    21591237.440
  22126275.945    -4308948.64949  -3344568.24147  22126275.328    22126281.740
  23323811.361    -5031762.73149  -3906505.43445  23323810.772    23323816.000
  20754889.011    -2156519.71649  -1660710.87947  20754888.180    20754893.765
 03  6  8 14 59  0.0000000  0  6G30G24G 6G17G21G10
  20601402.620    -1023813.24049   -795217.07648  20601402.826    20601407.336
  23339917.708     1485612.17549   1148793.73946  23339917.391    23339924.175
  21579746.007    -4346424.79049  -3377874.50547  21579745.793    21579750.987
  22115151.907    -4367405.70149  -3390119.17347  22115151.339    22115157.719
  23308961.102    -5109801.63149  -3967314.95945  23308960.452    23308965.657
  20755676.700    -2152380.72149  -1657485.69447  20755675.855    20755681.429
 03  6  8 14 59 30.0000000  0  6G30G24G 6G17G21G10
  20607301.527     -992814.42449   -771062.18448  20607301.722    20607306.236
  23355412.447     1567037.34849   1212241.85346  23355412.205    23355418.972
  21568288.479    -4406634.46049  -3424791.12847  21568288.275    21568293.480
  22104076.097    -4425609.75549  -3435472.97447  22104075.487    22104081.834
  23294147.389    -5187647.73549  -4027974.25746  23294146.818    23294152.028
  20756585.845    -2147603.28249  -1653763.02747  20756584.995    20756590.585
 03  6  8 15  0  0.0000000  0  6G30G24G 6G17G21G10
  20613309.698     -961241.47249   -746459.90648  20613309.892    20613314.439
  23370912.246     1648488.96549   1275710.58346  23370911.964    23370918.836
  21556860.129    -4466690.89549  -3471588.34447  21556859.926    21556865.154
  22093048.387    -4483561.07949  -3480629.84247  22093047.731    22093054.077
  23279370.513    -5265300.88449  -4088483.20346  23279369.968    23279375.128
  20757616.358    -2142188.04849  -1649543.37747  20757615.502    20757621.084
 03  6  8 15  0 30.0000000  0  6G30G24G 6G17G21G10
  20619426.869     -929095.60249   -721411.20448  20619427.088    20619431.622
  23386416.794     1729965.80849   1339198.96946  23386416.521    23386423.387
  21545461.165    -4526592.96049  -3518265.27747  21545460.928    21545466.205
  22082068.715    -4541259.73649  -3525589.82947  22082068.052    22082074.387
  23264630.272    -5342761.40849  -4148842.04546  23264629.742    23264634.824
  20758768.065    -2136135.63149  -1644827.22547  20758767.225    20758772.849
 03  6  8 15  1  0.0000000  0  6G30G24G 6G17G21G10
  20625653.019     -896377.12249   -695916.31247  20625653.247    20625657.790
  23401926.062     1811467.06449   1402706.37946  23401925.763    23401932.725
  21534091.894    -4586338.74249  -3564820.42847  21534091.668    21534096.960
  22071137.197    -4598705.05249  -3570352.39847  22071136.590    22071142.918
  23249927.011    -5420028.11049  -4209049.85546  23249926.461    23249931.535
  20760041.107    -2129445.91249  -1639614.46747  20760040.273    20760045.901
 03  6  8 15  1 30.0000000  0  6G30G24G 6G17G21G10
  20631987.785     -863087.79449   -669976.60047  20631988.012    20631992.573
  23417439.659     1892991.46149   1466231.81946  23417439.404    23417446.360
  21522752.554    -4645927.33249  -3611253.09047  21522752.368    21522757.659
  22060253.849    -4655897.78649  -3614918.15347  22060253.194    22060259.503
  23235260.469    -5497101.02649  -4269106.64946  23235259.905    23235265.036
  20761435.246    -2122119.75649  -1633905.78147  20761434.398    20761440.059
 03  6  8 15  2  0.0000000  0  6G30G24G 6G17G21G10
  20638431.031     -829228.27349   -643592.58547  20638431.271    20638435.854
  23432957.583     1974538.04649   1529774.55346  23432957.311    23432964.185
  21511443.484    -4705357.07149  -3657561.97047  21511443.268    21511448.524
  22049418.645    -4712837.28449  -3659286.57847  22049417.956    22049424.326
  23220630.914    -5573979.57549  -4329011.99646  23220630.362    23220635.573
  20762950.529    -2114157.12649  -1627701.14647  20762949.679    20762955.327
 03  6  8 15  2 30.0000000  0  6G30G24G 6G17G21G10
  20644982.553     -794799.99049   -616765.38047  20644982.806    20644987.388
  23448479.378     2056105.35349   1593333.42946  23448479.145    23448485.940
  21500164.816    -4764626.81349  -3703746.18247  21500164.656    21500169.878
  22038631.579    -4769523.75949  -3703457.85247  22038630.864    22038637.237
  23206038.538    -5650663.70649  -4388765.86646  23206037.935    23206043.044
  20764586.685    -2105558.97449  -1621001.30347  20764585.846    20764591.495
 03  6  8 15  3  0.0000000  0  6G30G24G 6G17G21G10
  20651642.248     -759803.44449   -589495.36647  20651642.465    20651647.050
  23464005.149     2137693.05749   1656908.21146  23464004.857    23464011.619
  21488917.108    -4823734.57549  -3749804.17247  21488916.832    21488922.072
  22027892.680    -4825956.83049  -3747431.66647  22027892.008    22027898.388
  23191483.260    -5727152.37449  -4448367.41146  23191482.611    23191487.770
  20766343.800    -2096325.20849  -1613806.17347  20766342.980    20766348.636
 03  6  8 15  3 30.0000000  0  6G30G24G 6G17G21G10
  20658409.726     -724240.38049   -561783.91447  20658409.940    20658414.531
  23479534.374     2219299.21049   1720497.35946  23479534.106    23479540.825
  21477700.180    -4882679.53549  -3795735.30347  21477699.987    21477705.205
  22017201.926    -4882136.92549  -3791208.35347  22017201.259    22017207.669
  23176965.172    -5803445.58349  -4507816.65346  23176964.431    23176969.591
  20768221.736    -2086456.99849  -1606116.66947  20768220.870    20768226.552
 03  6  8 15  4  0.0000000  0  6G30G24G 6G17G21G10
  20665284.819     -688111.61749   -533631.65847  20665285.041    20665289.619
  23495067.009     2300923.00149   1784100.23645  23495066.614    23495073.402
  21466514.684    -4941459.91149  -3841538.19047  21466514.461    21466519.678
  22006559.505    -4938063.38549  -3834787.40747  22006558.806    22006565.202
  23162484.278    -5879542.68649  -4567113.08146  23162483.596    23162488.695
  20770220.307    -2075954.38349  -1597932.82347  20770219.466    20770225.161
 03  6  8 15  4 30.0000000  0  6G30G24G 6G17G21G10
  20672267.354     -651418.50449   -505039.65347  20672267.557    20672272.130
  23510602.705     2382563.45049   1847716.10745  23510602.309    23510609.123
  21455360.672    -5000074.58449  -3887211.95647  21455360.463    21455365.683
  21995965.190    -4993736.79449  -3878169.27847  21995964.491    21995970.880
  23148040.883    -5955443.41249  -4626256.49746  23148040.155    23148045.267
  20772339.433    -2064818.45049  -1589255.48847  20772338.599    20772344.319
 03  6  8 15  5  0.0000000  0  6G30G24G 6G17G21G10
  20679356.960     -614162.51349   -476009.03947  20679357.159    20679361.749
  23526141.343     2464219.22849   1911343.93545  23526140.902    23526147.751
  21444238.474    -5058522.22449  -3932755.56047  21444238.233    21444243.424
  21985419.032    -5049156.82549  -3921353.70347  21985418.391    21985424.786
  23133634.738    -6031147.77949  -4685246.88746  23133634.148    23133639.236
  20774578.957    -2053049.67649  -1580085.02247  20774578.109    20774583.828
 03  6  8 15  5 30.0000000  0  6G30G24G 6G17G21G10
  20686553.562     -576344.20049   -446540.25247  20686553.777    20686558.361
  23541682.801     2545889.83449   1974983.30845  23541682.382    23541689.193
  21433148.380    -5116800.79949  -3978167.42547  21433148.190    21433153.383
  21974921.282    -5104323.09149  -3964340.39447  21974920.609    21974926.984
  23119266.216    -6106654.94249  -4744083.62446  23119265.606    23119270.670
  20776938.930    -2040648.26649  -1570421.59947  20776938.075    20776943.770
 03  6  8 15  6  0.0000000  0  6G30G24G 6G17G21G10
  20693856.793     -537965.48049   -416634.78547  20693857.021    20693861.622
  23557226.730     2627573.38849   2038632.75845  23557226.311    23557233.161
  21422090.690    -5174909.52949  -4023446.95547  21422090.465    21422095.678
  21964471.606    -5159236.58749  -4007130.11847  21964470.943    21964477.345
  23104935.261    -6181964.87249  -4802766.67046  23104934.587    23104939.646
  20779419.029    -2027615.34849  -1560266.08947  20779418.158    20779423.888
 03  6  8 15  6 30.0000000  0  6G30G24G 6G17G21G10
  20701266.448     -499027.82049   -386293.78547  20701266.671    20701271.255
  23572773.044     2709269.11449   2102291.69545  23572772.579    23572779.415
  21411065.488    -5232847.11749  -4068593.12247  21411065.308    21411070.506
  21954070.119    -5213896.85149  -4049722.52747  21954069.464    21954075.870
  23090641.815    -6257077.44149  -4861295.93546  23090641.132    23090646.226
  20782019.049    -2013952.04449  -1549619.37847  20782018.228    20782023.959
 03  6  8 15  7  0.0000000  0  6G30G24G 6G17G21G10
  20708782.325     -459531.94749   -355517.80547  20708782.538    20708787.114
  23588321.430     2790976.29549   2165959.57845  23588320.965    23588327.775
  21400073.351    -5290611.49049  -4113604.31747  21400073.138    21400078.343
  21943716.885    -5268303.40049  -4092117.22447  21943716.271    21943722.657
  23076386.114    -6331991.84449  -4919670.77046  23076385.411    23076390.510
  20784739.062    -1999658.45849  -1538481.53447  20784738.225    20784743.972
 03  6  8 15  7 30.0000000  0  6G30G24G 6G17G21G10
  20716404.138     -419479.25349   -324307.94547  20716404.352    20716408.911
  23603871.823     2872694.14249   2229635.75845  23603871.460    23603878.280
  21389114.336    -5348201.43349  -4158479.59647  21389114.134    21389119.327
  21933411.948    -5322456.61549  -4134314.52347  21933411.295    21933417.665
  23062168.129    -6406707.64749  -4977890.85046  23062167.444    23062172.594
  20787578.856    -1984735.35549  -1526853.15747  20787578.019    20787583.741
 03  6  8 15  8  0.0000000  0  6G30G24G 6G17G21G10
  20724131.617     -378871.44349   -292665.52847  20724131.802    20724136.368
  23619423.995     2954421.00749   2293318.95745  23619423.613    23619430.502
  21378188.813    -5405615.77249  -4203218.03847  21378188.588    21378193.772
  21923155.081    -5376356.76349  -4176314.63047  21923154.406    21923160.786
  23047987.906    -6481225.10849  -5035956.38646  23047987.260    23047992.401
  20790538.205    -1969183.91349  -1514735.16647  20790537.350    20790543.089
 03  6  8 15  8 30.0000000  0  6G30G24G 6G17G21G10
  20731964.449     -337709.87749   -260591.60547  20731964.629    20731969.202
  23634977.523     3036155.91949   2357008.41645  23634977.235    23634984.148
  21367296.903    -5462853.17249  -4247818.60647  21367296.688    21367301.850
  21912946.388    -5430003.89649  -4218117.57747  21912945.713    21912952.084
  23033845.679    -6555543.66749  -5093866.92646  23033844.911    23033850.039
  20793616.992    -1953004.89849  -1502128.15347  20793616.169    20793621.877
 03  6  8 15  9  0.0000000  0  6G30G24G 6G17G21G10
  20739902.533     -295995.16849   -228086.66847  20739902.714    20739907.295
  23650532.699     3117898.50449   2420703.86245  23650532.457    23650539.256
  21356439.176    -5519911.17549  -4292279.38647  21356438.905    21356444.067
  21902785.968    -5483397.30449  -4259722.82147  21902785.287    21902791.683
  23019741.220    -6629662.26649  -5151621.66246  23019740.565    23019745.718
  20796815.266    -1936198.23449  -1489032.06347  20796814.415    20796820.075
 03  6  8 15  9 30.0000000  0  6G30G24G 6G17G21G10
  20747945.467     -253729.35349   -195152.29547  20747945.656    20747950.220
  23666089.109     3199647.44749   2484404.28445  23666088.878    23666095.649
  21345615.710    -5576788.90749  -4336599.69647  21345615.468    21345620.635
  21892673.712    -5536537.55949  -4301130.80147  21892673.068    21892679.414
  23005674.844    -6703581.35949  -5209220.93146  23005674.243    23005679.345
  20800132.559    -1918765.68149  -1475448.26447  20800131.699    20800137.423
 03  6  8 15 10  0.0000000  0  6G30G24G 6G17G21G10
  20756092.826     -210914.91049   -161790.42347  20756093.016    20756097.587
  23681646.239     3281400.82849   2548108.14745  23681645.948    23681652.951
  21334826.595    -5633486.02749  -4380779.27347  21334826.357    21334831.542
  21882609.514    -5589425.15849  -4342341.90847  21882608.905    21882615.209
  22991646.499    -6777301.27649  -5266665.00346  22991645.855    22991650.894
  20803568.613    -1900708.95649  -1461378.10247  20803567.770    20803573.523
 03  6  8 15 10 30.0000000  0  6G30G24G 6G17G21G10
  20764344.435     -167552.71449   -128001.72747  20764344.593    20764349.181
  23697204.167     3363158.14649   2611815.06145  23697203.917    23697211.009
  21324072.263    -5690000.49349  -4424816.51947  21324072.022    21324077.188
  21872593.344    -5642060.50449  -4383356.45447  21872592.719    21872599.009
  22977656.208    -6850821.23049  -5323953.25846  22977655.530    22977660.481
  20807123.482    -1882028.37449  -1446821.82147  20807122.619    20807128.358
 03  6  8 15 11  0.0000000  0  6G30G24G 6G17G21G10
  20772700.003     -123644.05649    -93787.21747  20772700.179    20772704.779
  23712762.780     3444918.45249   2675524.32545  23712762.476    23712769.620
  21313353.005    -5746330.64849  -4468710.14747  21313352.763    21313357.926
  21862625.214    -5694443.18049  -4424174.11547  21862624.600    21862630.924
  22963703.948    -6924141.10749  -5381085.61846  22963703.259    22963708.179
  20810796.770    -1862724.92149  -1431780.18547  20810795.926    20810801.686
 03  6  8 15 11 30.0000000  0  6G30G24G 6G17G21G10
  20781159.223      -79190.53049    -59148.13347  20781159.433    20781164.046
  23728321.699     3526681.01749   2739235.33145  23728321.435    23728328.609
  21302669.085    -5802474.91149  -4512458.92847  21302668.859    21302674.023
  21852705.237    -5746572.95449  -4464794.70247  21852704.657    21852710.957
  22949789.726    -6997260.49449  -5438061.74446  22949789.042    22949794.068
  20814588.510    -1842799.57449  -1416253.95547  20814587.621    20814593.389
 03  6  8 15 12  0.0000000  0  6G30G24G 6G17G21G10
  20789722.025      -34193.00549    -24085.15547  20789722.205    20789726.823
  23743881.076     3608445.46449   2802947.82745  23743880.833    23743887.921
  21292021.012    -5858431.05249  -4556061.12547  21292020.771    21292025.934
  21842833.561    -5798449.22149  -4505217.75847  21842832.911    21842839.186
  22935913.864    -7070178.38149  -5494880.85146  22935913.227    22935918.273
  20818498.455    -1822252.56049  -1400243.31247  20818497.624    20818503.376
 03  6  8 15 12 30.0000000  0  6G30G24G 6G17G21G10
  20798387.702       11345.19549     11399.12747  20798387.886    20798392.486
  23759440.360     3690209.21049   2866659.77045  23759439.982    23759447.141
  21281408.664    -5914199.56549  -4599517.11747  21281408.417    21281413.563
  21833009.644    -5850074.12149  -4545444.94247  21833009.002    21833015.277
  22922076.097    -7142896.38549  -5551544.21346  22922075.517    22922080.498
  20822526.269    -1801086.80949  -1383750.53747  20822525.375    20822531.086
 03  6  8 15 13  0.0000000  0  6G30G24G 6G17G21G10
  20807156.129       57423.51749     47304.28347  20807156.325    20807160.917
  23774999.328     3771972.31949   2930371.20845  23774998.971    23775006.174
  21270832.512    -5969777.77349  -4642824.81847  21270832.259    21270837.404
  21823233.815    -5901446.61049  -4585475.44047  21823233.170    21823239.445
  22908276.753    -7215412.50549  -5608050.25946  22908276.161    22908281.125
  20826671.729    -1779302.21649  -1366775.54247  20826670.846    20826676.585
 03  6  8 15 13 30.0000000  0  6G30G24G 6G17G21G10
  20816027.154      104040.98649     83629.55147  20816027.364    20816031.980
  23790558.273     3853734.15249   2994081.65345  23790557.869    23790565.056
  21260292.922    -6025163.82149  -4685982.78547  21260292.676    21260297.812
  21813506.052    -5952566.21049  -4625308.88847  21813505.424    21813511.701
  22894515.849    -7287726.69749  -5664398.95846  22894515.207    22894520.166
  20830934.889    -1756899.31849  -1349318.75347  20830933.995    20830939.744
 03  6  8 15 14  0.0000000  0  6G30G24G 6G17G21G10
  20825000.275      151194.92249    120372.84847  20825000.502    20825005.121
  23806116.539     3935492.86449   3057789.67945  23806116.159    23806123.267
  21249789.989    -6080357.07949  -4728990.52547  21249789.747    21249794.888
  21803826.313    -6003433.77449  -4664945.93647  21803825.636    21803831.923
  22880793.210    -7359839.63249  -5720590.84046  22880792.567    22880797.517
  20835315.259    -1733880.09049  -1331381.71047  20835314.432    20835320.164
 03  6  8 15 14 30.0000000  0  6G30G24G 6G17G21G10
  20834075.420      198884.84049    157533.79347  20834075.619    20834080.226
  23821674.231     4017248.79449   3121495.53945  23821673.878    23821680.865
  21239324.267    -6135354.72649  -4771845.83947  21239324.032    21239329.173
  21794194.682    -6054048.34549  -4704385.85147  21794194.023    21794200.279
  22867109.167    -7431749.58649  -5776624.54846  22867108.530    22867113.519
  20839813.034    -1710244.49449  -1312964.37947  20839812.168    20839817.882
 03  6  8 15 15  0.0000000  0  7G30G24G 6G17G21G10G29
  20843252.013      247107.96649    195110.23047  20843252.207    20843256.828
  23837231.064     4099000.13849   3185197.82245  23837230.679    23837237.684
  21228895.872    -6190156.45849  -4814548.49347  21228895.631    21228900.785
  21784610.933    -6104411.21149  -4743629.63247  21784610.288    21784616.497
  22853463.646    -7503457.55149  -5832500.85146  22853462.987    22853467.946
  20844427.598    -1685994.94949  -1294068.65047  20844426.724    20844432.427
                  -1628067.94649  -1249326.54143
 03  6  8 15 15 30.0000000  0  7G30G24G 6G17G21G10G29
  20852529.905      295863.37049    233101.42247  20852530.074    20852534.717
  23852786.989     4180746.64649   3248896.32545  23852786.579    23852793.504
  21218505.130    -6244760.00749  -4857096.71947  21218504.895    21218510.091
  21775075.192    -6154522.05649  -4782677.04247  21775074.520    21775080.723
  22839856.585    -7574962.64649  -5888219.08246  22839856.017    22839860.964
  20849158.863    -1661132.21449  -1274695.10547  20849157.948    20849163.701
                  -1702860.69349  -1070217.65343
 03  6  8 15 16  0.0000000  0  7G30G24G 6G17G21G10G29
  20861908.215      345146.57249    271503.88747  20861908.381    20861913.046
  23868341.190     4262484.48349   3312588.07745  23868340.831    23868347.832
  21208151.943    -6299166.59549  -4899491.47047  21208151.692    21208156.893
  21765586.869    -6204383.59449  -4821530.18147  21765586.208    21765592.397
  22826287.751    -7646267.46849  -5943781.26846  22826287.101    22826292.115
  20854005.985    -1635660.16949  -1254846.77747  20854005.113    20854010.902
                  -1777586.08949  -1128444.91743
 03  6  8 15 16 30.0000000  0  7G30G24G 6G17G21G10G29
  20871386.778      394956.64549    310316.90047  20871386.939    20871391.600
  23883893.770     4344213.61449   3376273.04445  23883893.425    23883900.493
  21197836.662    -6353373.90249  -4941730.93447  21197836.393    21197841.591
  21756146.088    -6253995.20449  -4860188.57147  21756145.414    21756151.626
  22812757.200    -7717370.89749  -5999186.51246  22812756.567    22812761.572
  20858969.045    -1609579.08049  -1234523.87647  20858968.187    20858973.971
                  -1852240.46849  -1186617.00243
 03  6  8 15 17  0.0000000  0  7G30G24G 6G17G21G10G29
  20880965.823      445294.50349    349541.17347  20880965.938    20880970.597
  23899444.934     4425935.99249   3439952.74545  23899444.709    23899451.876
  21187560.106    -6407377.68749  -4983811.81447  21187559.838    21187565.039
  21746753.386    -6303354.00449  -4898649.96647  21746752.746    21746758.952
  22799265.653    -7788269.97649  -6054432.52646  22799264.937    22799269.917
  20864048.362    -1582887.52449  -1213725.28547  20864047.480    20864053.235
                  -1926817.90149  -1244729.27644                  24523905.888
 03  6  8 15 17 30.0000000  0  7G30G24G 6G17G21G10G29
  20890644.881      496158.39049    389175.33847  20890645.047    20890649.715
  23914994.785     4507650.59949   3503626.39645  23914994.514    23915001.696
  21177322.576    -6461176.25049  -5025732.77547  21177322.325    21177327.528
  21737408.691    -6352460.41949  -4936914.69447  21737408.086    21737414.330
  22785812.988    -7858964.29949  -6109518.98146  22785812.261    22785817.219
  20869243.540    -1555586.83749  -1192452.04547  20869242.664    20869248.397
  24509723.019    -2001315.71649  -1302779.42745  24509722.172    24509731.650
 03  6  8 15 18  0.0000000  0  7G30G24G 6G17G21G10G29
  20900423.795      547546.85649    429218.26547  20900423.938    20900428.645
  23930543.054     4589356.92749   3567293.59945  23930542.760    23930549.952
  21167124.475    -6514767.69149  -5067492.34847  21167124.225    21167129.407
  21728112.148    -6401314.21949  -4974982.58247  21728111.511    21728117.765
  22772399.341    -7929453.34149  -6164445.49646  22772398.637    22772403.553
  20874554.518    -1527677.79549  -1170704.75847  20874553.617    20874559.296
  24495562.335    -2075730.43349  -1360764.86545  24495562.405    24495570.132
 03  6  8 15 18 30.0000000  0  7G30G24G 6G17G21G10G29
  20910301.991      599456.93649    469667.65147  20910302.149    20910306.876
  23946089.331     4671052.91849   3630952.75145  23946089.067    23946096.272
  21156965.843    -6568151.85349  -5109090.39647  21156965.578    21156970.742
  21718863.429    -6449916.47249  -5012854.45647  21718862.804    21718869.095
  22759024.522    -7999738.15549  -6219212.86246  22759023.875    22759028.740
  20879980.688    -1499163.20849  -1148485.62047  20879979.801    20879985.505
  24481417.777    -2150060.13749  -1418684.05645  24481417.177    24481425.550
 03  6  8 15 19  0.0000000  0  7G30G24G 6G17G21G10G29
  20920279.403      651888.35249    510523.26547  20920279.552    20920284.271
  23961633.953     4752739.67149   3694604.68345  23961633.676    23961640.863
  21146847.274    -6621325.47249  -5150524.39147  21146847.032    21146852.147
  21709662.955    -6498265.51949  -5050529.03647  21709662.274    21709668.560
  22745689.017    -8069816.93849  -6273819.67946  22745688.258    22745693.112
  20885522.146    -1470042.84449  -1125794.45047  20885521.274    20885526.954
  24467290.355    -2224300.20749  -1476533.43045  24467290.138    24467298.604
 03  6  8 15 19 30.0000000  0  7G30G24G 6G17G21G10G29
  20930354.914      704835.61049    551780.83747  20930355.087    20930359.827
  23977175.779     4834412.39749   3758245.68645  23977175.506    23977182.861
  21136768.334    -6674290.73249  -5191796.02547  21136768.060    21136773.157
  21700509.932    -6546365.39149  -5088009.45147  21700509.220    21700515.460
  22732391.944    -8139693.43749  -6328268.88946  22732391.263    22732396.066
  20891177.924    -1440321.83749  -1102635.24647  20891177.049    20891182.705
  24453179.598    -2298451.68749  -1534313.77345  24453179.406    24453188.059
 03  6  8 15 20  0.0000000  0  7G30G24G 6G17G21G10G29
  20940528.845      758299.69649    593441.13147  20940529.003    20940533.765
  23992715.335     4916073.22649   3821877.44045  23992715.069    23992722.264
  21126729.894    -6727043.11449  -5232901.78347  21126729.649    21126734.746
  21691404.754    -6594213.28849  -5125293.52147  21691404.043    21691410.291
  22719133.948    -8209364.37949  -6382557.90946  22719133.271    22719138.107
  20896948.296    -1409998.49949  -1079006.69147  20896947.384    20896953.067
  24439087.087    -2372508.36649  -1592020.25645  24439087.032    24439095.481
 03  6  8 15 20 30.0000000  0  7G30G24G 6G17G21G10G29
  20950800.382      812276.78849    635501.16947  20950800.542    20950805.299
  24008251.985     4997719.48149   3885497.81045  24008251.743    24008259.156
  21116731.844    -6779583.09549  -5273842.02947  21116731.611    21116736.726
  21682347.062    -6641811.75249  -5162383.22447  21682346.374    21682352.609
  22705914.747    -8278831.42949  -6436688.05846  22705914.093    22705918.994
  20902832.610    -1379076.04449  -1054911.29547  20902831.731    20902837.455
  24425012.834    -2446469.11749  -1649651.95345  24425012.705    24425021.265
 03  6  8 15 21  0.0000000  0  7G30G24G 6G17G21G10G29
  20961169.669      866767.67049    677961.56547  20961169.844    20961174.609
  24023786.418     5079352.94549   3949108.24145  24023786.209    24023793.556
  21106775.075    -6831906.48649  -5314613.50447  21106774.814    21106779.944
  21673337.286    -6689158.52449  -5199276.80547  21673336.591    21673342.812
  22692734.842    -8348091.86049  -6490657.21146  22692734.237    22692739.198
  20908831.176    -1347553.48149  -1030348.27747  20908830.278    20908836.009
  24410957.808    -2520328.62149  -1707204.77945  24410957.805    24410966.144
 03  6  8 15 21 30.0000000  0  7G30G24G 6G17G21G10G29
  20971636.070      921768.53949    720819.35547  20971636.218    20971640.974
  24039317.956     5160971.27549   4012706.86245  24039317.726    24039325.045
  21096859.489    -6884013.26849  -5355216.20147  21096859.238    21096864.363
  21664375.131    -6736255.02649  -5235975.36047  21664374.416    21664380.670
  22679594.026    -8417147.16149  -6544466.51346  22679593.424    22679598.340
  20914943.285    -1315434.13049  -1005320.23647  20914942.387    20914948.132
  24396922.360    -2594085.35249  -1764677.51945  24396922.293    24396930.555
 03  6  8 15 22  0.0000000  0  7G30G24G 6G17G21G10G29
  20982198.915      977276.74949    764072.47547  20982199.106    20982203.857
  24054846.328     5242572.56649   4076292.21545  24054846.027    24054853.295
  21086985.266    -6935902.74649  -5395649.57047  21086985.004    21086990.152
  21655460.429    -6783102.07149  -5272479.54847  21655459.727    21655465.938
  22666492.099    -8485998.05549  -6598116.54146  22666491.505    22666496.409
  20921168.516    -1282720.29949   -979828.96647  20921167.607    20921173.418
  24382906.753    -2667737.34949  -1822068.65345  24382906.675    24382915.072
 03  6  8 15 22 30.0000000  0  7G30G24G 6G17G21G10G29
  20992858.163     1033291.24949    807720.10547  20992858.346    20992863.114
  24070371.406     5324157.11649   4139864.52945  24070371.129    24070378.393
  21077152.892    -6987572.30849  -5435911.57347  21077152.611    21077157.778
  21646593.251    -6829699.24249  -5308789.01947  21646592.566    21646598.798
  22653429.362    -8554643.40149  -6651606.39646  22653428.728    22653433.618
  20927506.753    -1249412.66049   -953874.97847  20927505.879    20927511.660
  24368911.989    -2741280.41049  -1879374.87945  24368911.733    24368920.457
 03  6  8 15 23  0.0000000  0  7G30G24G 6G17G21G10G29
  21003613.417     1089810.35749    851760.92547  21003613.591    21003618.368
  24085893.240     5405724.61449   4203423.53645  24085892.973    24085900.363
  21067362.690    -7039020.15249  -5476000.80847  21067362.429    21067367.594
  21637773.639    -6876046.67449  -5344903.89547  21637772.941    21637779.179
  22640405.784    -8623082.67549  -6704935.68446  22640405.144    22640410.021
  20933957.837    -1215512.41649   -927459.22847  20933956.923    20933962.696
  24354938.514    -2814711.38249  -1936593.72845  24354938.386    24354947.012
 03  6  8 15 23 30.0000000  0  7G30G24G 6G17G21G10G29
  21014464.238     1146831.57549    896193.00347  21014464.409    21014469.209
  24101411.629     5487273.84949   4266968.32245  24101411.440    24101418.815
  21057614.853    -7090245.23449  -5515916.46547  21057614.627    21057619.808
  21629001.488    -6922144.40049  -5380824.19047  21629000.834    21629007.060
  22627421.352    -8691316.23849  -6758104.67546  22627420.693    22627425.624
  20940521.202    -1181021.60749   -900583.30047  20940520.319    20940526.079
  24340986.857    -2888027.70849  -1993723.25145  24340986.706    24340995.282
 03  6  8 15 24  0.0000000  0  7G30G24G 6G17G21G10G29
  21025410.072     1204352.39249    941014.38447  21025410.271    21025415.081
  24116926.353     5568803.36549   4330497.74445  24116926.080    24116933.437
  21047909.686    -7141246.28049  -5555657.54247  21047909.456    21047914.682
  21620276.685    -6967993.42549  -5416550.69347  21620276.044    21620282.278
  22614476.044    -8759344.42849  -6811113.62646  22614475.394    22614480.316
  20947196.693    -1145942.31749   -873248.80747  20947195.748    20947201.482
  24327057.394    -2961226.82949  -2050761.43645  24327057.179    24327065.921
 03  6  8 15 24 30.0000000  0  7G30G24G 6G17G21G10G29
  21036450.809     1262371.48349    986224.02947  21036450.968    21036455.769
  24132437.145     5650313.26049   4394011.87545  24132436.742    24132444.267
  21038247.594    -7192020.86249  -5595222.15847  21038247.374    21038252.601
  21611599.394    -7013593.07449  -5452082.87547  21611598.722    21611604.932
  22601569.939    -8827166.32149  -6863961.82546  22601569.269    22601574.233
  20953983.848    -1110275.44449   -845456.45847  20953982.920    20953988.664
  24313151.165    -3034305.04449  -2107705.39345  24313151.066    24313159.440
 03  6  8 15 25  0.0000000  0  7G30G24G 6G17G21G10G29
  21047585.978     1320886.79649   1031820.33747  21047586.109    21047590.899
  24147944.088     5731802.69449   4457510.05145  24147943.786    24147951.258
  21028628.911    -7242567.55549  -5634609.19647  21028628.653    21028633.874
  21602969.415    -7058943.91849  -5487421.18147  21602968.746    21602974.954
  22588703.068    -8894781.92549  -6916649.29146  22588702.436    22588707.371
  20960882.537    -1074022.65649   -817207.55547  20960881.643    20960887.395
  24299268.262    -3107259.29849  -2164552.75545  24299268.077    24299276.488
 03  6  8 15 25 30.0000000  0  7G30G24G 6G17G21G10G29
  21058815.218     1379896.67549   1077802.02347  21058815.375    21058820.158
  24163447.063     5813271.24449   4520991.97345  24163446.814    24163454.326
  21019053.976    -7292884.28849  -5673817.04647  21019053.722    21019058.958
  21594386.860    -7104045.43449  -5522565.21047  21594386.197    21594392.403
  22575875.637    -8962190.56449  -6969175.48446  22575874.977    22575879.898
  20967892.553    -1037185.04149   -788502.93747  20967891.651    20967897.413
  24285409.678    -3180086.27849  -2221300.93345  24285409.461    24285417.761
 03  6  8 15 26  0.0000000  0  7G30G24G 6G17G21G10G29
  21070137.935     1439397.66649   1124166.39447  21070138.077    21070142.865
  24178945.814     5894717.14649   4584456.23045  24178945.524    24178953.096
  21009522.839    -7342970.64949  -5712845.38347  21009522.620    21009527.864
  21585851.449    -7148899.46649  -5557516.40147  21585850.746    21585856.982
  22563087.460    -9029393.23549  -7021541.18146  22563086.770    22563091.647
  20975013.223     -999765.89149   -759345.17547  20975012.321    20975018.067
  24271575.722    -3252784.10249  -2277948.45245  24271575.579    24271583.953
 03  6  8 15 26 30.0000000  0  7G30G24G 6G17G21G10G29
  21081553.856     1499388.54049   1170912.49447  21081553.984    21081558.791
  24194440.251     5976140.24649   4647902.70745  24194439.908    24194447.485
  21000036.011    -7392824.41549  -5751692.47647  21000035.788    21000041.025
  21577363.352    -7193504.90249  -5592273.87847  21577362.623    21577368.870
  22550338.564    -9096389.28949  -7073745.88046  22550337.886    22550342.752
  20982244.370     -961766.08049   -729734.95347  20982243.465    20982249.195
  24257767.008    -3325349.18049  -2334492.53045  24257766.588    24257775.321
 03  6  8 15 27  0.0000000  0  7G30G24G 6G17G21G10G29
  21093062.595     1559867.29049   1218038.75147  21093062.736    21093067.538
  24209930.182     6057540.13549   4711331.11245  24209929.804    24209937.447
  20990593.782    -7442443.67649  -5790356.84347  20990593.554    20990598.784
  21568922.445    -7237862.21649  -5626838.01147  21568921.726    21568927.963
  22537629.017    -9163178.47649  -7125789.38746  22537628.325    22537633.189
  20989585.650     -923187.13349   -699673.45847  20989584.753    20989590.565
  24243983.967    -3397778.27649  -2390930.66245  24243983.710    24243992.461
 03  6  8 15 27 30.0000000  0  7G30G24G 6G17G21G10G29
  21104663.880     1620832.04249   1265543.71847  21104663.995    21104668.805
  24225415.658     6138916.39249   4774741.12845  24225415.373    24225422.806
  20981196.562    -7491826.70349  -5828837.12547  20981196.320    20981201.528
  21560528.673    -7281971.76249  -5661209.07347  21560527.967    21560534.197
  22524958.887    -9229760.18049  -7177671.21546  22524958.216    22524963.082
  20997036.917     -884030.36549   -669161.70647  20997036.054    20997041.881
  24230227.598    -3470068.17449  -2447260.31545  24230227.293    24230235.986
 03  6  8 15 28  0.0000000  0  7G30G24G 6G17G21G10G29
  21116356.992     1682279.68749   1313424.96247  21116357.140    21116361.945
  24240896.384     6220267.42049   4838131.45445  24240895.996    24240903.495
  20971844.421    -7540972.72049  -5867132.72847  20971844.144    20971849.348
  21552181.987    -7325833.98849  -5695387.41947  21552181.275    21552187.513
  22512328.032    -9296135.47749  -7229392.20846  22512327.420    22512332.228
  21004597.690     -844298.72649   -638202.00847  21004596.760    21004602.623
  24216498.189    -3542216.45349  -2503479.61945  24216497.997    24216506.562
 03  6  8 15 28 30.0000000  0  7G30G24G 6G17G21G10G29
  21128141.693     1744208.60049   1361681.21947  21128141.862    21128146.681
  24256372.220     6301593.21549   4901502.13445  24256371.823    24256379.385
  20962537.746    -7589879.64249  -5905242.02247  20962537.507    20962542.708
  21543882.394    -7369448.76149  -5729372.94747  21543881.651    21543887.863
  22499736.713    -9362303.48349  -7280951.66646  22499736.057    22499740.880
  21012267.501     -803993.56849   -606795.40847  21012266.621    21012272.448
  24202796.502    -3614219.92849  -2559586.08345  24202796.193    24202804.730
 03  6  8 15 29  0.0000000  0  7G30G24G 6G17G21G10G29
  21140017.499     1806616.35449   1410310.59647  21140017.690    21140022.511
  24271843.118     6382892.85549   4964852.44245  24271842.723    24271850.213
  20953276.886    -7638545.88649  -5943163.77647  20953276.648    20953281.814
  21535629.721    -7412816.63949  -5763166.09247  21535629.004    21535635.224
  22487184.807    -9428264.31149  -7332349.70246  22487184.137    22487188.932
  21020046.128     -763116.71849   -574943.33747  21020045.245    21020051.055
  24189122.712    -3686075.64249  -2615577.40645  24189122.379    24189130.892
 03  6  8 15 29 30.0000000  0  7G30G24G 6G17G21G10G29
  21151984.056     1869500.88849   1459311.48847  21151984.236    21151989.076
  24287308.893     6464165.71549   5028181.85545  24287308.456    24287316.087
  20944062.222    -7686969.64249  -5980896.57647  20944061.928    20944067.103
  21527424.088    -7455937.70449  -5796766.91747  21527423.355    21527429.579
  22474672.314    -9494017.84649  -7383586.21146  22474671.688    22474676.505
  21027933.195     -721669.86649   -542647.10547  21027932.325    21027938.146
  24175477.546    -3757780.56649  -2671451.24545  24175477.206    24175485.805
 03  6  8 15 30  0.0000000  0  7G30G24G 6G17G21G10G29
  21164040.938     1932860.05749   1508682.23247  21164041.129    21164045.981
  24302769.390     6545411.17149   5091489.91545  24302768.913    24302776.619
  20934893.915    -7735149.23749  -6018439.12347  20934893.635    20934898.798
  21519265.294    -7498812.23549  -5830175.62947  21519264.613    21519270.829
  22462199.366    -9559563.81849  -7434660.97446  22462198.694    22462203.463
  21035928.377     -679655.02649   -509908.28847  21035927.510    21035933.321
  24161861.785    -3829331.39749  -2727205.00245  24161861.471    24161869.945
 03  6  8 15 30 30.0000000  0  7G30G24G 6G17G21G10G29
  21176187.822     1996692.23249   1558421.54947  21176187.970    21176192.876
  24318224.578     6626628.89349   5154776.37545  24318224.204    24318231.873
  20925772.501    -7783082.51449  -6055789.73047  20925772.239    20925777.429
  21511153.466    -7541440.00449  -5863392.06847  21511152.789    21511158.984
  22449765.999    -9624901.34649  -7485573.31346  22449765.401    22449770.105
  21044031.439     -637073.33149   -476727.76347  21044030.541    21044036.361
  24148275.955    -3900724.82749  -2782836.11745  24148275.737    24148284.022
 03  6  8 15 31  0.0000000  0  7G30G24G 6G17G21G10G29
  21188424.129     2060994.30749   1608527.01047  21188424.279    21188429.199
  24333674.431     6707817.80949   5218040.38045  24333674.087    24333681.704
  20916698.145    -7830768.59849  -6092947.72547  20916697.881    20916703.065
  21503088.399    -7583822.18049  -5896417.14147  21503087.712    21503093.916
  22437372.152    -9690031.46149  -7536324.03246  22437371.491    22437376.189
  21052241.869     -593927.50049   -443107.66047  21052240.977    21052246.752
  24134720.535    -3971958.75849  -2838342.95245  24134720.352    24134728.351
 03  6  8 15 31 30.0000000  0  7G30G24G 6G17G21G10G29
  21200749.358     2125763.63249   1658996.56747  21200749.546    21200754.459
  24349118.640     6788977.23549   5281281.41745  24349118.356    24349125.794
  20907671.112    -7878205.95549  -6129911.90147  20907670.861    20907676.033
  21495070.041    -7625958.97149  -5929250.99847  21495069.353    21495075.536
  22425017.747    -9754954.08849  -7586913.07946  22425017.094    22425021.738
  21060559.215     -550219.58349   -409049.56047  21060558.309    21060564.071
  24121195.974    -4043030.04149  -2893723.02845  24121195.794    24121203.696
 03  6  8 15 32  0.0000000  0  7G30G24G 6G17G21G10G29
  21213163.218     2190998.66749   1709829.00847  21213163.422    21213168.316
  24364557.115     6870106.94549   5344499.28245  24364556.808    24364564.511
  20898691.832    -7925392.41249  -6166680.57947  20898691.617    20898696.750
  21487098.519    -7667849.71749  -5961893.13347  21487097.832    21487103.990
  22412702.954    -9819668.54649  -7637339.91646  22412702.319    22412706.987
  21068983.260     -505950.99649   -374554.58247  21068982.387    21068988.129
  24107703.107    -4113935.39249  -2948973.82945  24107702.925    24107710.753
 03  6  8 15 32 30.0000000  0  7G30G24G 6G17G21G10G29
  21225665.320     2256697.49649   1761022.85447  21225665.497    21225670.415
  24379990.001     6951206.72349   5407693.82445  24379989.574    24379997.192
  20889760.704    -7972326.03649  -6203252.23547  20889760.460    20889765.581
  21479173.684    -7709494.94049  -5994343.95147  21479173.018    21479179.154
  22400427.683    -9884175.12749  -7687604.76846  22400427.097    22400431.797
  21077513.764     -461123.29549   -339623.92747  21077512.861    21077518.610
  24094242.356    -4184671.13849  -3004092.46045  24094242.184    24094250.297
 03  6  8 15 33  0.0000000  0  7G30G24G 6G17G21G10G29
  21238255.133     2322857.22549   1812575.84447  21238255.302    21238260.236
  24395416.973     7032275.27049   5470864.05845  24395416.435    24395424.224
  20880877.870    -8019005.69949  -6239626.00247  20880877.609    20880882.723
  21471295.488    -7750894.99549  -6026603.73047  21471294.822    21471300.994
  22388192.214    -9948473.35049  -7737707.26846  22388191.597    22388196.251
  21086150.103     -415739.13349   -304259.66947  21086149.213    21086154.967
  24080814.404    -4255234.97249  -3059077.16945  24080814.159    24080822.230
 03  6  8 15 33 30.0000000  0  7G30G24G 6G17G21G10G29
  21250932.171     2389475.09949   1864485.83247  21250932.306    21250937.261
  24410837.655     7113311.63349   5534009.19545  24410837.199    24410844.920
  20872043.630    -8065430.10449  -6275800.86647  20872043.355    20872048.461
  21463463.853    -7792050.56149  -6058672.99847  21463463.194    21463469.361
  22375996.259   -10012563.82149  -7787647.88746  22375995.571    22376000.208
  21094891.910     -369800.75249   -268463.54847  21094891.011    21094896.781
  24067419.668    -4325624.21749  -3113925.80045  24067419.542    24067427.688
 03  6  8 15 34  0.0000000  0  7G30G24G 6G17G21G10G29
  21263696.025     2456549.41649   1916751.48947  21263696.209    21263701.151
  24426252.196     7194316.03049   5597129.38945  24426251.838    24426259.611
  20863258.429    -8111596.80349  -6311774.91647  20863258.147    20863263.254
  21455678.714    -7832961.54049  -6090551.67347  21455678.073    21455684.251
  22363839.866   -10076445.78249  -7837426.02446  22363839.206    22363843.863
  21103738.869     -323309.70849   -232236.78647  21103737.986    21103743.799
  24054058.886    -4395835.29949  -3168635.62345  24054058.682    24054066.768
 03  6  8 15 34 30.0000000  0  7G30G24G 6G17G21G10G29
  21276546.231     2524077.69549   1969370.88547  21276546.423    21276551.413
  24441660.567     7275287.70449   5660224.10745  24441660.460    24441668.265
  20854522.488    -8157504.62349  -6347547.24947  20854522.195    20854527.324
  21447940.026    -7873628.89549  -6122240.51847  21447939.351    21447945.544
  22351723.105   -10140119.59349  -7887041.96646  22351722.464    22351727.129
  21112690.527     -276268.43849   -195581.27147  21112689.639    21112695.484
  24040732.442    -4465865.49549  -3223204.49945  24040732.168    24040740.392
 03  6  8 15 35  0.0000000  0  7G30G24G 6G17G21G10G29
  21289482.420     2592057.63949   2022342.22247  21289482.618    21289487.640
  24457062.718     7356225.98949   5723292.81745  24457062.438    24457070.206
  20845836.173    -8203151.31749  -6383116.10747  20845835.888    20845841.021
  21440247.829    -7914051.47049  -6153738.62847  21440247.176    21440253.371
  22339646.009   -10203584.85549  -7936495.40646  22339645.415    22339650.086
  21121746.669     -228678.18449   -158497.97647  21121745.760    21121751.636
  24027441.180    -4535711.33949  -3277629.73745  24027440.959    24027449.158
 03  6  8 15 35 30.0000000  0  7G30G24G 6G17G21G10G29
  21302503.992     2660486.30949   2075663.21947  21302504.173    21302509.226
  24472458.358     7437129.96049   5786334.77845  24472457.988    24472465.812
  20837199.788    -8248535.81749  -6418480.65547  20837199.507    20837204.689
  21432602.001    -7954230.91949  -6185047.28847  21432601.289    21432607.467
  22327608.634   -10266841.87049  -7985786.57946  22327607.989    22327612.706
  21130906.715     -180542.00049   -120989.28847  21130905.808    21130911.684
  24014185.368    -4605370.50649  -3331909.50545  24014185.155    24014193.301
 03  6  8 15 36  0.0000000  0  7G30G24G 6G17G21G10G29
  21315610.591     2729361.62449   2129332.24947  21315610.770    21315615.818
  24487847.443     7517999.51649   5849349.94045  24487847.135    24487854.842
  20828613.615    -8293656.40449  -6453639.55347  20828613.351    20828618.509
  21425002.316    -7994167.41249  -6216166.62847  21425001.610    21425007.773
  22315610.829   -10329890.62549  -8034915.46546  22315610.205    22315614.907
  21140170.299     -131861.65249    -83056.57247  21140169.405    21140175.277
  24000965.727    -4674840.02249  -3386041.48945  24000965.448    24000973.591
 03  6  8 15 36 30.0000000  0  7G30G24G 6G17G21G10G29
  21328801.757     2798681.22349   2183347.46347  21328801.908    21328806.950
  24503229.837     7598833.91249   5912337.70345  24503229.557    24503237.224
  20820077.997    -8338511.33249  -6488591.45147  20820077.760    20820082.915
  21417448.886    -8033861.02549  -6247096.72147  21417448.179    21417454.348
  22303652.663   -10392730.81549  -8083881.83146  22303652.103    22303656.841
  21149537.060      -82638.94349    -44701.24047  21149536.181    21149542.074
  23987782.722    -4744116.56649  -3440023.10845  23987782.484    23987790.557
 03  6  8 15 37  0.0000000  0  7G30G24G 6G17G21G10G29
  21342076.986     2868442.55549   2237706.89347  21342077.107    21342082.143
  24518605.420     7679632.57949   5975297.60945  24518605.094    24518612.910
  20811593.267    -8383098.96349  -6523335.06647  20811593.014    20811598.188
  21409941.632    -8073311.91349  -6277837.67447  21409940.936    21409947.109
  22291734.288   -10455362.48549  -8132685.71146  22291733.704    22291738.405
  21159006.626      -32876.34849     -5925.21847  21159005.725    21159011.586
  23974637.010    -4813197.35549  -3493852.21545  23974636.834    23974644.837
 03  6  8 15 37 30.0000000  0  7G30G24G 6G17G21G10G29
  21355435.739     2938643.24049   2292408.66347  21355435.850    21355440.901
  24533974.125     7760395.55349   6038229.71345  24533973.793    24533981.445
  20803159.842    -8427417.20649  -6557868.76247  20803159.552    20803164.729
  21402480.497    -8112520.32049  -6308389.67747  21402479.831    21402485.992
  22279855.607   -10517785.33049  -8181326.87546  22279855.047    22279859.732
  21168578.516       17424.13049     33269.93847  21168577.628    21168583.448
  23961529.214    -4882078.86649  -3547526.01845  23961529.049    23961537.149
 03  6  8 15 38  0.0000000  0  7G30G24G 6G17G21G10G29
  21368877.715     3009280.87949   2347450.90747  21368877.834    21368882.851
  24549335.887     7841121.59349   6101133.01845  24549335.498    24549343.280
  20794777.859    -8471464.75249  -6592191.52847  20794777.575    20794782.732
  21395065.509    -8151486.64449  -6338753.04547  21395064.805    21395070.961
  22268016.553   -10579999.91649  -8229805.75446  22268016.043    22268020.706
  21178252.396       68260.34849     72882.54847  21178251.481    21178257.265
  23948459.958    -4950758.50549  -3601042.54945  23948459.756    23948467.792
 03  6  8 15 38 30.0000000  0  7G30G24G 6G17G21G10G29
  21382402.269     3080352.98649   2402831.70847  21382402.421    21382407.462
  24564690.561     7921810.61949   6164007.48845  24564690.178    24564698.113
  20786447.779    -8515239.59249  -6626301.79247  20786447.482    20786452.678
  21387696.525    -8190210.93249  -6368927.81047  21387695.816    21387701.988
  22256217.301   -10642005.75449  -8278121.98346  22256216.702    22256221.366
  21188027.844      119630.27749    112911.03647  21188026.924    21188032.685
  23935429.693    -5019233.20949  -3654399.37245  23935429.377    23935437.383
 03  6  8 15 39  0.0000000  0  7G30G24G 6G17G21G10G29
  21396008.997     3151856.56549   2458548.72147  21396009.161    21396014.192
  24580038.118     8002461.61349   6226852.34445  24580037.753    24580045.556
  20778169.752    -8558740.77349  -6660198.82047  20778169.493    20778174.682
  21380373.411    -8228693.94549  -6398914.57647  21380372.736    21380378.912
  22244457.656   -10703803.11149  -8326275.75046  22244457.063    22244461.722
  21197904.303      171531.16249    153353.24947  21197903.377    21197909.141
  23922438.787    -5087500.58949  -3707594.65845  23922438.530    23922446.346
 03  6  8 15 39 30.0000000  0  7G30G24G 6G17G21G10G29
  21409697.558     3223790.01649   2514600.70647  21409697.705    21409702.746
  24595378.313     8083074.73549   6289667.66845  24595377.984    24595385.781
  20769944.300    -8601965.77549  -6693880.64847  20769944.047    20769949.229
  21373096.292    -8266935.53049  -6428713.21947  21373095.604    21373101.793
  22232737.820   -10765391.33749  -8374266.56446  22232737.176    22232741.867
  21207881.490      223961.49749    194208.02847  21207880.550    21207886.309
  23909488.075    -5155556.79949  -3760625.39845  23909487.827    23909495.621
 03  6  8 15 40  0.0000000  0  8G30G24G26G 6G17G21G10G29
  21423467.112     3296149.09449   2570984.34947  21423467.232    21423472.304
  24610710.848     8163647.71049   6352451.71745  24610710.659    24610718.454
  24278275.424     -894885.17249   -668669.93545  24278275.260    24278286.456
  20761771.503    -8644914.57149  -6727347.23747  20761771.205    20761776.378
  21365864.643    -8304937.89149  -6458325.44747  21365864.000    21365870.200
  22221057.431   -10826772.14049  -8422095.74446  22221056.782    22221061.485
  21217958.688      276917.57049    235472.47547  21217957.734    21217963.566
  23896577.688    -5223400.56549  -3813490.59445  23896577.463    23896585.240
 03  6  8 15 40 30.0000000  0  8G30G24G26G 6G17G21G10G29
  21437317.307     3368932.28749   2627698.48147  21437317.414    21437322.528
  24626035.922     8244181.08349   6415204.88545  24626035.640    24626043.677
  24260247.538     -989621.84149   -742490.57645  24260247.310    24260258.200
  20753651.682    -8687584.41749  -6760596.47247  20753651.366    20753656.575
  21358678.825    -8342699.84549  -6487750.34447  21358678.145    21358684.356
  22209416.744   -10887944.49949  -8469762.50046  22209416.071    22209420.795
  21228135.663      330398.12049    277145.60247  21228134.718    21228140.600
  23883708.617    -5291027.65249  -3866186.94145  23883708.492    23883716.189
 03  6  8 15 41  0.0000000  0  8G30G24G26G 6G17G21G10G29
  21451247.820     3442137.42549   2684741.39447  21451247.910    21451253.058
  24641353.466     8324675.09949   6477927.41945  24641353.156    24641361.251
  24242221.232    -1084350.07049   -816304.62344  24242221.259    24242231.878
  20745585.339    -8729973.18349  -6793626.68847  20745585.070    20745590.277
  21351538.656    -8380221.70449  -6516988.15847  21351537.988    21351544.177
  22197815.781   -10948907.82749  -8517266.37946  22197815.162    22197819.866
  21238412.108      384401.18349    319225.88147  21238411.184    21238417.068
  23870881.456    -5358434.93149  -3918712.03745  23870881.213    23870888.867
 03  6  8 15 41 30.0000000  0  8G30G24G26G 6G17G21G10G29
  21465258.280     3515763.06749   2742111.97347  21465258.421    21465263.579
  24656663.698     8405130.25249   6540619.64145  24656663.377    24656671.579
  24224197.486    -1179065.48649   -890108.62745  24224197.307    24224207.925
  20737573.090    -8772077.99449  -6826435.63547  20737572.817    20737577.988
  21344444.351    -8417502.41449  -6546038.06647  21344443.719    21344449.912
  22186254.773   -11009661.19249  -8564606.65146  22186254.156    22186258.866
  21248787.801      438925.70349    361712.49347  21248786.851    21248792.763
  23858096.887    -5425618.07549  -3971062.46745  23858096.724    23858104.265
 03  6  8 15 42  0.0000000  0  8G30G24G26G 6G17G21G10G29
  21479348.151     3589805.62449   2799807.41747  21479348.306    21479353.470
  24671966.211     8485545.12549   6603280.46345  24671965.963    24671974.158
  24206176.764    -1273765.83849   -963900.92845  24206176.571    24206187.074
  20729614.953    -8813898.26949  -6859022.87247  20729614.687    20729619.843
  21337395.778    -8454543.25849  -6574901.06347  21337395.109    21337401.282
  22174733.604   -11070205.31049  -8611783.86246  22174732.962    22174737.669
  21259262.105      493968.43449    404602.90147  21259261.150    21259267.082
  23845355.189    -5492575.46049  -4023237.00345  23845355.065    23845362.649
 03  6  8 15 42 30.0000000  0  8G30G24G26G 6G17G21G10G29
  21493516.913     3664262.57549   2857825.76047  21493517.058    21493522.226
  24687261.137     8565919.23649   6665909.56545  24687260.785    24687268.832
  24188159.421    -1368447.78049  -1037678.83145  24188159.195    24188169.244
  20721711.253    -8855432.40149  -6891387.13247  20721710.988    20721716.182
  21330392.606    -8491344.88649  -6603577.65247  21330391.957    21330398.143
  22163252.183   -11130540.25749  -8658798.09446  22163251.610    22163256.305
  21269834.506      549526.93149    447895.20647  21269833.571    21269839.547
  23832657.145    -5559303.97349  -4075233.19945  23832657.035    23832664.531
 03  6  8 15 43  0.0000000  0  8G30G24G26G 6G17G21G10G29
  21507764.062     3739131.50449   2916165.12347  21507764.204    21507769.381
  24702547.984     8646252.24749   6728506.56645  24702547.761    24702555.959
  24170146.062    -1463107.75949  -1111439.63644  24170146.046    24170155.903
  20713862.415    -8896678.45849  -6923526.92647  20713862.122    20713867.302
  21323435.013    -8527907.43449  -6632067.94947  21323434.364    21323440.546
  22151810.635   -11190665.99449  -8705649.30246  22151810.041    22151814.713
  21280504.726      605599.14749    491587.80947  21280503.794    21280509.826
  23820003.187    -5625800.42249  -4127048.57345  23820003.175    23820010.671
 03  6  8 15 43 30.0000000  0  8G30G24G26G 6G17G21G10G29
  21522089.128     3814409.74949   2974823.43647  21522089.278    21522094.444
  24717827.149     8726543.35749   6791070.98245  24717826.915    24717834.884
  24152137.522    -1557742.77249  -1185181.05445  24152137.503    24152147.418
  20706068.730    -8937634.76649  -6955440.93947  20706068.437    20706073.588
  21316522.884    -8564231.07849  -6660372.08747  21316522.239    21316528.375
  22140408.989   -11250582.52849  -8752337.49146  22140408.294    22140412.966
  21291272.215      662182.64049    535678.81447  21291271.300    21291277.319
  23807393.992    -5692062.01649  -4178680.92545  23807393.945    23807401.461
 03  6  8 15 44  0.0000000  0  8G30G24G26G 6G17G21G10G29
  21536491.512     3890094.22049   3033798.28747  21536491.607    21536496.782
  24733097.867     8806792.08849   6853602.34245  24733097.613    24733105.929
  24134134.301    -1652349.62949  -1258900.51245  24134134.297    24134144.443
  20698330.387    -8978300.07649  -6987128.19847  20698330.104    20698335.290
  21309656.055    -8600316.60249  -6688490.67547  21309655.403    21309661.515
  22129046.973   -11310290.26649  -8798862.98146  22129046.300    22129050.968
  21302136.477      719274.70149    580166.10547  21302135.588    21302141.631
  23794829.864    -5758086.26249  -4230128.35445  23794829.852    23794837.423
 03  6  8 15 44 30.0000000  0  8G30G24G26G 6G17G21G10G29
  21550970.872     3966183.44549   3093088.52747  21550970.943    21550976.121
  24748360.878     8886999.29949   6916101.36445  24748360.746    24748368.936
  24116137.128    -1746924.24449  -1332594.81745  24116137.076    24116147.312
  20690647.922    -9018671.72549  -7018586.63547  20690647.633    20690652.814
  21302834.687    -8636163.07549  -6716422.99347  21302834.045    21302840.184
  22117724.807   -11369788.22149  -8845225.00846  22117724.168    22117728.857
  21313097.255      776874.00649    625048.64147  21313096.350    21313102.432
  23782311.829    -5823869.06849  -4281387.63845  23782311.669    23782319.362
 03  6  8 15 45  0.0000000  0  8G30G24G26G 6G17G21G10G29
  21565526.470     4042673.47449   3152691.08547  21565526.567    21565531.776
  24763615.593     8967162.98849   6978566.45745  24763615.526    24763623.644
  24098146.624    -1841464.26749  -1406262.20045  24098146.401    24098156.838
  20683021.489    -9058748.99949  -7049815.68447  20683021.182    20683026.390
  21296058.500    -8671772.21049  -6744170.37147  21296057.876    21296063.972
  22106442.472   -11429077.46049  -8891424.41346  22106441.789    22106446.467
  21324153.940      834976.84849    670323.55347  21324153.026    21324159.096
  23769839.839    -5889408.69949  -4332457.43345  23769839.743    23769847.497
 03  6  8 15 45 30.0000000  0  8G30G24G26G 6G17G21G10G29
  21580157.862     4119562.01149   3212604.17047  21580158.007    21580163.226
  24778862.106     9047283.06949   7040997.55445  24778861.991    24778870.000
  24080163.430    -1935966.31349  -1479899.98445  24080163.110    24080173.457
  20675451.361    -9098530.18349  -7080814.01347  20675451.063    20675456.281
  21289327.478    -8707144.21749  -6771732.97347  21289326.816    21289332.932
  22095199.888   -11488157.81249  -8937461.02546  22095199.162    22095203.852
  21335305.979      893581.10749    715989.17747  21335305.076    21335311.130
  23757414.949    -5954702.04249  -4383335.33845  23757414.814    23757422.698
 03  6  8 15 46  0.0000000  0  8G30G24G26G 6G17G21G10G29
  21594864.546     4196845.91449   3272825.33647  21594864.686    21594869.921
  24794100.011     9127358.64249   7103393.98845  24794099.703    24794108.067
  24062187.937    -2030427.37349  -1553505.85445  24062187.725    24062197.794
  20667937.809    -9138014.03849  -7111580.65947  20667937.535    20667942.770
  21282641.372    -8742279.91249  -6799111.44047  21282640.714    21282646.831
  22083996.939   -11547029.69349  -8983335.20546  22083996.227    22084000.869
  21346552.939      952684.10849    762043.43347  21346552.050    21346558.050
  23745037.348    -6019746.53349  -4434019.29545  23745037.203    23745045.107
 03  6  8 15 46 30.0000000  0  8G30G24G26G 6G17G21G10G29
  21609646.193     4274523.52949   3333353.29047  21609646.323    21609651.557
  24809329.512     9207390.48649   7165756.30845  24809329.318    24809337.706
  24044221.153    -2124843.05449  -1627076.36445  24044221.012    24044230.754
  20660481.433    -9177197.65449  -7142113.34947  20660481.166    20660486.410
  21276000.362    -8777178.55749  -6826305.18847  21275999.712    21276005.822
  22072833.892   -11605691.97949  -9029046.06946  22072833.176    22072837.845
  21357894.609     1012284.61249    808485.34847  21357893.668    21357899.701
  23732708.016    -6084538.26349  -4484506.33945  23732707.878    23732715.593
 03  6  8 15 47  0.0000000  0  8G30G24G26G 6G17G21G10G29
  21624502.019     4352591.08549   3394185.09247  21624502.139    21624507.407
  24824550.554     9287376.88949   7228083.24545  24824550.332    24824558.644
  24026263.389    -2219211.18649  -1700609.80245  24026263.274    24026272.969
  20653082.261    -9216080.57849  -7172411.73747  20653081.999    20653087.218
  21269404.196    -8811841.77349  -6853315.48947  21269403.558    21269409.636
  22061710.444   -11664146.08049  -9074594.71146  22061709.726    22061714.376
  21369330.122     1072378.79549    855311.94947  21369329.221    21369335.280
  23720427.000    -6149075.58849  -4534795.12645  23720426.850    23720434.411
 03  6  8 15 47 30.0000000  0  9G30G24G26G 6G17G21G18G10G29
  21639431.252     4431044.76049   3455317.76147  21639431.413    21639436.695
  24839762.623     9367316.67449   7290373.85445  24839762.321    24839770.772
  24008315.071    -2313529.36249  -1774104.35945  24008314.939    24008324.771
  20645740.486    -9254661.99949  -7202475.18747  20645740.231    20645745.431
  21262852.667    -8846270.48049  -6880143.05447  21262852.014    21262858.062
  22050626.426   -11722393.17149  -9119982.04246  22050625.679    22050630.297
  24777114.471    -3541097.08248  -2389270.41845  24777113.741    24777122.058
  21380858.993     1132963.19149    902520.53447  21380858.100    21380864.162
  23708194.720    -6213356.48849  -4584884.10845  23708194.628    23708202.061
 03  6  8 15 48  0.0000000  0  9G30G24G26G 6G17G21G18G10G29
  21654433.644     4509882.34749   3516749.57747  21654433.777    21654439.065
  24854965.855     9447209.71449   7352628.04145  24854965.535    24854973.844
  23990377.002    -2407793.79949  -1847557.02645  23990376.798    23990386.720
  20638456.450    -9292939.77549  -7232302.02847  20638456.214    20638461.390
  21256345.627    -8880465.39549  -6906788.44247  21256344.939    21256350.994
  22039581.886   -11780432.44749  -9165207.42847  22039581.166    22039585.771
  24755973.953    -3652189.33348  -2475835.67344  24755973.496    24755982.133
  21392480.774     1194035.60649    950109.39447  21392479.834    21392485.911
  23696011.752    -6277377.57549  -4634770.64645  23696011.584    23696019.161
 03  6  8 15 48 30.0000000  0  9G30G24G26G 6G17G21G18G10G29
  21669509.161     4589104.58849   3578481.12147  21669509.311    21669514.601
  24870160.740     9527058.83349   7414847.97745  24870160.416    24870168.952
  23972450.452    -2501997.86249  -1920962.61445  23972450.308    23972459.957
  20631231.140    -9330909.18949  -7261888.58847  20631230.896    20631236.103
  21249883.777    -8914422.83649  -6933248.78947  21249883.072    21249889.126
  22028577.540   -11838260.58749  -9210268.29047  22028576.804    22028581.458
  24734844.011    -3763225.00948  -2562356.84145  24734844.054    24734852.513
  21404195.614     1255597.31349    998079.51947  21404194.674    21404200.779
  23683879.430    -6341132.72249  -4684449.93345  23683879.252    23683886.808
 03  6  8 15 49  0.0000000  0  8G30G26G 6G17G21G18G10G29
  21684657.397     4668708.63349   3640510.17747  21684657.494    21684662.787
  23954536.129    -2596137.99449  -1994318.37345  23954535.970    23954545.662
  20624064.813    -9368568.49049  -7291233.50447  20624064.557    20624069.769
  21243466.914    -8948143.49049  -6959524.62847  21243466.234    21243472.279
  22017613.328   -11895877.78349  -9255164.79447  22017612.584    22017617.264
  24713725.317    -3874202.06749  -2648832.31545  24713725.684    24713734.132
  21416002.991     1317645.63749   1046428.82447  21416002.090    21416008.215
  23671798.365    -6404619.08449  -4733919.74245  23671798.116    23671805.657
 03  6  8 15 49 30.0000000  0  8G30G26G 6G17G21G18G10G29
  21699876.739     4748686.49049   3702830.51547  21699876.868    21699882.125
  23936633.396    -2690216.26849  -2067625.95145  23936633.183    23936643.068
  20616956.829    -9405921.16149  -7320339.48947  20616956.588    20616961.804
  21237094.031    -8981633.26749  -6985620.56147  21237093.346    21237099.384
  22006688.244   -11953289.39749  -9299901.10547  22006687.507    22006692.161
  24692617.902    -3985123.75949  -2735264.66345  24692618.006    24692626.317
  21427901.557     1380172.96249   1095151.38147  21427900.653    21427906.797
  23659768.036    -6467839.04949  -4783182.00745  23659767.804    23659775.262
 03  6  8 15 50  0.0000000  0  8G30G26G 6G17G21G18G10G29
  21715167.753     4829040.88949   3765444.26347  21715167.892    21715173.155
  23918744.133    -2784223.79949  -2140878.38845  23918743.958    23918753.729
  20609908.556    -9442960.07949  -7349200.99047  20609908.307    20609913.547
  21230766.096    -9014886.71449  -7011532.34147  21230765.417    21230771.468
  21995803.352   -12010489.91049  -9344472.93147  21995802.633    21995807.289
  24671522.904    -4095982.29249  -2821647.84945  24671522.431    24671530.537
  21439891.813     1443182.06049   1144249.34047  21439890.932    21439897.093
  23647790.097    -6530784.08749  -4832230.02445  23647789.885    23647797.314
 03  6  8 15 50 30.0000000  0  8G30G26G 6G17G21G18G10G29
  21730529.465     4909767.20049   3828347.81347  21730529.657    21730534.952
  23900868.672    -2878159.04349  -2214074.51145  23900868.572    23900878.225
  20602919.943    -9479685.51749  -7377818.22147  20602919.685    20602924.931
  21224482.862    -9047905.80849  -7037261.51147  21224482.117    21224488.170
  21984958.238   -12067481.32349  -9388881.81047  21984957.491    21984962.170
  24650439.345    -4206777.33549  -2907981.51745  24650438.766    24650446.727
  21451972.931     1506668.66349   1193719.37847  21451972.069    21451978.214
  23635864.543    -6593453.38549  -4881063.19145  23635864.322    23635871.906
 03  6  8 15 51  0.0000000  0  8G30G26G 6G17G21G18G10G29
  21745961.536     4990862.90149   3891539.20147  21745961.704    21745967.031
  23883007.800    -2972018.11449  -2287211.27745  23883007.808    23883017.465
  20595991.403    -9516095.38449  -7406189.54247  20595991.132    20595996.381
  21218243.981    -9080691.12449  -7062808.50647  21218243.256    21218249.304
  21974152.966   -12124263.30149  -9433127.49747  21974152.241    21974156.916
  24629367.958    -4317506.49449  -2994263.86845  24629367.704    24629375.642
  21464144.464     1570630.39649   1243559.65947  21464143.583    21464149.727
  23623992.120    -6655843.66149  -4929678.93245  23623991.891    23623999.479
 03  6  8 15 51 30.0000000  0  8G30G26G 6G17G21G18G10G29
  21761463.318     5072325.54149   3955016.50147  21761463.552    21761468.950
  23865162.035    -3065797.57549  -2360286.01145  23865162.042    23865171.706
  20589123.328    -9552187.56149  -7434313.32347  20589123.057    20589128.280
  21212049.650    -9113242.62149  -7088173.31847  21212048.934    21212055.005
  21963387.549   -12180835.92649  -9477210.05647  21963386.853    21963391.498
  24608309.725    -4428167.33749  -3080492.98845  24608309.622    24608317.562
  21476405.974     1635064.91949   1293768.33647  21476405.114    21476411.273
  23612173.287    -6717952.09649  -4978075.06145  23612173.013    23612180.669
 03  6  8 15 52  0.0000000  0  8G30G26G 6G17G21G18G10G29
  21777034.579     5154153.02249   4018778.10047  21777034.852    21777040.249
  23847332.064    -3159493.29349  -2433295.48045  23847332.165    23847341.688
  20582316.096    -9587959.71449  -7462187.73447  20582315.839    20582321.050
  21205899.885    -9145559.83849  -7113355.57047  21205899.152    21205905.236
  21952662.166   -12237198.15349  -9521128.65747  21952661.469    21952666.128
  24587265.241    -4538756.95849  -3166666.62445  24587264.922    24587272.857
  21488757.111     1699970.46249   1344344.03847  21488756.244    21488762.422
  23600408.743    -6779774.82049  -5026248.53045  23600408.497    23600416.145
 03  6  8 15 52 30.0000000  0  8G30G26G 6G17G21G18G10G29
  21792674.340     5236339.95849   4082819.79847  21792674.535    21792680.013
  23829518.524    -3253104.47349  -2506239.06245  23829518.598    23829527.868
  20575569.611    -9623412.84949  -7489813.55647  20575569.340    20575574.539
  21199793.980    -9177646.24449  -7138357.97047  21199793.299    21199799.437
  21941976.255   -12293352.83049  -9564885.54147  21941975.597    21941980.265
  24566234.321    -4649275.52849  -3252784.90545  24566233.600    24566241.516
  21501196.907     1765341.95649   1395282.82447  21501196.062    21501202.217
  23588698.576    -6841311.77549  -5074199.34045  23588698.324    23588705.837
 03  6  8 15 53  0.0000000  0  8G30G26G 6G17G21G18G10G29
  21808382.171     5318884.85649   4147140.42447  21808382.401    21808387.862
  23811721.687    -3346626.14749  -2579112.90045  23811721.878    23811731.141
  20568884.345    -9658544.27849  -7517188.70247  20568884.068    20568889.289
  21193732.394    -9209500.12349  -7163179.18247  21193731.705    21193737.860
  21931330.108   -12349298.54049  -9608479.58947  21931329.477    21931334.116
  24545217.449    -4759719.91249  -3338845.33945  24545216.730    24545224.318
  21513725.148     1831178.03049   1446583.61447  21513724.288    21513730.461
  23577043.527    -6902558.74549  -5121924.19045  23577043.263    23577050.641
 03  6  8 15 53 30.0000000  0  8G30G26G 6G17G21G18G10G29
  21824157.473     5401784.61549   4211737.56447  21824157.710    21824163.212
  23793942.633    -3440055.43749  -2651914.74745  23793942.667    23793952.114
  20562260.576    -9693352.42649  -7544311.94147  20562260.313    20562265.530
  21187714.900    -9241122.36249  -7187819.89547  21187714.211    21187720.338
  21920723.722   -12405035.76049  -9651911.18447  21920723.069    21920727.706
  24524215.146    -4870088.15349  -3424846.46645  24524214.380    24524221.762
  21526341.248     1897475.77349   1498244.15247  21526340.375    21526346.549
  23565444.112    -6963513.16649  -5169421.07045  23565443.863    23565451.127
 03  6  8 15 54  0.0000000  0  8G30G26G 6G17G21G18G10G29
  21839999.919     5485036.59449   4276609.15847  21840000.122    21840005.653
  23776181.823    -3533388.53049  -2724641.66245  23776181.802    23776191.258
  20555698.661    -9727835.54049  -7571181.90547  20555698.396    20555703.584
  21181741.383    -9272513.44949  -7212280.48847  21181740.676    21181746.831
  21910156.952   -12460564.23449  -9695180.11247  21910156.325    21910160.979
  24503227.658    -4980377.60949  -3510786.17945  24503226.869    24503234.191
  21539044.762     1964232.90649   1550262.64847  21539043.880    21539050.046
  23553900.973    -7024172.35849  -5216687.90545  23553900.804    23553907.990
 03  6  8 15 54 30.0000000  0  8G30G26G 6G17G21G18G10G29
  21855908.980     5568638.56549   4341753.47747  21855909.089    21855914.628
  23758440.196    -3626621.53649  -2797290.57945  23758440.145    23758449.490
  20549199.081    -9761991.32349  -7597796.80947  20549198.806    20549203.991
  21175811.859    -9303673.48149  -7236561.03947  21175811.121    21175817.262
  21899629.899   -12515883.88249  -9738286.32747  21899629.322    21899633.979
  24482255.621    -5090586.05149  -3596662.77345  24482254.808    24482262.045
  21551835.313     2031447.36749   1602637.50647  21551834.396    21551840.579
  23542414.806    -7084532.60649  -5263721.81845  23542414.595    23542421.789
 03  6  8 15 55  0.0000000  0  8G30G26G 6G17G21G18G10G29
  21871884.003     5652587.36549   4407168.05447  21871884.100    21871889.631
  23740718.002    -3719751.28649  -2869859.01745  23740717.983    23740727.299
  20542762.060    -9795818.17849  -7624155.40647  20542761.802    20542766.955
  21169926.245    -9334602.42549  -7260661.51847  21169925.566    21169931.700
  21889142.615   -12570994.78649  -9781229.87347  21889142.072    21889146.746
  24461299.300    -5200711.37049  -3682474.60445  24461298.486    24461305.795
  21564712.256     2099116.35949   1655366.55047  21564711.371    21564717.591
  23530986.070    -7144591.53449  -5310520.92145  23530985.748    23530992.905
 03  6  8 15 55 30.0000000  0  8G30G26G 6G17G21G18G10G29
  21887924.446     5736880.18249   4472850.69247  21887924.535    21887930.066
  23723016.250    -3812774.36549  -2942344.36245  23723016.198    23723025.391
  20536387.933    -9829314.54249  -7650256.47147  20536387.655    20536392.801
  21164084.485    -9365301.10549  -7284582.57047  21164083.810    21164089.971
  21878695.067   -12625896.96749  -9824010.79647  21878694.505    21878699.169
  24440359.304    -5310751.55649  -3768220.08645  24440358.482    24440365.694
  21577675.250     2167237.21349   1708447.69147  21577674.397    21577680.655
  23519615.054    -7204346.17749  -5357082.93145  23519614.829    23519621.870
 03  6  8 15 56  0.0000000  0  8G30G26G 6G17G21G18G10G29
  21904029.713     5821513.44849   4538798.62247  21904029.756    21904035.308
  23705335.114    -3905687.80449  -3014744.28745  23705335.138    23705344.472
  20530076.815    -9862479.57949  -7676099.36347  20530076.524    20530081.704
  21158286.354    -9395770.41149  -7308324.89347  21158285.694    21158291.875
  21868287.163   -12680591.08749  -9866629.57747  21868286.550    21868291.219
  24419435.602    -5420704.92449  -3853897.92045  24419435.007    24419442.071
  21590723.609     2235806.43949   1761878.20547  21590722.754    21590728.979
  23508302.461    -7263794.54849  -5403406.29745  23508302.281    23508309.221
 03  6  8 15 56 30.0000000  0  8G30G26G 6G17G21G18G10G29
  21920199.345     5906485.20849   4605010.30547  21920199.372    21920204.976
  23687675.824    -3998487.55449  -3087055.59945  23687675.713    23687685.004
  20523829.202    -9895310.88349  -7701682.21347  20523828.929    20523834.123
  21152531.879    -9426010.26949  -7331888.42947  21152531.217    21152537.399
  21857919.001   -12735076.28749  -9909085.58147  21857918.358    21857922.999
  24398529.006    -5530568.56349  -3939505.84145  24398528.691    24398535.778
  21603856.910     2304822.26549   1815656.72147  21603856.051    21603862.285
  23497048.793    -7322933.23849  -5449488.33645  23497048.541    23497055.552
 03  6  8 15 57  0.0000000  0  8G30G26G 6G17G21G18G10G29
  21936432.634     5991791.73749   4671482.84947  21936432.763    21936438.366
  23670038.636    -4091170.74649  -3159276.13245  23670038.603    23670047.780
  20517645.330    -9927807.47749  -7727004.24847  20517645.060    20517650.264
  21146820.986    -9456021.46049  -7355273.78247  21146820.311    21146826.498
  21847590.319   -12789353.82649  -9951379.76447  21847589.688    21847594.329
  24377639.910    -5640341.08149  -4025042.75345  24377639.482    24377646.667
  21617074.624     2374281.20049   1869780.51547  21617073.741    21617079.901
  23485854.399    -7381759.94349  -5495327.26245  23485854.131    23485861.259
 03  6  8 15 57 30.0000000  0  8G30G26G 6G17G21G18G10G29
  21952729.182     6077430.60649   4738214.35047  21952729.351    21952735.004
  23652424.286    -4183733.61849  -3231402.89845  23652424.278    23652433.343
  20511525.496    -9959967.31049  -7752063.87047  20511525.246    20511530.454
  21141153.586    -9485804.12749  -7378481.06547  21141152.874    21141159.044
  21837301.295   -12843423.17549  -9993511.71447  21837300.631    21837305.287
  24356768.496    -5750020.08949  -4110506.76345  24356768.121    24356775.437
  21630376.130     2444181.06849   1924247.89847  21630375.243    21630381.450
  23474719.880    -7440271.72949  -5540920.78245  23474719.560    23474726.961
 03  6  8 15 58  0.0000000  0  8G30G26G 6G17G21G18G10G29
  21969088.426     6163399.11949   4805202.71847  21969088.696    21969094.345
  23634833.651    -4276172.55649  -3303433.08745  23634833.705    23634842.534
  20505470.137    -9991788.49249  -7776859.60947  20505469.889    20505475.089
  21135529.633    -9515358.20049  -7401510.22247  21135528.938    21135535.118
  21827051.916   -12897284.18049 -10035481.32947  21827051.207    21827055.861
  24335915.372    -5859603.00949  -4195895.94245  24335914.997    24335922.345
  21643761.158     2514519.45849   1979056.97847  21643760.257    21643766.451
  23463645.813    -7498465.46849  -5586266.50245  23463645.516    23463653.098
 03  6  8 15 58 30.0000000  0  8G30G26G 6G17G21G18G10G29
  21985509.901     6249694.41649   4872445.73147  21985510.198    21985515.847
  23617267.342    -4368484.03749  -3375363.94645  23617267.366    23617276.064
  20499479.542   -10023269.49549  -7801390.26647  20499479.276    20499484.470
  21129949.058    -9544684.42149  -7424361.83547  21129948.381    21129954.534
  21816842.138   -12950936.86149 -10077288.61347  21816841.435    21816846.117
  24315080.894    -5969087.67249  -4281208.55245  24315080.700    24315088.163
  21657228.995     2585293.67349   2034205.67147  21657228.153    21657234.414
  23452632.806    -7556338.66949  -5631362.44645  23452632.480    23452640.044
 03  6  8 15 59  0.0000000  0  8G30G26G 6G17G21G18G10G29
  22001993.077     6336313.91249   4939941.36447  22001993.367    22001999.057
  23599725.938    -4460664.13849  -3447192.44945  23599726.040    23599734.652
  20493554.058   -10054408.18249  -7825654.18847  20493553.778    20493558.966
  21124411.849    -9573782.67649  -7447035.81347  21124411.144    21124417.298
  21806671.985   -13004380.99649 -10118933.38747  21806671.345    21806676.015
  24294265.612    -6078471.43149  -4366442.57145  24294265.620    24294273.065
  21670779.395     2656501.32949   2089692.10147  21670778.542    21670784.871
  23441681.409    -7613888.21249  -5676206.20345  23441681.121    23441688.537
 03  6  8 15 59 30.0000000  0  8G30G26G 6G17G21G18G10G29
  22018537.443     6423254.44949   5007687.16147  22018537.644    22018543.329
  23582210.175    -4552709.65849  -3518916.11045  23582210.216    23582218.893
  20487693.944   -10085203.26149  -7849650.37347  20487693.705    20487698.858
  21118917.819    -9602653.85249  -7469532.84647  21118917.148    21118923.286
  21796541.537   -13057616.99249 -10160415.98047  21796540.888    21796545.570
  24273469.929    -6187752.74949  -4451596.75145  24273469.887    24273477.423
  21684411.714     2728139.35549   2145513.88547  21684410.845    21684417.205
  23430792.061    -7671111.50949  -5720795.71845  23430791.920    23430799.165
 03  6  8 16  0  0.0000000  0  8G30G26G 6G17G21G18G10G29
  22035142.246     6510512.63249   5075680.47347  22035142.378    22035148.081
  23564720.500    -4644617.74349  -3590532.65245  23564720.474    23564729.201
  20481899.450   -10115653.59549  -7873377.91747  20481899.216    20481904.375
  21113466.824    -9631298.89249  -7491853.66447  21113466.161    21113472.322
  21786450.537   -13110645.57349 -10201736.94747  21786449.875    21786454.528
  24252694.211    -6296930.03149  -4536669.85745  24252694.209    24252701.546
  21698125.374     2800204.65649   2201668.61347  21698124.481    21698130.797
  23419965.400    -7728006.26349  -5765129.27645  23419965.265    23419972.097
 03  6  8 16  0 30.0000000  0  8G30G26G 6G17G21G18G10G29
  22051806.977     6598085.98449   5143919.37747  22051807.091    22051812.819
  23547257.832    -4736384.33949  -3662038.94345  23547257.862    23547266.452
  20476171.007   -10145757.08149  -7896835.18847  20476170.752    20476175.898
  21108058.982    -9659717.49849  -7513998.04047  21108058.325    21108064.488
  21776399.049   -13163466.24649 -10242895.90147  21776398.433    21776403.086
  24231938.867    -6406000.53549  -4621659.75745  24231938.657    24231946.132
  21711919.849     2872694.91349   2258154.47747  21711918.942    21711925.270
  23409201.793    -7784569.52249  -5809204.51845  23409201.527    23409208.289
 03  6  8 16  1  0.0000000  0  8G30G26G 6G17G21G18G10G29
  22068530.740     6685969.52849   5212399.97446  22068530.864    22068536.607
  23529822.316    -4828007.82349  -3733433.74845  23529822.452    23529830.854
  20470508.455   -10175514.07449  -7920022.46647  20470508.202    20470513.363
  21102693.766    -9687911.78749  -7535967.63147  21102693.119    21102699.293
  21766386.848   -13216080.99149 -10283894.38647  21766386.204    21766390.858
  24211204.031    -6514963.79149  -4706566.12845  24211203.673    24211211.056
  21725794.294     2945605.43949   2314967.81947  21725793.386    21725799.709
  23398501.451    -7840800.57549  -5853020.87845  23398501.164    23398507.877
 03  6  8 16  1 30.0000000  0  8G30G26G 6G17G21G18G10G29
  22085313.688     6774164.65349   5281123.36146  22085313.875    22085319.682
  23512415.482    -4919480.90049  -3804711.32545  23512415.643    23512424.093
  20464912.923   -10204918.79049  -7942935.24547  20464912.656    20464917.818
  21097371.916    -9715878.51549  -7557759.89747  21097371.284    21097377.445
  21756414.569   -13268485.73049 -10324729.23547  21756413.918    21756418.561
  24190490.593    -6623813.84649  -4791384.26745  24190490.092    24190497.450
  21739748.964     3018937.72149   2372109.80247  21739748.095    21739754.390
  23387865.577    -7896692.56749  -5896573.03445  23387865.327    23387872.038
 03  6  8 16  2  0.0000000  0  8G30G26G 6G17G21G18G10G29
  22102155.151     6862666.19149   5350085.52246  22102155.236    22102161.051
  23495037.636    -5010801.99649  -3875870.51145  23495037.814    23495046.185
  20459384.351   -10233971.84149  -7965573.99947  20459384.063    20459389.236
  21092092.822    -9743620.42449  -7579376.98147  21092092.178    21092098.321
  21746481.779   -13320683.03049 -10365402.43947  21746481.114    21746485.750
  24169798.607    -6732550.76049  -4876114.25145  24169798.038    24169805.505
  21753783.016     3092686.80449   2429576.57347  21753782.170    21753788.434
  23377294.234    -7952245.13849  -5939860.70845  23377293.947    23377300.696
 03  6  8 16  2 30.0000000  0  8G30G26G 6G17G21G18G10G29
  22119054.213     6951471.37249   5419284.28746  22119054.377    22119060.185
  23477689.401    -5101967.37549  -3946908.36245  23477689.464    23477697.837
  20453923.040   -10262671.26749  -7987937.19947  20453922.764    20453927.926
  21086856.604    -9771137.45749  -7600818.83947  21086855.893    21086862.024
  21736588.455   -13372672.67049 -10405913.83247  21736587.813    21736592.445
  24149128.593    -6841172.04849  -4960754.15645  24149128.057    24149135.471
  21767896.009     3166850.28849   2487366.24647  21767895.100    21767901.338
  23366788.046    -8007455.09649  -5982881.41845  23366787.660    23366794.542
 03  6  8 16  3  0.0000000  0  8G30G26G 6G17G21G18G10G29
  22136010.692     7040577.68549   5488717.70146  22136010.789    22136016.618
  23460371.376    -5192973.24249  -4017821.92245  23460371.483    23460379.846
  20448529.359   -10291015.20049  -8010023.39747  20448529.108    20448534.299
  21081663.086    -9798429.69549  -7622085.53147  21081662.369    21081668.520
  21726734.708   -13424454.29849 -10446263.14047  21726734.085    21726738.703
  24128480.976    -6949675.38149  -5045302.13045  24128480.511    24128487.913
  21782087.263     3241425.66349   2545476.87347  21782086.365    21782092.603
  23356347.588    -8062319.59049  -6025632.93445  23356347.247    23356354.303
 03  6  8 16  3 30.0000000  0  8G30G26G 6G17G21G18G10G29
  22153023.769     7129981.81449   5558383.17246  22153023.931    22153029.738
  23443084.389    -5283816.42249  -4088608.70145  23443084.480    23443092.902
  20443203.567   -10319002.42149  -8031831.63847  20443203.315    20443208.518
  21076512.249    -9825497.55249  -7643177.38347  21076511.535    21076517.706
  21716920.539   -13476028.25749 -10486450.62947  21716919.899    21716924.532
  24107856.136    -7058058.72949  -5129756.63245  24107855.709    24107863.142
  21796356.355     3316409.88749   2603906.08947  21796355.457    21796361.695
  23345973.416    -8116836.35549  -6068113.48445  23345973.129    23345980.191
 03  6  8 16  4  0.0000000  0  8G30G26G 6G17G21G18G10G29
  22170092.872     7219680.52649   5628278.18246  22170093.034    22170098.898
  23425828.901    -5374493.60549  -4159266.15345  23425829.036    23425837.465
  20437945.894   -10346631.70949  -8053360.97147  20437945.635    20437950.851
  21071403.848    -9852342.13749  -7664095.25447  21071403.161    21071409.350
  21707145.834   -13527394.87149 -10526476.54547  21707145.166    21707149.786
  24087254.711    -7166320.47849  -5214116.37245  24087254.131    24087261.559
  21810702.630     3391799.98649   2662651.55847  21810701.666    21810708.003
  23335665.816    -8171003.13949  -6110321.29745  23335665.475    23335672.721
 03  6  8 16  4 30.0000000  0  8G30G26G 6G17G21G18G10G29
  22187217.603     7309671.16849   5698400.68446  22187217.749    22187223.649
  23408605.934    -5465001.02149  -4229791.32845  23408606.049    23408614.314
  20432756.724   -10373901.09349  -8074609.85247  20432756.477    20432761.718
  21066338.047    -9878962.97849  -7684838.77447  21066337.398    21066343.591
  21697410.510   -13578554.15649 -10566340.91747  21697409.866    21697414.489
  24066676.948    -7274457.98449  -5298379.29545  24066676.167    24066683.501
  21825125.642     3467593.62949   2721711.49247  21825124.741    21825131.110
  23325425.139    -8224816.85749  -6152254.01945  23325424.905    23325432.303
 03  6  8 16  5  0.0000000  0  9G30G26G 6G17G21G18G10G29G15
  22204396.034     7399944.31449   5768743.30446  22204396.236    22204402.104
  23391414.548    -5555341.64549  -4300186.51045  23391414.631    23391422.953
  20427635.100   -10400815.38449  -8095582.04347  20427634.873    20427640.098
  21061313.438    -9905367.24349  -7705413.54147  21061312.807    21061319.027
  21687713.433   -13629512.68649 -10606048.85147  21687712.789    21687717.401
  24046121.657    -7382475.67249  -5382548.87545  24046121.007    24046128.375
  21839623.713     3543781.40949   2781078.52947  21839622.834    21839629.192
  23315251.082    -8278281.55149  -6193914.79745  23315250.907    23315258.265
  24742805.594    -3879034.95249  -2745165.70045  24742804.703    24742813.858
 03  6  8 16  5 30.0000000  0  9G30G26G 6G17G21G18G10G29G15
  22221628.602     7490501.82549   5839307.51246  22221628.846    22221634.730
  23374256.495    -5645507.01349  -4370445.15745  23374256.580    23374264.939
  20422582.338   -10427368.15749  -8116272.52947  20422582.091    20422587.317
  21056330.913    -9931550.62349  -7725816.18247  21056330.326    21056336.531
  21678055.525   -13680265.45849 -10645596.45147  21678054.825    21678059.408
  24025590.452    -7490366.75449  -5466619.77545  24025589.920    24025597.286
  21854197.195     3620365.13249   2840754.10547  21854196.285    21854202.641
  23305144.964    -8331389.57949  -6235297.64145  23305144.794    23305152.089
  24726900.842    -3962615.30849  -2810293.29045  24726899.933    24726908.938
 03  6  8 16  6  0.0000000  0  9G30G26G 6G17G21G18G10G29G15
  22238915.838     7581346.04349   5910095.13246  22238916.018    22238921.909
  23357133.382    -5735488.42849  -4440560.45245  23357133.543    23357141.998
  20417599.602   -10453552.70549  -8136676.08747  20417599.340    20417604.573
  21051391.366    -9957508.25149  -7746042.91747  21051390.755    21051396.999
  21668437.723   -13730807.35149 -10684979.73347  21668437.023    21668441.600
  24005084.822    -7598123.61049  -5550586.08345  24005084.376    24005091.743
  21868846.491     3697347.34449   2900740.19047  21868845.603    21868851.939
  23295108.225    -8384133.23349  -6276396.54145  23295108.023    23295115.276
  24711013.334    -4046104.94349  -2875350.15845  24711012.632    24711021.350
 03  6  8 16  6 30.0000000  0  9G30G26G 6G17G21G18G10G29G15
  22256256.778     7672472.87249   5981102.97346  22256256.914    22256262.876
  23340045.876    -5825283.46249  -4510530.51845  23340046.012    23340054.403
  20412687.028   -10479368.48949  -8156792.29647  20412686.781    20412692.008
  21046494.582    -9983241.34049  -7766094.68347  21046493.925    21046500.146
  21658859.717   -13781139.75849 -10724199.77347  21658859.074    21658863.643
  23984605.163    -7705745.32249  -5634447.09645  23984604.554    23984611.877
  21883570.951     3774724.42549   2961033.97047  21883570.049    21883576.336
  23285141.080    -8436510.88149  -6317210.24045  23285140.853    23285148.155
  24695143.010    -4129504.66249  -2940336.95645  24695142.239    24695150.872
 03  6  8 16  7  0.0000000  0  9G30G26G 6G17G21G18G10G29G15
  22273650.636     7763877.64849   6052327.39346  22273650.733    22273656.740
  23322994.258    -5914890.20149  -4580353.87245  23322994.447    23323002.731
  20407844.639   -10504815.49149  -8176621.14747  20407844.383    20407849.588
  21041640.034   -10008752.21649  -7785973.30247  21041639.386    21041645.598
  21649321.289   -13831264.36449 -10763257.90247  21649320.667    21649325.236
  23964151.040    -7813231.25149  -5718202.31545  23964150.584    23964157.838
  21898369.634     3852491.77949   3021631.84147  21898368.685    21898375.026
  23275243.719    -8488521.77449  -6357738.18045  23275243.504    23275250.700
  24679289.337    -4212815.94149  -3005254.85145  24679288.685    24679297.224
 03  6  8 16  7 30.0000000  0 10G30G16G26G 6G17G21G18G10G29G15
  22291096.552     7855556.63449   6123765.47646  22291096.705    22291102.711
  24748136.826    -4630633.79348  -3593874.68945  24748136.711    24748143.225
  23305978.958    -6004306.01249  -4650028.46745  23305979.126    23305987.361
  20403072.527   -10529893.11549  -8196162.16847  20403072.267    20403077.491
  21036827.535   -10034042.13549  -7805679.74247  21036826.888    21036833.076
  21639822.098   -13881182.78249 -10802155.36247  21639821.523    21639826.076
  23943723.021    -7920580.44349  -5801850.98745  23943722.736    23943729.910
  21913241.914     3930645.99949   3082531.18247  21913240.979    21913247.398
  23265416.536    -8540164.24949  -6397979.03845  23265416.308    23265423.265
  24663452.284    -4296039.46749  -3070104.38745  24663451.677    24663460.417
 03  6  8 16  8  0.0000000  0 10G30G16G26G 6G17G21G18G10G29G15
  22308593.988     7947505.51649   6195413.86846  22308594.091    22308600.094
  24732261.519    -4714058.68149  -3658881.03445  24732261.451    24732267.912
  23289000.487    -6093528.53249  -4719552.41845  23289000.631    23289008.785
  20398370.781   -10554600.95649  -8215415.04747  20398370.512    20398375.773
  21032056.883   -10059112.33749  -7825214.97547  21032056.190    21032062.378
  21630362.115   -13930895.30249 -10840892.38247  21630361.512    21630366.070
  23923321.407    -8027791.76549  -5885392.22045  23923321.049    23923328.180
  21928186.992     4009183.00649   3143728.78547  21928186.063    21928192.550
  23255659.707    -8591436.96249  -6437931.77145  23255659.472    23255666.295
  24647631.811    -4379176.40249  -3134886.45345  24647631.290    24647640.093
 03  6  8 16  8 30.0000000  0 10G30G16G26G 6G17G21G18G10G29G15
  22326142.651     8039724.20149   6267272.48246  22326142.763    22326148.777
  24716449.937    -4797149.21949  -3723626.88545  24716449.938    24716456.572
  23272059.840    -6182551.41049  -4788920.82445  23272059.978    23272068.262
  20393740.269   -10578934.69949  -8234376.41947  20393739.998    20393745.259
  21027328.364   -10083960.92149  -7844577.52147  21027327.644    21027333.857
  21620941.634   -13980400.08649 -10879467.53447  21620941.054    21620945.610
  23902946.876    -8134860.41449  -5968822.29145  23902946.524    23902953.549
  21943204.953     4088102.62249   3205224.53347  21943204.016    21943210.488
  23245974.238    -8642334.53249  -6477592.19545  23245973.978    23245980.756
  24631828.388    -4462223.71849  -3199598.66345  24631827.731    24631836.691
 03  6  8 16  9  0.0000000  0 10G30G16G26G 6G17G21G18G10G29G15
  22343742.110     8132209.48549   6339338.77946  22343742.249    22343748.267
  24700702.596    -4879903.42548  -3788110.73145  24700702.409    24700709.020
  23255157.962    -6271371.33749  -4858131.16945  23255157.990    23255166.393
  20389181.180   -10602892.88849  -8253045.18647  20389180.904    20389186.169
  21022641.911   -10108588.39049  -7863767.80647  21022641.218    21022647.422
  21611560.778   -14029696.82449 -10917880.62447  21611560.188    21611564.745
  23882599.896    -8241784.55949  -6052139.84845  23882599.511    23882606.568
  21958295.230     4167401.85049   3267016.01947  21958294.269    21958300.740
  23236360.337    -8692854.76849  -6516958.63245  23236360.142    23236367.085
  24616042.059    -4545181.68149  -3264241.32045  24616041.508    24616050.470
 03  6  8 16  9 30.0000000  0 10G30G16G26G 6G17G21G18G10G29G15
  22361391.536     8224957.17349   6411609.50946  22361391.660    22361397.648
  24685019.550    -4962319.79949  -3852331.45845  24685019.067    24685025.676
  23238295.136    -6359986.01249  -4927181.63445  23238295.083    23238303.542
  20384693.669   -10626475.02249  -8271420.94747  20384693.410    20384698.675
  21017997.279   -10132996.17349  -7882786.93747  21017996.594    21018002.796
  21602219.382   -14078786.41449 -10956132.33247  21602218.745    21602223.301
  23862280.542    -8348563.05549  -6135343.97645  23862280.207    23862287.334
  21973456.942     4247076.87249   3329100.29347  21973456.013    21973462.474
  23226818.744    -8742996.13949  -6556029.92045  23226818.528    23226825.561
  24600272.742    -4628051.06849  -3328815.08745  24600272.255    24600281.054
 03  6  8 16 10  0.0000000  0 10G30G16G26G 6G17G21G18G10G29G15
  22379090.396     8317964.63949   6484082.72346  22379090.498    22379096.535
  24669401.557    -5044395.55749  -3916286.74145  24669400.590    24669407.157
  23221472.204    -6448391.31049  -4996068.92345  23221472.209    23221480.504
  20380278.101   -10649679.47249  -8289502.37747  20380277.807    20380283.045
  21013394.409   -10157184.67649  -7901635.16047  21013393.730    21013399.930
  21592917.306   -14127669.36649 -10994222.96747  21592916.685    21592921.211
  23841989.397    -8455193.55249  -6218432.72445  23841989.174    23841996.368
  21988689.691     4327125.01149   3391475.36447  21988688.737    21988695.210
  23217349.837    -8792755.89549  -6594803.79045  23217349.593    23217356.507
  24584520.410    -4710831.42349  -3393319.46645  24584519.692    24584528.527
 03  6  8 16 10 30.0000000  0 10G30G16G26G 6G17G21G18G10G29G15
  22396838.031     8411228.11949   6556755.50246  22396838.051    22396844.167
  24653848.543    -5126128.99149  -3979974.91845  24653847.247    24653853.450
  23204689.603    -6536584.63549  -5064790.83445  23204689.548    23204698.030
  20375934.498   -10672505.52849  -8307288.90447  20375934.194    20375939.424
  21008833.070   -10181154.86549  -7920313.21547  21008832.358    21008838.593
  21583654.508   -14176346.16649 -11032152.90747  21583653.857    21583658.363
  23821726.890    -8561674.57749  -6301404.82745  23821726.541    23821733.675
  22003992.793     4407543.04349   3454138.73247  22003991.823    22003998.394
  23207953.839    -8842132.26649  -6633278.80745  23207953.598    23207960.512
  24568784.879    -4793523.19149  -3457754.44345  24568783.925    24568792.633
 03  6  8 16 11  0.0000000  0 10G30G16G26G 6G17G21G18G10G29G15
  22414633.775     8504745.22349   6629625.88346  22414633.882    22414639.991
  24638360.865    -5207517.39849  -4043394.38045  24638359.429    24638366.015
  23187948.084    -6624561.66549  -5133344.28945  23187948.087    23187956.510
  20371663.321   -10694950.84249  -8324778.77247  20371663.021    20371668.255
  21004313.314   -10204906.45049  -7938820.95747  21004312.577    21004318.829
  21574430.875   -14224816.80349 -11069922.22447  21574430.183    21574434.687
  23801493.219    -8668003.62149  -6384258.58445  23801492.889    23801499.923
  22019365.730     4488328.56549   3517088.43346  22019364.831    22019371.413
  23198631.325    -8891122.08349  -6671452.64445  23198631.052    23198638.045
  24553066.019    -4876125.61749  -3522119.98745  24553065.087    24553073.999
 03  6  8 16 11 30.0000000  0 10G30G16G26G 6G17G21G18G10G29G15
  22432477.348     8598513.60849   6702692.06646  22432477.459    22432483.598
  24622939.292    -5288557.69449  -4106542.60545  24622938.034    24622944.640
  23171248.411    -6712318.53149  -5201726.16545  23171248.488    23171256.846
  20367464.975   -10717013.38849  -8341970.37747  20367464.658    20367469.897
  20999835.236   -10228439.04849  -7957158.05347  20999834.487    20999840.754
  21565246.626   -14273080.16849 -11107530.02947  21565245.931    21565250.494
  23781289.205    -8774177.78049  -6466991.63645  23781288.676    23781295.652
  22034808.336     4569479.52249   3580322.89146  22034807.420    22034814.039
  23189382.905    -8939722.38749  -6709322.95945  23189382.585    23189389.691
  24537364.395    -4958637.92949  -3586415.28045  24537363.526    24537372.508
 03  6  8 16 12  0.0000000  0 10G30G16G26G 6G17G21G18G10G29G15
  22450368.104     8692530.03349   6775951.53446  22450368.244    22450374.419
  24607584.367    -5369247.62849  -4169417.78845  24607583.324    24607589.906
  23154591.332    -6799851.53749  -5269933.59545  23154591.380    23154599.801
  20363339.703   -10738691.86649  -8358862.70747  20363339.403    20363344.660
  20995398.667   -10251753.50249  -7975325.17047  20995397.918    20995404.166
  21556101.688   -14321137.26849 -11144977.10947  21556101.002    21556105.556
  23761115.014    -8880195.15049  -6549602.52245  23761114.173    23761121.160
  22050319.875     4650992.82049   3643839.69646  22050318.961    22050325.554
  23180209.177    -8987931.02649  -6746888.10845  23180208.855    23180215.823
  24521680.058    -5041060.56749  -3650640.67645  24521679.174    24521687.969
 03  6  8 16 12 30.0000000  0 10G30G16G26G 6G17G21G18G10G29G15
  22468305.440     8786790.73049   6849401.33846  22468305.536    22468311.728
  24592296.613    -5449585.74649  -4232018.85345  24592295.528    24592302.078
  23137977.431    -6887158.14849  -5337964.61645  23137977.482    23137985.727
  20359287.684   -10759985.45249  -8375455.12447  20359287.389    20359292.665
  20991003.455   -10274850.65849  -7993322.96347  20991002.701    20991008.933
  21546995.980   -14368988.08549 -11182263.45047  21546995.286    21546999.827
  23740970.488    -8986054.55049  -6632090.31245  23740969.699    23740976.793
  22065899.659     4732864.85349   3707636.02346  22065898.766    22065905.383
  23171110.266    -9035746.42349  -6784146.82446  23171109.934    23171116.908
  24506012.549    -5123393.98349  -3714796.57345  24506011.562    24506020.535
 03  6  8 16 13  0.0000000  0 10G30G16G26G 6G17G21G18G10G29G15
  22486288.776     8881293.07049   6923039.43946  22486288.826    22486295.003
  24577076.127    -5529569.26549  -4294343.62345  24577075.205    24577081.611
  23121407.309    -6974234.31849  -5405816.06445  23121407.333    23121415.584
  20355309.233   -10780892.34749  -8391746.22047  20355308.953    20355314.229
  20986649.545   -10297730.62549  -8011151.51647  20986648.795    20986655.010
  21537929.493   -14416632.70249 -11219389.11647  21537928.852    21537933.370
  23720856.257    -9091753.51449  -6714453.06845  23720855.753    23720862.946
  22081547.252     4815093.13949   3771709.97246  22081546.324    22081552.929
  23162086.650    -9083165.54249  -6821096.74945  23162086.302    23162093.275
  24490362.093    -5205637.69049  -3778882.53345  24490361.076    24490369.970
 03  6  8 16 13 30.0000000  0 10G30G16G26G 6G17G21G18G10G29G15
  22504317.575     8976034.63749   6996863.95046  22504317.625    22504323.819
  24561923.624    -5609195.26049  -4356389.80245  24561922.894    24561929.357
  23104881.811    -7061075.95849  -5473484.78345  23104881.804    23104890.107
  20351404.787   -10801410.44049  -8407734.35947  20351404.496    20351409.762
  20982336.932   -10320393.49549  -8028810.89847  20982336.211    20982342.427
  21528902.298   -14464070.93749 -11256353.97647  21528901.662    21528906.150
  23700773.395    -9197289.34349  -6796688.74645  23700772.917    23700780.103
  22097262.069     4897675.38849   3836059.72046  22097261.194    22097267.887
  23153138.942    -9130185.52149  -6857735.64845  23153138.695    23153145.578
  24474728.923    -5287790.77049  -3842897.89145  24474727.799    24474736.855
 03  6  8 16 14  0.0000000  0 10G30G16G26G 6G17G21G18G10G29G15
  22522391.173     9071012.35649   7070872.47646  22522391.253    22522397.545
  24546839.733    -5688461.39149  -4418155.57245  24546838.987    24546845.456
  23088401.531    -7147679.75249  -5540968.15545  23088401.522    23088409.809
  20347574.518   -10821538.47649  -8423418.54547  20347574.238    20347579.514
  20978065.624   -10342839.48249  -8046301.28247  20978064.888    20978071.115
  21519914.386   -14511302.67749 -11293157.91847  21519913.754    21519918.238
  23680721.833    -9302660.20049  -6878795.83645  23680721.438    23680728.720
  22113043.765     4980608.73549   3900683.05846  22113042.929    22113049.580
  23144267.734    -9176804.16949  -6894061.84545  23144267.507    23144274.250
  24459112.713    -5369853.37149  -3906842.74345  24459111.709    24459120.916
 03  6  8 16 14 30.0000000  0 10G30G16G26G 6G17G21G18G10G29G15
  22540509.228     9166223.25249   7145062.69046  22540509.360    22540515.683
  24531824.893    -5767365.24849  -4479639.05345  24531824.161    24531830.610
  23071967.338    -7234041.87049  -5608263.22845  23071967.230    23071975.514
  20343818.875   -10841274.76049  -8438797.48447  20343818.577    20343823.855
  20973835.508   -10365068.85149  -8063622.88247  20973834.776    20973841.021
  21510965.792   -14558327.97949 -11329801.00547  21510965.129    21510969.649
  23660702.295    -9407863.78149  -6960772.58945  23660701.847    23660709.022
  22128891.914     5063890.50849   3965577.89146  22128890.988    22128897.609
  23135473.402    -9223018.81849  -6930073.23246  23135473.155    23135479.950
  24443513.831    -5451825.33049  -3970716.95745  24443513.068    24443522.103
 03  6  8 16 15  0.0000000  0 10G30G16G26G 6G17G21G18G10G29G15
  22558670.631     9261662.37349   7219430.75146  22558670.917    22558677.236
  24516878.959    -5845906.23749  -4540839.78145  24516878.148    24516884.711
  23055579.435    -7320160.81249  -5675368.81845  23055579.364    23055587.568
  20340137.649   -10860619.86449  -8453871.59647  20340137.346    20340142.610
  20969646.180   -10387083.91049  -8080777.47947  20969645.477    20969651.735
  21502056.000   -14605149.15249 -11366285.03047  21502055.367    21502059.874
  23640714.615    -9512899.92349  -7042618.86745  23640714.094    23640721.218
  22144805.373     5147515.76649   4030740.38246  22144804.421    22144811.008
  23126755.921    -9268829.25649  -6965769.62446  23126755.660    23126762.553
  24427932.079    -5533708.72149  -4034522.16545  24427931.175    24427940.105
 03  6  8 16 15 30.0000000  0 10G30G16G26G 6G17G21G18G10G29G15
  22576875.436     9357328.10649   7293975.38146  22576875.574    22576881.914
  24502002.742    -5924080.75749  -4601754.97245  24502001.997    24502008.515
  23039238.728    -7406031.51149  -5742280.94645  23039238.687    23039246.819
  20336531.382   -10879570.75049  -8468638.53447  20336531.102    20336536.373
  20965497.786   -10408883.69249  -8097764.32747  20965497.098    20965503.368
  21493185.339   -14651764.56049 -11402608.72047  21493184.728    21493189.226
  23620759.373    -9617765.09649  -7124331.93745  23620758.839    23620766.042
  22160783.883     5231483.27949   4096169.55846  22160782.929    22160789.474
  23118116.095    -9314231.51849  -7001147.99645  23118115.802    23118122.626
  24412367.517    -5615501.63549  -4098256.87345  24412366.540    24412375.592
 03  6  8 16 16  0.0000000  0 10G30G16G26G 6G17G21G18G10G29G15
  22595122.754     9453218.02849   7368694.70546  22595122.911    22595129.270
  24487196.770    -6001885.92649  -4662382.36545  24487196.297    24487202.602
  23022946.049    -7491649.96949  -5808996.55145  23022946.026    23022953.991
  20333000.576   -10898125.50349  -8483096.80047  20333000.287    20333005.540
  20961390.404   -10430468.11549  -8114583.37247  20961389.742    20961395.999
  21484353.984   -14698173.58749 -11438771.59247  21484353.372    21484357.870
  23600837.101    -9722456.93149  -7205909.93845  23600836.681    23600843.724
  22176827.178     5315790.99049   4161863.83546  22176826.212    22176832.767
  23109554.507    -9359222.97549  -7036206.25046  23109554.199    23109560.999
  24396820.228    -5697203.30849  -4161920.48745  24396819.264    24396828.336
 03  6  8 16 16 30.0000000  0 10G30G16G26G 6G17G21G18G10G29G15
  22613412.061     9549328.89449   7443586.19546  22613412.260    22613418.621
  24472461.550    -6079319.84549  -4722720.50845  24472461.148    24472467.235
  23006701.917    -7577012.92449  -5875513.03845  23006701.892    23006709.909
  20329545.341   -10916282.95749  -8497245.48047  20329545.049    20329550.310
  20957323.866   -10451837.98949  -8131235.22747  20957323.187    20957329.442
  21475561.768   -14744377.02749 -11474774.25947  21475561.149    21475565.664
  23580948.241    -9826973.50549  -7287351.36045  23580947.789    23580954.826
  22192934.518     5400435.53049   4227820.57046  22192933.532    22192940.146
  23101071.486    -9403801.43949  -7070942.69146  23101071.201    23101077.931
  24381290.162    -5778813.94649  -4225513.15445  24381289.235    24381298.385
 03  6  8 16 17  0.0000000  0 10G30G16G26G 6G17G21G18G10G29G15
  22631742.907     9645657.68749   7518647.49946  22631743.160    22631749.485
  24457797.286    -6156379.97249  -4782767.33845  24457796.920    24457803.168
  22990507.082    -7662116.76849  -5941827.63045  22990507.033    22990515.008
  20326165.995   -10934041.52749  -8511083.33847  20326165.718    20326170.969
  20953298.203   -10472993.12449  -8147719.75547  20953297.504    20953303.760
  21466808.615   -14790374.88949 -11510616.74447  21466808.018    21466812.540
  23561093.123    -9931312.72349  -7368654.58245  23561092.655    23561099.626
  22209105.410     5485413.99349   4294037.51346  22209104.447    22209111.066
  23092667.512    -9447964.49549  -7105355.43246  23092667.249    23092674.104
  24365777.323    -5860333.79149  -4289035.07745  24365776.494    24365785.731
 03  6  8 16 17 30.0000000  0 10G30G16G26G 6G17G21G18G10G29G15
  22650114.507     9742201.04849   7593876.00046  22650114.782    22650121.186
  24443204.676    -6233064.58149  -4842521.56045  24443204.162    24443210.449
  22974362.331    -7746958.38449  -6007937.87945  22974362.190    22974370.118
  20322862.852   -10951399.91749  -8524609.37047  20322862.535    20322867.803
  20949313.249   -10493934.30549  -8164037.56747  20949312.553    20949318.829
  21458094.574   -14836167.44949 -11546299.24947  21458093.961    21458098.490
  23541272.243   -10035472.82149  -7449818.23645  23541271.647    23541278.501
  22225339.321     5570723.36249   4360512.29646  22225338.348    22225344.985
  23084342.939    -9491710.29349  -7139443.04346  23084342.652    23084349.503
  24350281.873    -5941762.72249  -4352486.14345  24350281.121    24350290.314
 03  6  8 16 18  0.0000000  0 10G30G16G26G 6G17G21G18G10G29G15
  22668526.421     9838956.49749   7669269.76146  22668526.815    22668533.233
  24428684.191    -6309370.52249  -4901980.78045  24428683.724    24428689.828
  22958268.143    -7831533.40849  -6073840.41645  22958268.052    22958275.942
  20319636.171   -10968356.36049  -8537822.20147  20319635.859    20319641.116
  20945368.918   -10514661.81049  -8180188.88047  20945368.253    20945374.527
  21449419.592   -14881754.92349 -11581821.94947  21449418.946    21449423.494
  23521485.670   -10139451.21449  -7530840.29845  23521485.105    23521492.048
  22241635.747     5656361.51849   4427243.27646  22241634.767    22241641.457
  23076098.299    -9535035.97449  -7173203.28846  23076098.010    23076104.935
  24334803.903    -6023100.01349  -4415865.81545  24334803.146    24334812.297
 03  6  8 16 18 30.0000000  0 10G30G16G26G 6G17G21G18G10G29G15
  22686978.207     9935920.66349   7744826.16246  22686978.542    22686984.977
  24414236.121    -6385295.79749  -4961143.36945  24414235.607    24414241.677
  22942225.256    -7915838.80449  -6139532.85245  22942225.258    22942233.097
  20316486.160   -10984909.72949  -8550720.94547  20316485.859    20316491.134
  20941465.161   -10535176.31749  -8196174.22247  20941464.496    20941470.762
  21440783.736   -14927136.55749 -11617184.26147  21440783.115    21440787.661
  23501734.021   -10243246.06449  -7611719.34845  23501733.498    23501740.467
  22257994.059     5742324.88849   4494227.67046  22257993.082    22257999.789
  23067934.052    -9577939.40549  -7206634.50746  23067933.802    23067940.609
  24319343.343    -6104346.00549  -4479174.34945  24319342.540    24319351.570
 03  6  8 16 19  0.0000000  0 10G30G16G26G 6G17G21G18G10G29G15
  22705469.171    10033090.64649   7820542.94846  22705469.440    22705475.884
  24399861.000    -6460838.45749  -5020007.79144  24399860.249    24399866.328
  22926234.421    -7999870.93449  -6205012.35945  22926234.528    22926242.311
  20313413.167   -11001058.47549  -8563304.39747  20313412.877    20313418.145
  20937601.975   -10555477.74849  -8211993.52747  20937601.280    20937607.519
  21432186.921   -14972312.97449 -11652386.65847  21432186.306    21432190.842
  23482017.786   -10346855.37849  -7692453.81245  23482017.278    23482024.227
  22274413.713     5828611.01249   4561463.56846  22274412.795    22274419.521
  23059850.509    -9620418.67349  -7239735.22746  23059850.298    23059857.036
  24303900.117    -6185500.51849  -4542411.58945  24303899.330    24303908.250
 03  6  8 16 19 30.0000000  0 10G30G16G26G 6G17G21G18G10G29G15
  22723998.538    10130462.92849   7896417.36346  22723998.853    22724005.285
  24385558.968    -6535996.70949  -5078572.67244  24385558.020    24385564.143
  22910296.178    -8083626.78349  -6270276.56445  22910296.263    22910304.016
  20310417.310   -11016801.77349  -8575571.91547  20310417.001    20310422.310
  20933779.092   -10575567.26649  -8227647.69947  20933778.387    20933784.626
  21423629.173   -15017284.41149 -11687429.33047  21423628.551    21423633.049
  23462337.077   -10450277.66849  -7773042.54045  23462336.652    23462343.604
  22290894.308     5915216.52349   4628948.33546  22290893.345    22290900.089
  23051848.081    -9662471.77049  -7272503.86946  23051847.828    23051854.495
  24288474.397    -6266563.91549  -4605577.82345  24288473.559    24288482.259
 03  6  8 16 20  0.0000000  0 10G30G16G26G 6G17G21G18G10G29G15
  22742566.193    10228035.41949   7972447.77946  22742566.378    22742572.833
  24371330.404    -6610767.12749  -5136835.33744  24371329.729    24371335.722
  22894411.340    -8167101.81949  -6335321.95245  22894411.420    22894419.166
  20307499.061   -11032137.29649  -8587521.68947  20307498.761    20307504.087
  20929996.634   -10595444.24249  -8243136.25847  20929995.935    20930002.183
  21415110.386   -15062050.56649 -11722312.04147  21415109.848    21415114.343
  23442692.731   -10553509.78349  -7853483.08145  23442692.162    23442699.096
  22307435.266     6002139.53349   4696680.50646  22307434.344    22307441.041
  23043927.163    -9704095.86049  -7304938.18946  23043926.941    23043933.766
  24273066.152    -6347534.95549  -4668672.09945  24273065.217    24273073.916
 03  6  8 16 20 30.0000000  0 10G30G16G26G 6G17G21G18G10G29G15
  22761171.178    10325804.99749   8048631.76946  22761171.338    22761177.808
  24357175.855    -6685147.71349  -5194794.24345  24357175.478    24357181.583
  22878580.630    -8250292.64749  -6400145.89845  22878580.648    22878588.385
  20304658.606   -11047063.82149  -8599152.76547  20304658.338    20304663.662
  20926254.600   -10615108.78649  -8258459.28347  20926253.896    20926260.155
  21406630.648   -15106611.70949 -11757035.00747  21406630.108    21406634.642
  23423084.768   -10656549.96249  -7933774.07345  23423084.256    23423091.128
  22324036.041     6089377.18249   4764657.85346  22324035.142    22324041.814
  23036088.527    -9745288.51749  -7337036.34846  23036088.208    23036095.036
  24257675.247    -6428413.75349  -4731694.50845  24257674.422    24257683.216
 03  6  8 16 21  0.0000000  0 10G30G16G26G 6G17G21G18G10G29G15
  22779813.083    10423768.50049   8124966.87446  22779813.243    22779819.794
  24343096.259    -6759136.12249  -5252447.51844  24343096.005    24343102.164
  22862804.588    -8333195.95549  -6464745.80345  22862804.580    22862812.387
  20301896.250   -11061580.10849  -8610464.17147  20301895.980    20301901.332
  20922552.874   -10634561.45749  -8273617.21147  20922552.189    20922558.428
  21398189.997   -15150967.79649 -11791598.18347  21398189.442    21398193.973
  23403513.769   -10759396.36349  -8013914.06445  23403513.275    23403520.073
  22340696.108     6176926.31349   4832877.91046  22340695.238    22340701.920
  23028332.288    -9786047.78549  -7368796.80046  23028332.007    23028338.858
  24242301.750    -6509200.76549  -4794645.38045  24242301.115    24242309.880
 03  6  8 16 21 30.0000000  0 10G30G16G26G 6G17G21G18G10G29G15
  22798491.210    10521922.97949   8201450.79346  22798491.542    22798498.116
  24329091.713    -6832730.09849  -5309793.49344  24329091.700    24329097.613
  22847083.903    -8415808.23149  -6529118.90845  22847083.883    22847091.723
  20299212.248   -11075684.71049  -8621454.78647  20299211.978    20299217.324
  20918891.312   -10653803.14449  -8288610.73747  20918890.643    20918896.870
  21389788.364   -15195118.79549 -11826001.55747  21389787.768    21389792.308
  23383979.972   -10862046.87649  -8093901.40845  23383979.488    23383986.358
  22357414.943     6264784.13949   4901338.51146  22357414.054    22357420.757
  23020658.959    -9826371.49349  -7400217.84846  23020658.670    23020665.522
  24226946.138    -6589895.69049  -4857524.49445  24226945.355    24226954.143
 03  6  8 16 22  0.0000000  0 10G30G16G26G 6G17G21G18G10G29G15
  22817205.317    10620265.14149   8278080.95146  22817205.497    22817212.135
  24315162.380    -6905927.71549  -5366830.58545  24315162.683    24315168.439
  22831419.260    -8498125.97349  -6593262.51145  22831419.278    22831427.173
  20296606.836   -11089376.29049  -8632123.55947  20296606.562    20296611.906
  20915269.901   -10672833.75449  -8303439.79047  20915269.230    20915275.441
  21381425.691   -15239064.92549 -11860245.28647  21381425.088    21381429.619
  23364483.828   -10964499.59049  -8173734.63945  23364483.405    23364490.150
  22374192.024     6352947.91749   4970037.50946  22374191.040    22374197.806
  23013068.847    -9866257.61749  -7431297.93546  23013068.574    23013075.360
  24211608.059    -6670498.28649  -4920331.68145  24211607.253    24211615.954
 03  6  8 16 22 30.0000000  0 10G30G16G26G 6G17G21G18G10G29G15
  22835954.334    10718791.76549   8354854.83746  22835954.508    22835961.237
  24301309.317    -6978727.12349  -5423557.37945  24301309.164    24301315.395
  22815811.303    -8580145.92049  -6657174.08645  22815811.333    22815819.158
  20294080.195   -11102653.83249  -8642469.70747  20294079.941    20294085.288
  20911688.516   -10691654.24049  -8318105.10847  20911687.840    20911694.048
  21373101.923   -15282806.68449 -11894329.77347  21373101.320    21373105.839
  23345025.700   -11066752.81949  -8253412.42346  23345025.215    23345031.949
  22391026.636     6441414.40849   5038972.38746  22391025.665    22391032.464
  23005562.366    -9905704.37949  -7462035.67946  23005562.150    23005568.794
  24196287.427    -6751008.87749  -4983067.18745  24196286.569    24196295.264
 03  6  8 16 23  0.0000000  0 10G30G16G26G 6G17G21G18G10G29G15
  22854737.972    10817500.18849   8431770.38646  22854738.114    22854744.892
  24287532.724    -7051125.63949  -5479971.79245  24287532.121    24287538.522
  22800260.781    -8661864.11249  -6720850.50345  22800260.818    22800268.601
  20291632.722   -11115515.56649  -8652491.85147  20291632.465    20291637.798
  20908147.056   -10710264.71349  -8332606.78447  20908146.371    20908152.571
  21364817.108   -15326343.85949 -11928254.84147  21364816.465    21364820.998
  23325606.043   -11168804.11949  -8332932.85946  23325605.430    23325612.221
  22407918.480     6530181.12749   5108141.21346  22407917.471    22407924.240
  22998139.977    -9944709.10549  -7492428.95346  22998139.740    22998146.448
  24180984.540    -6831426.64349  -5045730.34745  24180983.593    24180992.336
 03  6  8 16 23 30.0000000  0 10G30G16G26G 6G17G21G18G10G29G15
  22873555.657    10916387.27849   8508825.15746  22873555.837    22873562.640
  24273832.658    -7123121.59049  -5536072.51245  24273831.885    24273838.090
  22784768.353    -8743277.47249  -6784289.40845  22784768.284    22784776.147
  20289264.520   -11127960.61749  -8662189.30847  20289264.265    20289269.603
  20904645.466   -10728665.68449  -8346945.21147  20904644.795    20904650.991
  21356571.122   -15369676.67649 -11962020.66847  21356570.524    21356575.053
  23306225.065   -11270651.85149  -8412294.67646  23306224.417    23306231.169
  22424866.800     6619245.07149   5177541.63446  22424865.838    22424872.649
  22990802.008    -9983270.26149  -7522476.58846  22990801.789    22990808.569
  24165699.147    -6911752.00249  -5108321.50445  24165698.175    24165706.812
 03  6  8 16 24  0.0000000  0 10G30G16G26G 6G17G21G18G10G29G15
  22892406.713    11015449.82249   8586016.63546  22892406.837    22892413.685
  24260209.649    -7194712.53349  -5591857.65345  24260208.447    24260214.894
  22769334.459    -8824382.56349  -6847488.09445  22769334.358    22769342.280
  20286975.859   -11139987.58449  -8671560.98147  20286975.599    20286980.957
  20901183.732   -10746857.29749  -8361120.50147  20901183.062    20901189.237
  21348364.003   -15412805.31849 -11995627.39747  21348363.406    21348367.939
  23286883.093   -11372294.01049  -8491496.28246  23286882.467    23286889.313
  22441871.139     6708603.50149   5247171.53046  22441870.206    22441877.070
  22983548.902   -10021385.62449  -7552176.86146  22983548.650    22983555.504
  24150431.235    -6991984.90549  -5170840.60345  24150430.375    24150438.849
 03  6  8 16 24 30.0000000  0 10G30G16G26G 6G17G21G18G10G29G15
  22911290.808    11114685.33749   8663342.91646  22911290.883    22911297.697
  24246663.957    -7265895.74349  -5647325.08245  24246662.914    24246669.130
  22753960.010    -8905175.28049  -6910443.38745  22753960.012    22753967.814
  20284767.106   -11151594.63549  -8680605.45747  20284766.858    20284772.251
  20897761.832   -10764839.65649  -8375132.73447  20897761.121    20897767.311
  21340195.832   -15455729.26149 -12029074.62547  21340195.230    21340199.747
  23267580.721   -11473728.16649  -8570535.82745  23267580.139    23267586.978
  22458931.069     6798253.81849   5317028.85946  22458930.166    22458937.008
  22976381.033   -10059052.64149  -7581527.77346  22976380.783    22976387.704
  24135181.140    -7072124.80549  -5233287.23445  24135180.212    24135188.500
 03  6  8 16 25  0.0000000  0 10G30G16G26G 6G17G21G18G10G29G15
  22930207.177    11214091.10249   8740801.83446  22930207.218    22930214.055
  24233196.092    -7336668.99849  -5702473.05245  24233195.179    24233201.564
  22738645.742    -8985651.88049  -6973152.35046  22738645.773    22738653.634
  20282638.626   -11162780.24749  -8689321.53747  20282638.352    20282643.717
  20894379.738   -10782612.76649  -8388981.91447  20894379.022    20894385.222
  21332066.638   -15498448.68649 -12062362.48747  21332066.008    21332070.503
  23248318.388   -11574951.83149  -8649411.35545  23248317.865    23248324.660
  22476046.172     6888193.77449   5387111.88046  22476045.207    22476052.135
  22969298.973   -10096269.01749  -7610527.53946  22969298.795    22969305.625
  24119948.435    -7152171.42349  -5295661.17445  24119947.658    24119956.162
 03  6  8 16 25 30.0000000  0 10G30G16G26G 6G17G21G18G10G29G15
  22949155.449    11313664.18249   8818391.16346  22949155.550    22949162.289
  24219806.691    -7407029.85449  -5757299.66745  24219805.917    24219812.379
  22723392.482    -9065808.59549  -7035612.06146  22723392.443    22723400.257
  20280590.572   -11173542.92949  -8697708.05647  20280590.290    20280595.660
  20891037.431   -10800176.58849  -8402668.01547  20891036.726    20891042.930
  21323976.396   -15540963.17649 -12095490.65947  21323975.779    21323980.282
  23229096.450   -11675963.06849  -8728121.34345  23229096.001    23229102.817
  22493215.859     6978420.58649   5457418.43846  22493214.871    22493221.741
  22962303.194   -10133032.47649  -7639174.36446  22962302.998    22962309.755
  24104733.773    -7232124.33649  -5357962.11845  24104733.220    24104741.537
 03  6  8 16 26  0.0000000  0 10G30G16G26G 6G17G21G18G10G29G15
  22968134.861    11413401.09449   8896108.11646  22968134.891    22968141.723
  24206495.986    -7476977.04249  -5811803.95945  24206495.462    24206501.904
  22708200.445    -9145642.78349  -7097820.45146  22708200.460    22708208.248
  20278623.092   -11183882.05049  -8705764.53147  20278622.821    20278628.203
  20887734.757   -10817532.00149  -8416191.72247  20887734.083    20887740.333
  21315924.980   -15583273.46749 -12128459.71647  21315924.393    21315928.907
  23209915.388   -11776760.55549  -8806664.77646  23209914.890    23209921.648
  22510439.363     7068930.55749   5527945.64346  22510438.388    22510445.252
  22955393.791   -10169341.77549  -7667467.31146  22955393.601    22955400.322
  24089536.819    -7311984.28149  -5420190.59945  24089536.352    24089544.613
 03  6  8 16 26 30.0000000  0 10G30G16G26G 6G17G21G18G10G29G15
  22987144.734    11513298.60849   8973950.24246  22987144.830    22987151.663
  24193264.586    -7546508.39449  -5865984.21245  24193264.162    24193270.523
  22693070.454    -9225150.78649  -7159774.65045  22693070.504    22693078.318
  20276736.472   -11193796.31949  -8713489.94547  20276736.207    20276741.572
  20884471.685   -10834679.49849  -8429553.41447  20884471.022    20884477.270
  21307912.381   -15625379.86949 -12161269.89447  21307911.810    21307916.335
  23190775.305   -11877342.29049  -8885040.10546  23190774.811    23190781.492
  22527716.191     7159721.11849   5598691.46946  22527715.257    22527722.183
  22948571.173   -10205194.88449  -7695404.78346  22948570.915    22948577.657
  24074357.633    -7391750.99049  -5482346.42645  24074357.149    24074365.469
 03  6  8 16 27  0.0000000  0 10G30G16G26G 6G17G21G18G10G29G15
  23006184.713    11613353.77149   9051915.19746  23006184.819    23006191.599
  24180112.852    -7615621.70749  -5919838.70245  24180112.317    24180118.660
  22678003.233    -9304329.26949  -7221472.11045  22678003.295    22678011.015
  20274930.944   -11203284.57049  -8720883.40647  20274930.667    20274936.054
  20881248.186   -10851619.39949  -8442753.34847  20881247.513    20881253.730
  21299938.633   -15667282.44549 -12193921.25347  21299938.020    21299942.549
  23171676.702   -11977706.31449  -8963245.77946  23171676.192    23171682.774
  22545045.937     7250789.26449   5669653.61846  22545044.980    22545051.907
  22941835.703   -10240590.01249  -7722985.38646  22941835.488    22941842.258
  24059196.089    -7471424.57849  -5544429.67745  24059195.676    24059204.279
 03  6  8 16 27 30.0000000  0 10G30G16G26G 6G17G21G18G10G29G15
  23025254.357    11713565.08849   9130001.84446  23025254.448    23025261.246
  24167041.225    -7684313.23949  -5973364.55345  24167040.826    24167047.166
  22662999.781    -9383173.21649  -7282908.89946  22662999.772    22663007.352
  20273207.019   -11212343.95949  -8727942.68747  20273206.741    20273212.122
  20878064.290   -10868351.06249  -8455791.01747  20878063.587    20878069.791
  21292003.921   -15708979.79949 -12226412.70447  21292003.283    21292007.847
  23152620.169   -12077849.15549  -9041279.09746  23152619.575    23152626.140
  22562428.273     7342134.07449   5740831.32046  22562427.346    22562434.318
  22935188.020   -10275523.55849  -7750206.31046  22935187.859    22935194.641
  24044052.681    -7551003.28349  -5606438.98945  24044052.219    24044061.005
 03  6  8 16 28  0.0000000  0 10G30G16G26G 6G17G21G18G10G29G15
  23044352.806    11813927.46949   9208206.21046  23044352.847    23044359.645
  24154049.903    -7752583.14249  -6026561.84945  24154049.470    24154055.872
  22648060.126    -9461681.04649  -7344083.75245  22648060.084    22648067.692
  20271564.541   -11220975.39849  -8734668.49247  20271564.268    20271569.641
  20874919.573   -10884876.82349  -8468668.23947  20874918.854    20874925.040
  21284107.878   -15750473.62249 -12258745.54847  21284107.239    21284111.794
  23133605.457   -12177770.79949  -9119140.06046  23133605.049    23133611.584
  22579862.374     7433750.29849   5812220.53546  22579861.377    22579868.337
  22928628.216   -10309995.47349  -7777067.53146  22928627.992    22928634.814
  24028927.068    -7630489.12149  -5668375.98045  24028926.510    24028935.273
 03  6  8 16 28 30.0000000  0 10G30G16G26G 6G17G21G18G10G29G15
  23063479.444    11914438.86049   9286526.65846  23063479.595    23063486.426
  24141139.351    -7820428.39949  -6079428.25145  24141138.967    24141145.386
  22633185.293    -9539848.51249  -7404993.40245  22633185.252    22633192.844
  20270003.955   -11229176.56549  -8741059.02647  20270003.658    20270009.034
  20871814.221   -10901195.70849  -8481384.26447  20871813.474    20871819.667
  21276250.688   -15791763.48049 -12290919.46047  21276250.068    21276254.616
  23114633.613   -12277468.47449  -9196826.50346  23114633.153    23114639.734
  22597347.757     7525636.33849   5883819.98246  22597346.812    22597353.813
  22922156.708   -10344002.99849  -7803566.88346  22922156.501    22922163.405
  24013819.428    -7709881.07949  -5730239.80145  24013818.639    24013827.484
 03  6  8 16 29  0.0000000  0 10G30G16G26G 6G17G21G18G10G29G15
  23082634.019    12015096.46949   9364961.05246  23082634.146    23082641.018
  24128309.944    -7887846.88749  -6131962.11745  24128309.649    24128316.068
  22618375.915    -9617672.08249  -7465635.08246  22618375.874    22618383.499
  20268525.459   -11236946.16449  -8747113.27847  20268525.172    20268530.526
  20868748.276   -10917307.53449  -8493938.94447  20868747.507    20868753.719
  21268432.279   -15832849.22249 -12322934.32847  21268431.701    21268436.247
  23095704.742   -12376940.22649  -9274336.91346  23095704.337    23095710.851
  22614883.934     7617789.46049   5955627.56046  22614882.982    22614889.954
  22915774.078   -10377544.07949  -7829702.77046  22915773.870    22915780.766
  23998729.406    -7789179.04349  -5792030.36645  23998728.656    23998737.531
 03  6  8 16 29 30.0000000  0 10G30G16G26G 6G17G21G18G10G29G15
  23101815.742    12115896.68749   9443506.55546  23101815.885    23101822.800
  24115562.263    -7954836.97949  -6184162.16945  24115561.884    24115568.162
  22603632.646    -9695148.63349  -7526006.34546  22603632.601    22603640.105
  20267129.226   -11244283.44149  -8752830.65147  20267128.939    20267134.299
  20865721.482   -10933213.20149  -8506332.97447  20865720.752    20865726.979
  21260652.651   -15873731.46149 -12354790.61347  21260652.067    21260656.603
  23076819.206   -12476184.48349  -9351670.05546  23076818.701    23076825.192
  22632470.269     7710206.39849   6027640.69546  22632469.357    22632476.366
  22909480.470   -10410617.49549  -7855474.23446  22909480.247    22909487.114
  23983657.324    -7868383.38549  -5853747.99645  23983656.500    23983665.327
 03  6  8 16 30  0.0000000  0 10G30G16G26G 6G17G21G18G10G29G15
  23121024.146    12216836.95749   9522161.21146  23121024.308    23121031.183
  24102896.519    -8021396.06349  -6236026.35345  24102896.073    24102902.379
  22588956.057    -9772274.52249  -7586104.37546  22588956.001    22588963.466
  20265815.592   -11251186.78749  -8758209.89647  20265815.298    20265820.689
  20862733.997   -10948912.57749  -8518566.26447  20862733.320    20862739.529
  21252911.831   -15914409.76549 -12386487.99147  21252911.266    21252915.811
  23057977.276   -12575198.93249  -9428824.11546  23057976.785    23057983.280
  22650106.339     7802884.53549   6099857.38846  22650105.478    22650112.486
  22903276.328   -10443220.68949  -7880879.30346  22903276.112    22903282.927
  23968603.062    -7947493.47449  -5915392.17145  23968602.322    23968611.270
 03  6  8 16 30 30.0000000  0 10G30G16G26G 6G17G21G18G10G29G15
  23140258.615    12317914.55549   9600922.84946  23140258.802    23140265.757
  24090312.877    -8087522.32249  -6287553.25945  24090312.643    24090318.989
  22574346.796    -9849045.99649  -7645926.23046  22574346.735    22574354.275
  20264584.740   -11257655.00249  -8763250.07647  20264584.450    20264589.825
  20859785.582   -10964406.78749  -8530639.68147  20859784.881    20859791.096
  21245209.814   -15954884.06249 -12418026.40047  21245209.238    21245213.794
  23039179.558   -12673981.73149  -9505797.65746  23039179.008    23039185.478
  22667791.696     7895821.44249   6172275.69446  22667790.815    22667797.850
  22897161.996   -10475352.01649  -7905916.68546  22897161.765    22897168.521
  23953566.837    -8026509.15249  -5976962.77945  23953566.131    23953574.959
 03  6  8 16 31  0.0000000  0 10G30G16G26G 6G17G21G18G10G29G15
  23159518.640    12419125.86449   9679788.70146  23159518.759    23159525.681
  24077811.986    -8153214.00949  -6338741.56045  24077811.938    24077818.168
  22559805.635    -9925460.19949  -7705469.70646  22559805.582    22559813.043
  20263436.860   -11263687.27949  -8767950.56147  20263436.575    20263441.945
  20856876.084   -10979696.08949  -8542553.42747  20856875.386    20856881.630
  21237546.530   -15995155.10749 -12449406.43047  21237545.923    21237550.503
  23020426.111   -12772531.05149  -9582589.27246  23020425.621    23020432.109
  22685525.694     7989013.89149   6244893.13846  22685524.778    22685531.859
  22891137.781   -10507009.91849  -7930585.15246  22891137.485    22891144.192
  23938548.533    -8105430.72349  -6038460.04745  23938547.888    23938556.638
 03  6  8 16 31 30.0000000  0 10G30G16G26G 6G17G21G18G10G29G15
  23178803.489    12520467.94749   9758756.44346  23178803.578    23178810.570
  24065394.532    -8218469.16349  -6389589.70645  24065394.304    24065400.379
  22545333.178   -10001513.65049  -7764732.07346  22545333.131    22545340.498
  20262372.121   -11269282.38849  -8772310.39647  20262371.832    20262377.224
  20854005.614   -10994780.49249  -8554307.51847  20854004.943    20854011.183
  21229921.953   -16035222.39349 -12480627.69047  21229921.361    21229925.909
  23001717.578   -12870845.17049  -9659197.61446  23001717.072    23001723.556
  22703307.758     8082459.02049   6317707.47446  22703306.888    22703313.894
  22885203.903   -10538192.44249  -7954883.19746  22885203.574    22885210.299
  23923548.147    -8184258.25449  -6099884.05245  23923547.483    23923556.114
 03  6  8 16 32  0.0000000  0 10G30G16G26G 6G17G21G18G10G29G15
  23198112.857    12621938.79949   9837824.51346  23198112.910    23198119.924
  24053060.438    -8283285.03349  -6440095.53245  24053060.063    24053066.249
  22530930.064   -10077202.03949  -7823709.97546  22530929.982    22530937.305
  20261390.973   -11274438.40949  -8776328.08547  20261390.681    20261396.078
  20851174.181   -11009659.65049  -8565901.67347  20851173.493    20851179.760
  21222336.236   -16075085.47049 -12511689.82547  21222335.693    21222340.214
  22983054.282   -12968921.14249  -9735620.37646  22983053.803    22983060.261
  22721137.525     8176154.88349   6390717.17646  22721136.584    22721143.670
  22879360.948   -10568897.07649  -7978808.85146  22879360.688    22879367.342
  23908565.895    -8262990.63549  -6161233.91145  23908565.264    23908573.858
 03  6  8 16 32 30.0000000  0 10G30G16G26G 6G17G21G18G10G29G15
  23217446.049    12723534.69749   9916990.04646  23217446.106    23217453.180
  24040810.357    -8347659.90049  -6490257.73545  24040809.814    24040816.005
  22516597.001   -10152522.39549  -7882401.09046  22516596.914    22516604.286
  20260493.520   -11279154.65849  -8780003.09747  20260493.232    20260498.623
  20848381.717   -11024334.34349  -8577336.50647  20848381.026    20848387.283
  21214789.322   -16114744.76949 -12542593.17347  21214788.777    21214793.284
  22964436.541   -13066757.65149  -9811856.54746  22964436.082    22964442.560
  22739014.420     8270098.17049   6463919.69046  22739013.488    22739020.491
  22873609.170   -10599122.52049  -8002361.13246  22873608.930    22873615.515
  23893601.573    -8341628.34249  -6222509.99545  23893601.064    23893609.657
 03  6  8 16 33  0.0000000  0 10G30G16G26G 6G17G21G18G10G29G15
  23236802.370    12825252.78449   9996250.77045  23236802.406    23236809.584
  24028644.373    -8411592.01149  -6540074.93545  24028643.866    24028650.094
  22502334.728   -10227471.45149  -7940802.90746  22502334.688    22502341.873
  20259679.946   -11283430.18349  -8783334.68147  20259679.646    20259685.026
  20845628.087   -11038804.73749  -8588612.14147  20845627.412    20845633.670
  21207281.056   -16154201.14749 -12573338.40247  21207280.465    21207285.000
  22945864.672   -13164353.14949  -9887904.92446  22945864.259    22945870.699
  22756937.932     8364286.46049   6537313.10846  22756936.961    22756943.964
  22867949.028   -10628867.01449  -8025538.64746  22867948.739    22867955.251
  23878655.361    -8420171.36349  -6283712.29045  23878654.781    23878663.408
 03  6  8 16 33 30.0000000  0 10G30G16G26G 6G17G21G18G10G29G15
  23256181.431    12927089.85649  10075604.20746  23256181.440    23256188.717
  24016562.776    -8475079.52349  -6589545.69145  24016562.650    24016568.942
  22488143.721   -10302046.06249  -7998912.93746  22488143.652    22488150.702
  20258950.367   -11287264.12349  -8786322.17647  20258950.071    20258955.463
  20842913.236   -11053071.66349  -8599729.23247  20842912.532    20842918.784
  21199811.428   -16193454.58349 -12603925.49047  21199810.776    21199815.324
  22927339.084   -13261705.61949  -9963763.93046  22927338.604    22927345.120
  22774907.468     8458716.59849   6610894.98646  22774906.440    22774913.453
  22862380.652   -10658129.18649  -8048340.32546  22862380.373    22862386.791
  23863727.135    -8498619.91649  -6344840.96645  23863726.446    23863735.071
 03  6  8 16 34  0.0000000  0 10G30G16G26G 6G17G21G18G10G29G15
  23275582.852    13029044.80149  10155049.48946  23275582.899    23275590.247
  24004566.689    -8538118.63049  -6638667.07545  24004566.605    24004572.906
  22474024.891   -10376240.74349  -8056726.93446  22474024.817    22474031.912
  20258305.474   -11290653.16249  -8788963.00247  20258305.197    20258310.591
  20840237.407   -11067133.15349  -8610686.24247  20840236.704    20840242.961
  21192380.901   -16232502.19449 -12634352.19847  21192380.260    21192384.780
  22908860.397   -13358811.32049 -10039430.63746  22908860.007    22908866.490
  22792922.860     8553387.86449   6684664.75546  22792921.808    22792928.871
  22856904.691   -10686905.32549  -8070763.26146  22856904.424    22856910.898
  23848817.179    -8576971.75749  -6405894.29445  23848816.578    23848825.220
 03  6  8 16 34 30.0000000  0 10G30G16G26G 6G17G21G18G10G29G15
  23295005.300    13131109.70549  10234580.47046  23295005.284    23295012.699
  23992655.645    -8600712.29349  -6687441.34445  23992655.400    23992661.548
  22459977.954   -10450057.27549  -8114246.26446  22459977.961    22459985.002
  20257744.487   -11293601.21449  -8791260.20147  20257744.206    20257749.589
  20837599.627   -11080994.82949  -8621487.55447  20837598.950    20837605.198
  21184988.385   -16271350.25449 -12664623.40947  21184987.718    21184992.218
  22890428.302   -13455673.26749 -10114907.42646  22890427.706    22890434.195
  22810982.647     8648292.35849   6758616.26746  22810981.566    22810988.594
  22851520.698   -10715198.46149  -8092809.85046  22851520.472    22851526.896
  23833924.736    -8655231.76649  -6466876.07345  23833924.118    23833932.812
 03  6  8 16 35  0.0000000  0 10G30G16G26G 6G17G21G18G10G29G15
  23314448.895    13233286.68649  10314198.76646  23314448.983    23314456.443
  23980830.761    -8662853.73949  -6735863.23245  23980830.337    23980836.393
  22446004.646   -10523487.25849  -8171464.39646  22446004.574    22446011.705
  20257268.552   -11296102.35749  -8793209.16247  20257268.295    20257273.660
  20835000.872   -11094651.50049  -8632129.12147  20835000.180    20835006.440
  21177634.781   -16309993.41349 -12694734.95647  21177634.159    21177638.667
  22872043.638   -13552284.71449 -10190189.00146  22872043.094    22872049.632
  22829087.185     8743432.22049   6832751.17146  22829086.122    22829093.188
  22846229.733   -10743002.35349  -8114475.20246  22846229.494    22846235.971
  23819050.786    -8733395.02649  -6527782.46445  23819050.155    23819058.731
 03  6  8 16 35 30.0000000  0 10G30G16G26G 6G17G21G18G10G29G15
  23333912.995    13335571.15649  10393900.82846  23333913.168    23333920.664
  23969091.683    -8724542.50949  -6783932.39245  23969091.273    23969097.459
  22432105.197   -10596528.72249  -8228379.76946  22432105.217    22432112.418
  20256877.632   -11298156.75049  -8794810.00447  20256877.376    20256882.737
  20832440.738   -11108105.16449  -8642612.50047  20832440.042    20832446.305
  21170320.088   -16348432.41349 -12724687.41747  21170319.473    21170323.990
  22853706.919   -13648644.95049 -10265274.83346  22853706.318    22853712.792
  22847235.748     8838803.39849   6907066.33146  22847234.649    22847241.702
  22841031.986   -10770316.50849  -8135758.95246  22841031.773    22841038.241
  23804194.898    -8811462.90949  -6588614.52545  23804194.309    23804202.812
 03  6  8 16 36  0.0000000  0 10G30G16G26G 6G17G21G18G10G29G15
  23353397.087    13437960.23949  10473684.39746  23353397.259    23353404.733
  23957439.071    -8785776.72549  -6831647.38545  23957438.860    23957445.082
  22418280.475   -10669178.22349  -8284989.72746  22418280.438    22418287.678
  20256571.858   -11299763.62849  -8796062.13547  20256571.597    20256576.990
  20829919.199   -11121355.83049  -8652937.69547  20829918.478    20829924.784
  21163044.103   -16386667.99249 -12754481.37147  21163043.490    21163047.998
  22835418.145   -13744752.42149 -10340163.71046  22835417.600    22835424.059
  22865427.731     8934403.01449   6981559.48546  22865426.694    22865433.852
  22835927.719   -10797139.42249  -8156659.91646  22835927.516    22835934.060
  23789357.129    -8889435.58649  -6649372.39945  23789356.541    23789365.056
 03  6  8 16 36 30.0000000  0 10G30G16G26G 6G17G21G18G10G29G15
  23372900.525    13540450.63249  10553546.92046  23372900.667    23372908.145
  23945873.459    -8846554.92949  -6879007.03345  23945873.167    23945879.292
  22404530.821   -10741432.97649  -8341292.09146  22404530.767    22404538.084
  20256351.418   -11300921.98249  -8796964.76647  20256351.170    20256356.559
  20827436.092   -11134404.44249  -8663105.45147  20827435.416    20827441.709
  21155806.733   -16424700.76549 -12784117.29247  21155806.100    21155810.617
  22817177.916   -13840605.64849 -10414854.48846  22817177.297    22817183.743
  22883662.663     9030228.23749   7056228.44146  22883661.621    22883668.792
  22830917.236   -10823469.75649  -8177177.05646  22830917.045    22830923.506
  23774537.568    -8967312.87649  -6710055.92745  23774536.861    23774545.505
 03  6  8 16 37  0.0000000  0 10G30G16G26G 6G17G21G18G10G29G15
  23392422.717    13643039.54349  10633486.19746  23392422.872    23392430.194
  23934395.126    -8906874.95149  -6926009.65745  23934394.604    23934400.742
  22390856.805   -10813289.18649  -8397283.89246  22390856.793    22390864.300
  20256216.602   -11301630.64049  -8797516.98347  20256216.323    20256221.729
  20824991.466   -11147250.99349  -8673115.75647  20824990.829    20824997.107
  21148607.843   -16462531.27649 -12813595.60547  21148607.194    21148611.703
  22798986.400   -13936202.52649 -10489345.49846  22798985.820    22798992.230
  22901940.034     9126276.36649   7131071.08146  22901939.007    22901946.207
  22826000.841   -10849305.68049  -8197308.92346  22826000.629    22826007.020
  23759736.457    -9045094.37749  -6770664.82745  23759735.357    23759744.091
 03  6  8 16 37 30.0000000  0 10G30G16G26G 6G17G21G18G10G29G15
  23411962.852    13745723.81049  10713499.77746  23411963.115    23411970.503
  23923004.233    -8966735.01949  -6972653.87045  23923003.579    23923009.805
  22377259.290   -10884743.91049  -8452962.85046  22377259.295    22377266.853
  20256167.450   -11301888.82249  -8797718.17847  20256167.177    20256172.600
  20822585.253   -11159895.84249  -8682968.88447  20822584.575    20822590.860
  21141447.681   -16500158.09349 -12842915.19247  21141447.041    21141451.519
  22780843.935   -14031541.40249 -10563635.47246  22780843.391    22780849.805
  22920259.302     9222544.48749   7206085.14946  22920258.285    22920265.531
  22821178.762   -10874645.86149  -8217054.52546  22821178.547    22821184.887
  23744953.159    -9122780.25149  -6831199.21745  23744952.211    23744960.881
 03  6  8 16 38  0.0000000  0 10G30G16G26G 6G17G21G18G10G29G15
  23431520.880    13848501.01249  10793585.78445  23431521.125    23431528.431
  23911701.036    -9026132.99549  -7018938.03645  23911700.584    23911706.785
  22363739.079   -10955793.32249  -8508325.98146  22363739.026    22363746.588
  20256204.288   -11301695.12549  -8797567.26247  20256204.052    20256209.475
  20820217.428   -11172338.84749  -8692664.73347  20820216.774    20820223.043
  21134326.266   -16537581.35749 -12872076.16547  21134325.641    21134330.123
  22762751.033   -14126620.07349 -10637722.68446  22762750.526    22762756.853
  22938620.036     9319030.75849   7281269.21246  22938619.084    22938626.322
  22816451.358   -10899488.13849  -8236412.14046  22816451.150    22816457.514
  23730188.271    -9200370.25549  -6891658.88145  23730187.383    23730195.868
 03  6  8 16 38 30.0000000  0 10G30G16G26G 6G17G21G18G10G29G15
  23451095.824    13951367.77349  10873741.57145  23451096.104    23451103.449
  23900486.035    -9085067.71649  -7064861.21945  23900485.658    23900491.865
  22350296.357   -11026434.48349  -8563370.98946  22350296.372    22350303.991
  20256327.311   -11301048.84849  -8797063.68647  20256327.056    20256332.513
  20817887.889   -11184580.81649  -8702203.93147  20817887.217    20817893.493
  21127243.472   -16574801.63149 -12901078.96447  21127242.834    21127247.323
  22744707.922   -14221437.08649 -10711606.00046  22744707.417    22744713.718
  22957021.706     9415731.66549   7356620.51346  22957020.675    22957027.961
  22811818.892   -10923831.49049  -8255380.97646  22811818.717    22811825.218
  23715441.528    -9277864.82249  -6952044.19545  23715440.622    23715449.027
 03  6  8 16 39  0.0000000  0 10G30G16G26G 6G17G21G18G10G29G15
  23470687.321    14054321.21649  10953964.92345  23470687.571    23470694.955
  23889359.887    -9143537.07049  -7110421.78445  23889359.270    23889365.523
  22336932.101   -11096664.06549  -8618095.28646  22336932.114    22336939.741
  20256536.644   -11299948.83149  -8796206.54647  20256536.372    20256541.845
  20815596.520   -11196621.97949  -8711586.65447  20815595.853    20815602.120
  21120199.346   -16611818.76649 -12929923.47547  21120198.721    21120203.197
  22726714.936   -14315990.54549 -10785283.96546  22726714.492    22726720.687
  22975463.739     9512644.71449   7432137.11946  22975462.718    22975469.940
  22807281.791   -10947674.34949  -8273959.82246  22807281.547    22807287.999
  23700713.046    -9355263.58949  -7012354.86145  23700712.138    23700720.395
 03  6  8 16 39 30.0000000  0 10G30G16G26G 6G17G21G18G10G29G15
  23490294.924    14157359.76049  11034254.56445  23490295.217    23490302.653
  23878322.792    -9201537.90749  -7155617.27345  23878322.111    23878328.365
  22323647.127   -11166477.33249  -8672495.18546  22323647.101    22323654.611
  20256832.783   -11298392.76049  -8794994.03947  20256832.517    20256837.970
  20813343.629   -11208460.97049  -8720811.84247  20813342.943    20813349.230
  21113194.098   -16648631.49049 -12958608.70647  21113193.470    21113197.967
  22708772.784   -14410277.22749 -10858754.03846  22708772.324    22708778.479
  22993945.803     9609768.39949   7507817.85146  22993944.764    22993952.017
  22802840.443   -10971013.83649  -8292146.42646  22802840.182    22802846.673
  23686002.984    -9432565.25349  -7072589.85245  23686002.101    23686010.364
 03  6  8 16 40  0.0000000  0 10G30G16G26G 6G17G21G18G10G29G15
  23509917.798    14260477.82749  11114606.16445  23509918.032    23509925.607
  23867374.699    -9259071.09449  -7200448.35445  23867373.911    23867380.206
  22310441.329   -11235873.86849  -8726570.35546  22310441.323    22310448.825
  20257215.370   -11296382.48549  -8793427.60847  20257215.102    20257220.543
  20811128.627   -11220100.83549  -8729881.86747  20811127.966    20811134.246
  21106227.134   -16685243.14949 -12987137.26247  21106226.493    21106230.989
  22690881.133   -14504297.93949 -10932016.87646  22690880.730    22690886.863
  23012466.947     9707097.40849   7583658.57346  23012465.921    23012473.235
  22798494.487   -10993851.17249  -8309941.74746  22798494.331    22798500.839
  23671310.891    -9509772.46449  -7132751.24645  23671309.994    23671318.285
 03  6  8 16 40 30.0000000  0 10G30G16G26G 6G17G21G18G10G29G15
  23529555.545    14363674.40749  11195018.95645  23529555.717    23529563.383
  23856516.073    -9316133.13349  -7244912.32245  23856515.418    23856521.731
  22297315.945   -11304848.31449  -8780316.61846  22297315.929    22297323.350
  20257684.893   -11293915.14049  -8791505.01747  20257684.627    20257690.075
  20808951.858   -11231539.86149  -8738795.39347  20808951.203    20808957.476
  21099298.891   -16721651.43349 -13015507.34047  21099298.190    21099302.709
  22673040.936   -14598049.13049 -11005069.68446  22673040.391    22673046.524
  23031026.973     9804631.12849   7659658.82346  23031026.042    23031033.367
  22794244.845   -11016182.91949  -8327343.09646  22794244.693    22794251.253
  23656637.197    -9586882.97849  -7192837.29445  23656636.172    23656644.603
 03  6  8 16 41  0.0000000  0 10G30G16G26G 6G17G21G18G10G29G15
  23549207.466    14466945.93049  11275490.14145  23549207.693    23549215.428
  23845747.431    -9372722.78549  -7289008.20145  23845746.793    23845752.964
  22284271.445   -11373397.99049  -8833731.89546  22284271.400    22284278.751
  20258241.473   -11290990.27549  -8789225.91947  20258241.212    20258246.657
  20806813.180   -11242778.78149  -8747552.99347  20806812.513    20806818.771
  21092409.209   -16757856.41949 -13043719.01447  21092408.589    21092413.134
  22655252.130   -14691529.49349 -11077911.46946  22655251.626    22655257.718
  23049625.444     9902366.18749   7735815.93746  23049624.457    23049631.821
  22790091.669   -11038008.25649  -8344349.84646  22790091.498    22790098.032
  23641981.727    -9663897.16849  -7252848.28845  23641980.737    23641989.270
 03  6  8 16 41 30.0000000  0 10G30G16G26G 6G17G21G18G10G29G15
  23568873.361    14570289.88049  11356017.76645  23568873.508    23568881.147
  23835069.046    -9428838.15549  -7332734.50845  23835068.365    23835074.574
  22271308.379   -11441519.39549  -8886813.44746  22271308.344    22271315.596
  20258885.343   -11287606.74349  -8786589.41747  20258885.076    20258890.547
  20804712.638   -11253817.32249  -8756154.45647  20804711.938    20804718.197
  21085558.420   -16793857.47549 -13071771.77447  21085557.812    21085562.363
  22637515.238   -14784736.86749 -11150540.52446  22637514.754    22637520.861
  23068261.659    10000300.23249   7812128.10246  23068260.726    23068268.043
  22786035.176   -11059325.57849  -8360960.73446  22786034.937    22786041.460
  23627344.766    -9740814.81349  -7312784.05745  23627343.770    23627352.253
 03  6  8 16 42  0.0000000  0 10G30G16G26G 6G17G21G18G10G29G15
  23588552.378    14673703.53049  11436599.68545  23588552.545    23588560.321
  23824481.287    -9484477.08849  -7376089.56545  23824480.694    23824486.843
  22258427.523   -11509209.08549  -8939558.62746  22258427.452    22258434.615
  20259616.738   -11283763.29649  -8783594.54547  20259616.459    20259621.930
  20802650.218   -11264655.44649  -8764599.75047  20802649.506    20802655.752
  21078746.257   -16829655.41949 -13099666.27147  21078745.678    21078750.230
  22619830.690   -14877669.41249 -11222955.42446  22619830.157    22619836.294
  23086935.238    10098430.87349   7888593.47346  23086934.348    23086941.689
  22782075.582   -11080133.05349  -8377174.33646  22782075.417    22782082.005
  23612726.175    -9817635.56249  -7372644.31445  23612725.261    23612733.591
 03  6  8 16 42 30.0000000  0 10G30G16G26G 6G17G21G18G10G29G15
  23608244.074    14777183.57649  11517233.34845  23608244.282    23608252.033
  23813984.511    -9539638.32749  -7419072.38345  23813983.952    23813990.006
  22245629.166   -11576464.20349  -8991965.13446  22245629.132    22245636.210
  20260435.743   -11279459.42349  -8780240.89147  20260435.472    20260440.937
  20800625.797   -11275293.89549  -8772889.45047  20800625.097    20800631.346
  21071972.870   -16865250.04649 -13127402.33147  21071972.237    21071976.802
  22602198.778   -14970325.63049 -11295155.01246  22602198.234    22602204.339
  23105645.704    10196755.06249   7965209.65046  23105644.835    23105652.258
  22778213.244   -11100429.86649  -8392990.01146  22778213.091    22778219.639
  23598125.912    -9894359.76249  -7432429.33945  23598125.098    23598133.337
 03  6  8 16 43  0.0000000  0 10G30G16G26G 6G17G21G18G10G29G15
  23627947.678    14880726.13049  11597915.70145  23627947.851    23627955.740
  23803578.688    -9594321.05249  -7461682.33545  23803578.275    23803584.323
  22232914.007   -11643282.40549  -9044031.20546  22232913.994    22232921.006
  20261342.353   -11274695.25349  -8776528.56147  20261342.085    20261347.574
  20798639.109   -11285734.04649  -8781024.63347  20798638.392    20798644.643
  21065237.861   -16900642.64949 -13154980.97547  21065237.250    21065241.800
  22584619.503   -15062704.77349 -11367138.68146  22584619.004    22584625.135
  23124392.391    10295269.18749   8041973.84446  23124391.487    23124398.952
  22774448.190   -11120215.38449  -8408407.27946  22774448.008    22774454.554
  23583543.869    -9970988.24249  -7492139.76645  23583543.133    23583551.410
 03  6  8 16 43 30.0000000  0 10G30G16G26G 6G17G21G18G10G29G15
  23647663.269    14984331.12049  11678646.70245  23647663.323    23647671.336
  23793264.757    -9648521.17249  -7503916.22545  23793264.386    23793270.417
  22220283.119   -11709657.96849  -9095752.37046  22220283.108    22220290.080
  20262337.203   -11269467.22949  -8772454.79247  20262336.936    20262342.422
  20796690.570   -11295973.72849  -8789003.60947  20796689.871    20796696.111
  21058541.883   -16935830.72449 -13182400.24147  21058541.185    21058545.727
  22567093.948   -15154802.42749 -11438903.01946  22567093.397    22567099.520
  23143175.183    10393973.30649   8118886.06446  23143174.383    23143181.859
  22770781.238   -11139485.75549  -8423423.12946  22770781.026    22770787.599
  23568980.692   -10047518.29049  -7551773.51045  23568979.945    23568988.174
 03  6  8 16 44  0.0000000  0 10G30G16G26G 6G17G21G18G10G29G15
  23667389.523    15087993.10749  11759422.13645  23667389.687    23667397.658
  23783042.719    -9702239.55949  -7545774.74645  23783042.093    23783048.274
  22207736.659   -11775590.16449  -9147128.03846  22207736.634    22207743.569
  20263420.047   -11263777.03349  -8768020.89047  20263419.766    20263425.271
  20794779.695   -11306015.39949  -8796828.29247  20794779.004    20794785.239
  21051884.315   -16970816.40649 -13209661.80347  21051883.634    21051888.164
  22549621.775   -15246619.39449 -11510448.64046  22549621.193    22549627.309
  23161993.292    10492862.29049   8195942.34946  23161992.417    23161999.841
  22767211.890   -11158242.27449  -8438038.57646  22767211.697    22767218.327
  23554435.781   -10123952.23849  -7611332.36445  23554435.024    23554443.258
 03  6  8 16 44 30.0000000  0 10G30G16G26G 6G17G21G18G10G29G15
  23687126.403    15191709.94049  11840240.29645  23687126.544    23687134.551
  23772912.660    -9755473.60649  -7587255.85245  23772912.055    23772918.173
  22195275.285   -11841075.04349  -9198155.14746  22195275.271    22195282.119
  20264591.152   -11257622.92649  -8763225.49847  20264590.876    20264596.380
  20792906.685   -11315858.11849  -8804497.94947  20792906.011    20792912.236
  21045265.397   -17005599.03049 -13236765.13847  21045264.706    21045269.232
  22532203.417   -15338152.95949 -11581773.42946  22532202.851    22532208.981
  23180846.140    10591934.40649   8273141.32346  23180845.275    23180852.727
  22763740.880   -11176482.52949  -8452251.74346  22763740.681    22763747.264
  23539909.294   -10200289.21349  -7670815.66245  23539908.600    23539916.771
 03  6  8 16 45  0.0000000  0 10G30G16G26G 6G17G21G18G10G29G15
  23706873.189    15295478.76749  11921098.97745  23706873.353    23706881.168
  23762874.955    -9808221.83049  -7628358.39645  23762874.395    23762880.576
  22182899.537   -11906109.34449  -9248831.16646  22182899.548    22182906.388
  20265850.678   -11251004.15249  -8758068.02547  20265850.414    20265855.878
  20791071.502   -11325502.20049  -8812012.82547  20791070.801    20791077.022
  21038685.116   -17040177.99749 -13263709.78547  21038684.552    21038689.063
  22514839.343   -15429401.50249 -11652876.12146  22514838.752    22514844.889
  23199733.312    10691186.70849   8350480.69546  23199732.369    23199739.842
  22760368.343   -11194205.54649  -8466061.85646  22760368.165    22760374.765
  23525401.171   -10276529.14049  -7730223.34145  23525400.494    23525408.766
 03  6  8 16 45 30.0000000  0 11G30G16G23G26G 6G17G21G18G10G29G15
  23726628.918    15399295.24649  12001994.78745  23726629.036    23726636.861
  23752929.847    -9860484.01949  -7669082.22145  23752929.259    23752935.480
  24528719.036    -2458191.78249  -1594594.69245  24528717.902    24528728.507
  22170609.895   -11970691.26649  -9299154.69046  22170609.926    22170616.857
  20267198.538   -11243921.24149  -8752548.88547  20267198.271    20267203.716
  20789273.815   -11334949.08949  -8819374.04447  20789273.116    20789279.352
  21032143.253   -17074555.91149 -13290497.76447  21032142.651    21032147.154
  22497529.619   -15520364.70249 -11723756.48346  22497528.965    22497535.115
  23218653.984    10790615.31249   8427957.45446  23218653.040    23218660.493
  22757094.221   -11211411.35949  -8479468.96946  22757094.012    22757100.575
  23510911.198   -10352673.19849  -7789556.31045  23510910.676    23510918.991
 03  6  8 16 46  0.0000000  0 11G30G16G23G26G 6G17G21G18G10G29G15
  23746393.122    15503156.27149  12082925.31745  23746393.274    23746401.162
  23743077.484    -9912259.02049  -7709426.40545  23743076.790    23743083.076
  24509377.944    -2559829.92549  -1673793.17845  24509376.871    24509387.545
  22158406.986   -12034818.16549  -9349123.64446  22158406.975    22158413.850
  20268634.766   -11236373.94649  -8746667.89147  20268634.506    20268639.938
  20787513.464   -11344199.69949  -8826582.32247  20787512.774    20787519.022
  21025639.621   -17108732.49749 -13317128.86947  21025639.063    21025643.594
  22480274.339   -15611041.01449 -11794413.28246  22480273.780    22480279.943
  23237607.708    10890217.41549   8505569.42046  23237606.819    23237614.194
  22753918.640   -11228098.93749  -8492472.24746  22753918.390    22753925.079
  23496439.683   -10428721.78549  -7848814.89345  23496439.064    23496447.336
 03  6  8 16 46 30.0000000  0 11G30G16G23G26G 6G17G21G18G10G29G15
  23766165.858    15607061.77749  12163890.48745  23766165.966    23766173.858
  23733318.545    -9963542.17149  -7749387.33345  23733317.996    23733324.262
  24490066.106    -2661312.34749  -1752870.32145  24490065.262    24490076.096
  22146291.707   -12098483.93149  -9398733.26046  22146291.681    22146298.655
  20270160.047   -11228358.62549  -8740422.20147  20270159.770    20270165.214
  20785790.994   -11353251.25749  -8833635.49347  20785790.317    20785796.556
  21019174.941   -17142704.58549 -13343600.62847  21019174.378    21019178.906
  22463074.597   -15701425.92949 -11864843.02846  22463074.048    22463080.177
  23256594.462    10989993.32349   8583316.80346  23256593.545    23256600.984
  22750842.427   -11244264.46849  -8505068.73846  22750842.160    22750848.864
  23481986.892   -10504671.84349  -7907996.70045  23481986.239    23481994.474
 03  6  8 16 47  0.0000000  0 11G30G16G23G26G 6G17G21G18G10G29G15
  23785946.551    15711009.01449  12244888.17145  23785946.532    23785954.467
  23723653.460   -10014332.07649  -7788963.89745  23723653.006    23723659.291
  24470784.692    -2762636.97049  -1831824.50645  24470783.729    24470794.503
  22134264.733   -12161685.45849  -9447981.13746  22134264.748    22134271.774
  20271774.593   -11219874.22249  -8733810.99047  20271774.312    20271779.773
  20784106.486   -11362103.48449  -8840533.34147  20784105.833    20784112.074
  21012749.142   -17176472.33449 -13369913.15447  21012748.567    21012753.090
  22445930.580   -15791517.90849 -11935044.50846  22445930.076    22445936.220
  23275613.847    11089940.57049   8661197.71245  23275612.928    23275620.388
  22747865.827   -11259906.62149  -8517257.40946  22747865.560    22747872.245
  23467552.979   -10580523.16349  -7967101.58745  23467552.191    23467560.348
 03  6  8 16 47 30.0000000  0 11G30G16G23G26G 6G17G21G18G10G29G15
  23805734.323    15814994.34049  12325915.52845  23805734.342    23805742.423
  23714082.604   -10064627.89749  -7828155.46045  23714082.033    23714088.286
  24451533.611    -2863802.84749  -1910655.03145  24451532.655    24451543.263
  22122326.543   -12224420.51649  -9496865.52446  22122326.572    22122333.628
  20273478.406   -11210920.66649  -8726834.21047  20273478.143    20273483.592
  20782459.702   -11370757.52649  -8847276.75847  20782459.023    20782465.281
  21006362.055   -17210036.55449 -13396067.09747  21006361.529    21006366.023
  22428842.600   -15881315.80049 -12005016.83646  22428842.066    22428848.200
  23294665.191    11190055.86849   8739209.54045  23294664.309    23294671.776
  22744988.900   -11275024.88849  -8529037.85846  22744988.612    22744995.297
  23453137.532   -10656276.66949  -8026130.23645  23453136.821    23453144.951
 03  6  8 16 48  0.0000000  0 11G30G16G23G26G 6G17G21G18G10G29G15
  23825528.668    15919014.21549  12406969.79745  23825528.719    23825536.962
  23704605.883   -10114428.66549  -7866961.28345  23704605.363    23704611.491
  24432312.531    -2964808.81449  -1989360.94845  24432311.923    24432322.346
  22110477.650   -12286686.52349  -9545384.44046  22110477.665    22110484.732
  20275271.510   -11201497.90949  -8719491.81447  20275271.232    20275276.704
  20780850.400   -11379214.50249  -8853866.61947  20780849.717    20780855.961
  21000013.683   -17243397.41249 -13422062.57347  21000013.143    21000017.634
  22411810.717   -15970818.78149 -12074759.35746  22411810.157    22411816.285
  23313747.839    11290335.68049   8817349.56345  23313747.058    23313754.462
  22742211.737   -11289618.89349  -8540409.79246  22742211.444    22742218.119
  23438740.711   -10731932.74249  -8085082.97345  23438739.908    23438747.981
 03  6  8 16 48 30.0000000  0 11G30G16G23G26G 6G17G21G18G10G29G15
  23845329.432    16023067.61849  12488050.20945  23845329.531    23845337.855
  23695223.836   -10163731.31049  -7905378.93445  23695223.438    23695229.538
  24413122.746    -3065651.23949  -2067939.42945  24413122.187    24413132.618
  22098718.875   -12348478.66949  -9593534.09446  22098718.915    22098725.991
  20277154.353   -11191603.57149  -8711781.95747  20277154.078    20277159.565
  20779278.952   -11387472.63949  -8860301.54747  20779278.255    20779284.486
  20993704.254   -17276553.80749 -13447898.72647  20993703.741    20993708.233
  22394835.642   -16060023.27249 -12144269.29846  22394835.048    22394841.146
  23332861.798    11390779.43349   8895617.34945  23332860.957    23332868.284
  22739534.849   -11303685.72849  -8551370.94346  22739534.628    22739541.312
  23424362.643   -10807489.38049  -8143958.23245  23424361.902    23424370.033
 03  6  8 16 49  0.0000000  0 11G30G16G23G26G 6G17G21G18G10G29G15
  23865135.632    16127149.40749  12569152.74845  23865135.800    23865144.041
  23685936.420   -10212536.91349  -7943409.29045  23685936.117    23685942.257
  24393964.170    -3166330.58549  -2146390.82045  24393963.500    24393973.867
  22087050.451   -12409796.32149  -9641314.01946  22087050.493    22087057.564
  20279126.608   -11181239.26749  -8703705.89047  20279126.333    20279131.809
  20777744.878   -11395534.36249  -8866583.42147  20777744.187    20777750.403
  20987433.355   -17309507.65049 -13473577.04547  20987432.793    20987437.296
  22377917.105   -16148930.05149 -12213547.25646  22377916.621    22377922.663
  23352005.942    11491382.00049   8974008.87645  23352005.083    23352012.398
  22736958.119   -11317226.76549  -8561922.37546  22736957.901    22736964.475
  23410003.038   -10882948.77649  -8202757.72245  23410002.383    23410010.491
 03  6  8 16 49 30.0000000  0 11G30G16G23G26G 6G17G21G18G10G29G15
  23884946.931    16231258.02849  12650276.18645  23884947.095    23884955.390
  23676744.245   -10260842.47349  -7981049.99545  23676743.941    23676750.064
  24374837.286    -3266843.87049  -2224712.81845  24374836.501    24374846.940
  22075473.230   -12470635.04049  -9688720.76946  22075473.268    22075480.320
  20281188.724   -11170402.88749  -8695261.97647  20281188.435    20281193.937
  20776248.427   -11403398.37749  -8872711.23747  20776247.733    20776253.935
  20981201.312   -17342257.58049 -13499096.47247  20981200.707    20981205.222
  22361056.022   -16237535.95349 -12282590.75446  22361055.434    22361061.448
  23371180.085    11592142.22449   9052523.25345  23371179.199    23371186.562
  22734481.904   -11330239.50549  -8572062.16046  22734481.686    22734488.215
  23395662.438   -10958309.65449  -8261480.43545  23395661.721    23395669.756
 03  6  8 16 50  0.0000000  0 11G30G16G23G26G 6G17G21G18G10G29G15
  23904762.718    16335389.61749  12731417.52645  23904762.857    23904771.132
  23667647.430   -10308647.55249  -8018300.70445  23667646.879    23667653.145
  24355742.090    -3367190.03649  -2302904.61245  24355741.360    24355751.596
  22063987.507   -12530992.82649  -9735752.74946  22063987.490    22063994.637
  20283340.632   -11159094.60049  -8686450.34147  20283340.366    20283345.852
  20774789.344   -11411065.88249  -8878685.93447  20774788.653    20774794.853
  20975007.882   -17374804.29249 -13524457.54447  20975007.285    20975011.778
  22344252.233   -16325840.19249 -12351399.20146  22344251.667    22344257.676
  23390383.533    11693056.63549   9131157.76045  23390382.615    23390390.003
  22732106.185   -11342723.65349  -8581790.04346  22732105.991    22732112.565
  23381340.180   -11033572.86549  -8320127.04145  23381339.585    23381347.656
 03  6  8 16 50 30.0000000  0 11G30G16G23G26G 6G17G21G18G10G29G15
  23924582.403    16439542.36249  12812575.31545  23924582.586    23924590.878
  23658646.131   -10355949.69849  -8055159.52545  23658645.551    23658651.895
  24336678.997    -3467366.46649  -2380964.14445  24336678.478    24336688.431
  22052593.977   -12590865.82349  -9782406.97146  22052593.987    22052601.175
  20285582.631   -11147313.04849  -8677269.93047  20285582.354    20285587.850
  20773367.808   -11418536.02349  -8884506.83647  20773367.137    20773373.346
  20968853.263   -17407147.16449 -13549659.78547  20968852.665    20968857.136
  22327506.263   -16413840.51649 -12419970.83446  22327505.720    22327511.691
  23409616.082    11794123.56949   9209911.11345  23409615.100    23409622.485
  22729831.412   -11354677.72449  -8591104.88846  22729831.165    22729837.737
  23367036.687   -11108737.53649  -8378696.86545  23367036.138    23367044.229
 03  6  8 16 51  0.0000000  0 11G30G16G23G26G 6G17G21G18G10G29G15
  23944405.657    16543713.03749  12893747.09345  23944405.733    23944414.048
  23649740.645   -10402748.11249  -8091625.81945  23649740.066    23649746.468
  24317648.530    -3567371.77549  -2458890.28545  24317648.013    24317657.935
  22041293.316   -12650251.23949  -9828681.27646  22041293.370    22041300.444
  20287914.710   -11135058.02449  -8667720.57447  20287914.419    20287919.923
  20771983.692   -11425809.59449  -8890174.56847  20771983.035    20771989.262
  20962737.368   -17439286.58549 -13574703.49147  20962736.739    20962741.208
  22310818.381   -16501535.61249 -12488304.62546  22310817.822    22310823.808
  23428877.079    11895340.09849   9288781.02745  23428876.056    23428883.556
  22727657.663   -11366100.75449  -8600005.93846  22727657.430    22727663.952
  23352752.123   -11183803.68849  -8437189.93945  23352751.546    23352759.516
 03  6  8 16 51 30.0000000  0 11G30G16G23G26G 6G17G21G18G10G29G15
  23964231.526    16647898.67949  12974930.51145  23964231.668    23964240.140
  23640931.345   -10449041.44749  -8127698.54745  23640930.734    23640937.210
  24298651.134    -3667204.31349  -2536681.80045  24298650.474    24298660.336
  22030085.941   -12709146.42449  -9874573.57346  22030085.919    22030092.928
  20290336.987   -11122328.95349  -8657801.83647  20290336.702    20290342.188
  20770636.955   -11432887.14749  -8895689.55647  20770636.248    20770642.489
  20956660.197   -17471222.58049 -13599588.68247  20956659.516    20956663.962
  22294188.818   -16588924.08649 -12556399.48346  22294188.295    22294194.314
  23448165.992    11996703.75449   9367765.60245  23448164.973    23448172.421
  22725585.147   -11376991.97549  -8608492.59946  22725584.935    22725591.345
  23338486.284   -11258771.38349  -8495606.27845  23338485.653    23338493.580
 03  6  8 16 52  0.0000000  0 11G30G16G23G26G 6G17G21G18G10G29G15
  23984060.059    16752097.90949  13056124.53245  23984060.131    23984068.794
  23632218.587   -10494827.13749  -8163375.70745  23632218.006    23632224.430
  24279687.264    -3766860.89349  -2614336.18245  24279686.473    24279696.283
  22018972.617   -12767547.03349  -9920080.49046  22018972.592    22018979.607
  20292849.859   -11109123.89449  -8647512.19947  20292849.583    20292855.055
  20769327.797   -11439766.79849  -8901050.33847  20769327.104    20769333.330
  20950622.044   -17502953.62249 -13624314.17147  20950621.317    20950625.756
  22277618.257   -16676002.84449 -12624253.01446  22277617.726    22277623.750
  23467482.647    12098213.29149   9446863.84245  23467481.650    23467489.144
  22723614.212   -11387349.11249  -8616563.08846  22723613.980    22723620.413
  23324239.301   -11333639.43149  -8553944.97445  23324238.686    23324246.600
 03  6  8 16 52 30.0000000  0 11G30G16G23G26G 6G17G21G18G10G29G15
  24003890.076    16856304.96649  13137324.65545  24003890.222    24003898.839
  23623602.028   -10540106.24949  -8198658.12845  23623601.651    23623608.075
  24260756.494    -3866342.45449  -2691854.18145  24260755.728    24260765.451
  22007953.487   -12825452.86149  -9965201.88246  22007953.481    22007960.433
  20295452.875   -11095444.84749  -8636853.22047  20295452.600    20295458.088
  20768055.738   -11446451.56349  -8906259.26247  20768055.055    20768061.266
  20944622.206   -17534482.71749 -13648882.30247  20944621.520    20944625.943
  22261106.344   -16762773.22749 -12691866.24546  22261105.807    22261111.841
  23486826.112    12199863.46849   9526071.66645  23486825.159    23486832.725
  22721744.645   -11397173.99349  -8624218.82846  22721744.443    22721750.857
  23310010.995   -11408410.21449  -8612207.87445  23310010.216    23310018.131
 03  6  8 16 53  0.0000000  0 11G30G16G23G26G 6G17G21G18G10G29G15
  24023721.415    16960519.01049  13218530.25145  24023721.664    24023730.244
  23615082.560   -10584875.88949  -8233543.56745  23615082.259    23615088.640
  24241859.574    -3965645.47849  -2769233.06645  24241858.950    24241868.570
  21997029.320   -12882859.21549 -10009934.05546  21997029.314    21997036.324
  20298146.563   -11081289.50049  -8625823.09647  20298146.286    20298151.771
  20766820.990   -11452940.25349  -8911315.39647  20766820.309    20766826.525
  20938661.222   -17565807.83549 -13673291.48747  20938660.547    20938664.991
  22244653.784   -16849231.72649 -12759236.45246  22244653.257    22244659.282
  23506196.175    12301653.64149   9605388.59945  23506195.159    23506202.859
  22719976.834   -11406463.92949  -8631457.72746  22719976.618    22719983.036
  23295801.333   -11483081.68749  -8670393.38945  23295800.623    23295808.610
 03  6  8 16 53 30.0000000  0 11G30G16G23G26G 6G17G21G18G10G29G15
  24043553.572    17064737.15549  13299739.02045  24043553.784    24043562.310
  23606660.401   -10629134.91649  -8268031.11445  23606660.019    23606666.468
  24222997.045    -4064768.30349  -2846471.53745  24222996.379    24223006.162
  21986200.912   -12939763.28949 -10054274.85446  21986200.909    21986207.759
  20300930.966   -11066657.36049  -8614421.44747  20300930.688    20300936.183
  20765623.562   -11459232.73149  -8916218.63747  20765622.889    20765629.098
  20932739.039   -17596929.05349 -13697541.79447  20932738.397    20932742.806
  22228260.923   -16935376.78549 -12826362.42446  22228260.376    22228266.380
  23525592.423    12403581.07549   9684812.47745  23525591.381    23525599.057
  22718310.853   -11415218.16549  -8638279.20646  22718310.700    22718317.089
  23281610.589   -11557654.10649  -8728501.72645  23281609.927    23281617.923
 03  6  8 16 54  0.0000000  0 11G30G16G23G26G 6G17G21G18G10G29G15
  24063386.065    17168956.29049  13380948.55345  24063386.085    24063394.719
  23598335.572   -10672882.46549  -8302120.10645  23598335.153    23598341.545
  24204169.172    -4163709.48749  -2923568.45045  24204168.513    24204178.150
  21975468.529   -12996162.48349 -10098222.25046  21975468.510    21975475.252
  20303806.164   -11051548.25249  -8602648.13447  20303805.888    20303811.379
  20764463.469   -11465329.19149  -8920969.14347  20764462.792    20764469.003
  20926855.613   -17627846.51249 -13721633.33247  20926855.020    20926859.426
  22211927.927   -17021207.10149 -12893243.14246  22211927.393    22211933.344
  23545014.194    12505643.10249   9764341.22545  23545013.166    23545020.913
  22716747.079   -11423436.01649  -8644682.71446  22716746.893    22716753.264
  23267438.718   -11632127.64749  -8786533.01445  23267438.017    23267446.036
 03  6  8 16 54 30.0000000  0 11G30G16G23G26G 6G17G21G18G10G29G15
  24083218.222    17273173.65649  13462156.72445  24083218.145    24083226.733
  23590108.424   -10716117.21249  -8335809.51345  23590107.888    23590114.278
  24185376.137    -4262467.11749  -3000522.31845  24185375.314    24185385.018
  21964832.751   -13052053.70549 -10141773.80046  21964832.733    21964839.563
  20306772.262   -11035961.49849  -8590502.62947  20306771.974    20306777.462
  20763340.695   -11471229.60949  -8925566.88747  20763339.969    20763346.221
  20921010.985   -17658560.26949 -13745566.13747  20921010.386    20921014.795
  22195655.153   -17106721.41049 -12959877.62946  22195654.568    22195660.421
  23564461.167    12607837.16049   9843972.85545  23564460.084    23564467.884
  22715285.472   -11431116.72149  -8650667.66946  22715285.225    22715291.640
  23253285.717   -11706502.06449  -8844487.07845  23253285.046    23253293.005
 03  6  8 16 55  0.0000000  0 11G30G16G23G26G 6G17G21G18G10G29G15
  24103049.263    17377386.47749  13543361.31745  24103049.236    24103058.034
  23581979.031   -10758837.78149  -8369098.26845  23581978.437    23581984.865
  24166618.141    -4361039.52349  -3077331.83645  24166617.429    24166627.408
  21954294.223   -13107434.49949 -10184927.64646  21954294.228    21954300.899
  20309829.326   -11019896.49649  -8577984.45747  20309829.048    20309834.555
  20762255.090   -11476934.43049  -8930012.22047  20762254.400    20762260.654
  20915205.138   -17689070.30249 -13769340.19247  20915204.505    20915208.948
  22179442.703   -17191917.80349 -13026264.37046  22179442.171    22179448.032
  23583932.797    12710160.83249   9923705.46945  23583931.714    23583939.524
  22713926.132   -11438259.51949  -8656233.48546  22713925.897    22713932.453
  23239151.625   -11780777.27349  -8902363.82545  23239150.910    23239158.784
 03  6  8 16 55 30.0000000  0 11G30G16G23G26G 6G17G21G18G10G29G15
  24122879.385    17481592.84149  13624560.88145  24122879.398    24122888.018
  23573947.823   -10801042.07649  -8401984.73445  23573947.296    23573953.644
  24147896.180    -4459424.28649  -3153995.18345  24147895.550    24147905.183
  21943853.502   -13162301.01849 -10227680.75646  21943853.467    21943860.061
  20312977.672   -11003351.96149  -8565092.62947  20312977.398    20312982.910
  20761206.838   -11482443.14649  -8934304.74847  20761206.136    20761212.409
  20909438.191   -17719375.61949 -13792954.73747  20909437.588    20909442.017
  22163291.261   -17276794.02449 -13092401.64946  22163290.723    22163296.596
  23603428.635    12812612.44549  10003537.80845  23603427.647    23603435.516
  22712669.550   -11444862.76749  -8661378.86146  22712669.336    22712675.908
  23225036.468   -11854952.29149  -8960162.50845  23225035.852    23225043.743
 03  6  8 16 56  0.0000000  0 11G30G16G23G26G 6G17G21G18G10G29G15
  24142707.547    17585789.03449  13705752.54245  24142707.431    24142716.156
  23566014.756   -10842730.05649  -8434468.87545  23566014.258    23566020.724
  24129209.727    -4557620.63949  -3230511.70245  24129209.386    24129219.027
  21933510.915   -13216651.40549 -10270031.67446  21933510.926    21933517.574
  20316217.154   -10986328.43249  -8551827.56347  20316216.866    20316222.390
  20760195.672   -11487756.76249  -8938445.24647  20760194.986    20760201.244
  20903710.124   -17749476.90849 -13816410.29347  20903709.503    20903713.947
  22147200.821   -17361349.63349 -13158289.08946  22147200.263    22147206.159
  23622948.303    12915188.65649  10083467.22345  23622947.314    23622955.183
  22711515.605   -11450926.50349  -8666103.84946  22711515.445    22711521.969
  23210940.373   -11929028.04749  -9017883.84945  23210939.691    23210947.547
 03  6  8 16 56 30.0000000  0 11G30G16G23G26G 6G17G21G18G10G29G15
  24162533.023    17689972.45849  13786934.23745  24162533.106    24162541.815
  23558180.344   -10883900.39249  -8466549.65545  23558179.832    23558186.306
  24110559.795    -4655626.49249  -3306879.79145  24110559.428    24110569.046
  21923267.220   -13270482.63049 -10311978.07046  21923267.198    21923273.790
  20319547.882   -10968825.36449  -8538188.82947  20319547.600    20319553.146
  20759221.792   -11492874.58549  -8942433.17947  20759221.110    20759227.366
  20898020.993   -17779373.68249 -13839706.48447  20898020.372    20898024.810
  22131171.783   -17445582.64049 -13223925.14946  22131171.249    22131177.121
  23642491.282    13017887.23849  10163491.98945  23642490.294    23642498.106
  22710464.545   -11456449.90249  -8670407.80646  22710464.403    22710470.931
  23196863.197   -12003004.19049  -9075527.56145  23196862.516    23196870.358
 03  6  8 16 57  0.0000000  0 11G30G16G23G26G 6G17G21G18G10G29G15
  24182355.715    17794140.43949  13868103.89745  24182355.773    24182364.383
  23550444.457   -10924551.63149  -8498225.95645  23550444.156    23550450.577
  24091946.531    -4753440.13449  -3383098.09145  24091945.943    24091955.548
  21913122.756   -13323791.92349 -10353517.75046  21913122.721    21913129.353
  20322969.953   -10950842.21049  -8524176.00047  20322969.701    20322975.233
  20758285.078   -11497797.29149  -8946269.07447  20758284.399    20758290.625
  20892370.753   -17809066.04949 -13862843.40247  20892370.113    20892374.557
  22115204.370   -17529491.57249 -13289308.69346  22115203.863    22115209.690
  23662057.140    13120705.84049  10243610.30045  23662056.129    23662063.981
  22709516.431   -11461432.18149  -8674290.09246  22709516.279    22709522.905
  23182805.047   -12076880.30849  -9133093.34345  23182804.399    23182812.152
 03  6  8 16 57 30.0000000  0 11G30G16G23G26G 6G17G21G18G10G29G15
  24202174.874    17898289.41649  13949258.77545  24202174.873    24202183.449
  23542807.526   -10964683.69949  -8529497.69345  23542807.264    23542813.562
  24073369.788    -4851060.75949  -3459165.99545  24073369.273    24073378.900
  21903077.981   -13376577.43449 -10394649.28946  21903077.945    21903084.665
  20326483.295   -10932379.50949  -8509789.49947  20326483.029    20326488.578
  20757385.295   -11502525.93249  -8949953.74547  20757384.602    20757390.833
  20886759.176   -17838555.08249 -13885821.87747  20886758.538    20886762.979
  22099298.796   -17613075.86149 -13354439.26746  22099298.304    22099304.099
  23681645.179    13223641.19049  10323819.58345  23681644.179    23681652.043
  22708671.215   -11465873.65449  -8677750.98246  22708671.104    22708677.729
  23168765.716   -12150657.42849  -9190581.96245  23168765.028    23168772.772
 03  6  8 16 58  0.0000000  0 11G30G16G23G26G 6G17G21G18G10G29G15
  24221990.076    18002418.61049  14030398.21645  24221990.095    24221998.879
  23535270.316   -11004293.21349  -8560362.23645  23535269.772    23535276.145
  24054830.668    -4948484.47249  -3535080.49845  24054830.178    24054839.772
  21893133.784   -13428834.37949 -10435368.96546  21893133.729    21893140.445
  20330088.401   -10913434.61849  -8495027.27047  20330088.123    20330093.682
  20756522.873   -11507058.21149  -8953485.40947  20756522.159    20756528.392
  20881186.783   -17867838.30749 -13908639.98047  20881186.146    20881190.594
  22083455.652   -17696332.01249 -13419314.13946  22083455.142    22083460.918
  23701255.315    13326693.04049  10404119.62845  23701254.353    23701262.224
  22707929.582   -11469771.39749  -8680788.19446  22707929.428    22707936.039
  23154745.649   -12224333.21949  -9247991.64145  23154744.964    23154752.692
 03  6  8 16 58 30.0000000  0 11G30G16G23G26G 6G17G21G18G10G29G15
  24241800.734    18106523.94349  14111519.03845  24241800.910    24241809.686
  23527832.135   -11043380.82849  -8590820.12045  23527831.681    23527838.041
  24036328.965    -5045711.22249  -3610841.51745  24036328.566    24036337.926
  21883290.386   -13480561.46049 -10475675.77446  21883290.353    21883297.055
  20333785.089   -10894008.50949  -8479890.06747  20333784.824    20333790.376
  20755697.505   -11511395.35449  -8956865.02447  20755696.840    20755703.083
  20875653.198   -17896917.25449 -13931298.91547  20875652.626    20875657.047
  22067674.908   -17779260.14749 -13483933.43346  22067674.387    22067680.166
  23720886.817    13429857.03849  10484507.06645  23720885.872    23720893.836
  22707291.224   -11473126.11649  -8683402.27346  22707291.030    22707297.538
  23140744.602   -12297909.04049  -9305323.41745  23140743.857    23140751.668
 03  6  8 16 59  0.0000000  0 11G30G16G23G26G 6G17G21G18G10G29G15
  24261606.486    18210602.83849  14192619.24945  24261606.618    24261615.520
  23520493.654   -11081944.97449  -8620870.12145  23520493.241    23520499.543
  24017865.246    -5142738.88549  -3686447.41845  24017864.788    24017873.998
  21873548.492   -13531755.65449 -10515567.35046  21873548.427    21873555.094
  20337573.484   -10874100.45249  -8464377.31847  20337573.201    20337578.767
  20754909.316   -11515537.44249  -8960092.64547  20754908.636    20754914.864
  20870158.646   -17925791.53949 -13953798.36847  20870158.040    20870162.468
  22051956.998   -17861858.26449 -13548295.56946  22051956.468    22051962.259
  23740539.381    13533131.59849  10564980.66545  23740538.397    23740546.444
  22706756.303   -11475937.10449  -8685592.66546  22706756.120    22706762.671
  23126762.687   -12371384.46049  -9362576.96045  23126761.896    23126769.700
 03  6  8 16 59 30.0000000  0 11G30G16G23G26G 6G17G21G18G10G29G15
  24281406.620    18314652.73049  14273696.84945  24281406.782    24281415.804
  23513255.080   -11119984.79949  -8650511.52145  23513254.463    23513260.833
  23999439.711    -5239565.79849  -3761896.87645  23999439.234    23999448.448
  21863908.403   -13582414.24349 -10555041.54946  21863908.352    21863915.139
  20341453.655   -10853710.10649  -8448488.76747  20341453.385    20341458.961
  20754158.191   -11519484.85949  -8963168.57447  20754157.486    20754163.716
  20864703.059   -17954461.04749 -13976138.24747  20864702.407    20864706.847
  22036302.153   -17944124.96249 -13612399.45046  22036301.616    22036307.376
  23760212.393    13636514.28149  10645538.47345  23760211.438    23760219.632
  22706325.054   -11478203.66849  -8687358.82846  22706324.839    22706331.264
  23112799.777   -12444759.44849  -9419752.25545  23112799.032    23112806.843
 03  6  8 17  0  0.0000000  0 11G30G16G23G26G 6G17G21G18G10G29G15
  24301200.777    18418670.90649  14354749.75545  24301200.949    24301210.009
  23506116.419   -11157499.22649  -8679743.55145  23506115.704    23506122.047
  23981052.533    -5336190.20949  -3837188.55145  23981052.103    23981061.423
  21854370.698   -13632534.64149 -10594096.39246  21854370.714    21854377.488
  20345425.654   -10832837.11649  -8432224.12947  20345425.395    20345430.973
  20753444.140   -11523237.17849  -8966092.47647  20753443.460    20753449.705
  20859286.360   -17982925.87849 -13998318.64247  20859285.747    20859290.211
  22020710.585   -18026058.91749 -13676244.05046  22020710.069    22020715.834
  23779905.666    13740002.34649  10726178.42945  23779904.594    23779912.828
  22705997.458   -11479925.14949  -8688700.25746  22705997.225    22706003.731
  23098856.224   -12518033.73849  -9476849.05745  23098855.416    23098863.168
 03  6  8 17  0 30.0000000  0 11G30G16G23G26G 6G17G21G18G10G29G15
  24320988.206    18522654.33349  14435775.57545  24320988.360    24320997.615
  23499077.629   -11194487.29149  -8708565.43045  23499077.077    23499083.455
  23962704.211    -5432610.86249  -3912321.46245  23962703.796    23962713.007
  21844935.998   -13682114.40949 -10632729.95746  21844935.955    21844942.643
  20349489.486   -10811481.54749  -8415583.43847  20349489.242    20349494.822
  20752767.017   -11526795.40349  -8968865.13047  20752766.349    20752772.605
  20853908.675   -18011185.78749 -14020339.35347  20853908.070    20853912.521
  22005182.625   -18107658.79549 -13739828.32347  22005182.090    22005187.834
  23799618.541    13843593.36249  10806898.62945  23799617.527    23799625.610
  22705773.532   -11481101.52749  -8689616.91446  22705773.310    22705779.901
  23084931.512   -12591207.39049  -9533867.44145  23084930.825    23084938.668
 03  6  8 17  1  0.0000000  0 11G30G16G23G26G 6G17G21G18G10G29G15
  24340768.699    18626601.07849  14516772.81445  24340768.796    24340778.354
  23492139.407   -11230947.53749  -8736975.98945  23492138.911    23492145.269
  23944395.112    -5528825.40049  -3987293.72745  23944394.691    23944403.804
  21835604.781   -13731150.41049 -10670939.81046  21835604.696    21835611.357
  20353645.391   -10789642.33949  -8398565.89247  20353645.125    20353650.719
  20752127.219   -11530157.72749  -8971485.13447  20752126.522    20752132.795
  20848570.190   -18039239.66449 -14042199.51747  20848569.596    20848574.034
  21989718.644   -18188922.64049 -13803150.76047  21989718.095    21989723.820
  23819350.611    13947285.73849  10887697.77745  23819349.567    23819357.770
  22705653.635   -11481731.47549  -8690107.79246  22705653.433    22705660.033
  23071026.261   -12664279.77349  -9590806.89545  23071025.561    23071033.455
 03  6  8 17  1 30.0000000  0 11G30G16G23G26G 6G17G21G18G10G29G15
  24360541.368    18730507.57149  14597738.69845  24360541.717    24360551.315
  23485301.579   -11266879.74849  -8764975.10345  23485301.204    23485307.575
  23926125.493    -5624832.95549  -4062104.74545  23926124.929    23926134.178
  21826377.256   -13779640.89249 -10708724.57146  21826377.194    21826383.891
  20357893.192   -10767320.07249  -8381171.93747  20357892.914    20357898.548
  20751524.432   -11533325.45549  -8973953.50847  20751523.769    20751530.033
  20843270.727   -18067088.69549 -14063900.05947  20843270.104    20843274.531
  21974318.663   -18269849.64149 -13866210.71147  21974318.146    21974323.871
  23839101.262    14051076.22549  10968573.40245  23839100.324    23839108.539
  22705637.749   -11481815.28049  -8690173.10946  22705637.524    22705644.066
  23057140.292   -12737251.49449  -9647667.92745  23057139.545    23057147.377
 03  6  8 17  2  0.0000000  0 11G30G16G23G26G 6G17G21G18G10G29G15
  24380306.166    18834371.96649  14678671.76845  24380306.574    24380316.365
  23478564.611   -11302282.19549  -8792561.43945  23478564.388    23478570.755
  23907895.659    -5720631.09049  -4136752.57245  23907895.069    23907904.326
  21817254.247   -13827582.26549 -10746081.47446  21817254.259    21817260.925
  20362233.123   -10744513.63149  -8363400.70747  20362232.860    20362238.488
  20750958.713   -11536298.37549  -8976270.08147  20750958.031    20750964.320
  20838010.376   -18094731.86349 -14085440.18847  20838009.766    20838014.197
  21958983.330   -18350437.61149 -13929006.49047  21958982.733    21958988.464
  23858870.431    14154963.29949  11049524.27245  23858869.508    23858877.567
  22705725.920   -11481351.72449  -8689811.89446  22705725.713    22705732.272
  23043273.569   -12810121.83749  -9704449.97445  23043272.714    23043280.577
 03  6  8 17  2 30.0000000  0 11G30G16G23G26G 6G17G21G18G10G29G15
  24400062.439    18938190.73049  14759569.24845  24400062.827    24400072.528
  23471928.658   -11337154.82149  -8819734.91145  23471928.372    23471934.821
  23889705.648    -5816219.04149  -4211236.62245  23889705.231    23889714.285
  21808236.165   -13874973.06349 -10783009.36246  21808236.142    21808242.733
  20366665.076   -10721223.65049  -8345252.69647  20366664.811    20366670.445
  20750429.954   -11539077.09749  -8978435.33447  20750429.297    20750435.560
  20832789.116   -18122169.56849 -14106820.22347  20832788.550    20832792.981
  21943712.508   -18430686.04949 -13991537.70147  21943711.934    21943717.639
  23878657.456    14258943.88149  11130548.01545  23878656.470    23878664.455
  22705918.284   -11480340.96049  -8689024.29546  22705918.060    22705924.698
  23029426.037   -12882891.18049  -9761153.30045  23029425.131    23029432.982
 03  6  8 17  3  0.0000000  0 11G30G16G23G26G 6G17G21G18G10G29G15
  24419809.761    19041961.67049  14840429.48145  24419809.906    24419819.568
  23465393.734   -11371496.15149  -8846494.38745  23465393.416    23465399.897
  23871556.228    -5911594.72349  -4285555.23745  23871555.756    23871565.003
  21799323.343   -13921810.12949 -10819505.74946  21799323.312    21799329.872
  20371189.169   -10697449.34149  -8326727.28447  20371188.929    20371194.573
  20749938.251   -11541661.16249  -8980448.89747  20749937.537    20749943.853
  20827606.990   -18149402.09249 -14128040.37147  20827606.368    20827610.801
  21928506.618   -18510593.18949 -14053802.96247  21928506.091    21928511.772
  23898461.843    14363016.12249  11211643.18545  23898460.859    23898468.870
  22706214.905   -11478782.28049  -8687809.76646  22706214.705    22706221.284
  23015597.814   -12955559.00749  -9817777.52845  23015596.904    23015604.734
 03  6  8 17  3 30.0000000  0 11G30G16G23G26G 6G17G21G18G10G29G15
  24439547.636    19145681.95549  14921250.30545  24439547.524    24439557.104
  23458960.159   -11405305.67149  -8872839.45845  23458959.671    23458966.137
  23853447.415    -6006756.62349  -4359707.26245  23853446.923    23853456.091
  21790516.361   -13968091.10949 -10855568.83446  21790516.349    21790522.919
  20375805.474   -10673190.54149  -8307824.34247  20375805.224    20375810.894
  20749483.439   -11544051.07749  -8982311.18147  20749482.772    20749489.086
  20822463.994   -18176428.66649 -14149100.03947  20822463.389    20822467.835
  21913365.997   -18590157.56749 -14115801.12947  21913365.443    21913371.100
  23918283.094    14467177.36949  11292807.70945  23918282.148    23918290.350
  22706615.836   -11476675.47049  -8686168.09246  22706615.647    22706622.240
  23001788.806   -13028125.24549  -9874322.61045  23001787.984    23001795.772
 03  6  8 17  4  0.0000000  0 11G30G16G23G26G 6G17G21G18G10G29G15
  24459274.991    19249348.98449  15002029.58645  24459274.866    24459284.599
  23452627.745   -11438582.37749  -8898769.36545  23452627.274    23452633.753
  23835379.774    -6101702.98349  -4433691.38645  23835379.271    23835388.272
  21781815.691   -14013813.61149 -10891196.75146  21781815.643    21781822.164
  20380514.020   -10648447.05849  -8288543.73447  20380513.774    20380519.430
  20749065.753   -11546246.17949  -8984021.66047  20749065.061    20749071.397
  20817360.171   -18203249.73549 -14169999.57447  20817359.542    20817363.987
  21898290.757   -18669378.19749 -14177531.45047  21898290.259    21898295.908
  23938120.866    14571425.43149  11374039.86445  23938119.994    23938128.298
  22707121.196   -11474020.08549  -8684098.97946  22707121.027    22707127.568
  22987999.176   -13100589.79849  -9930788.44645  22987998.360    22988006.184
 03  6  8 17  4 30.0000000  0 11G30G16G23G26G 6G17G21G18G10G29G15
  24478991.803    19352960.65049  15082765.72145  24478991.756    24479001.417
  23446396.911   -11471325.01849  -8924283.12145  23446396.528    23446403.075
  23817353.277    -6196431.72449  -4507505.91745  23817352.820    23817361.788
  21773221.804   -14058974.61849 -10926387.12346  21773221.762    21773228.343
  20385314.956   -10623218.18749  -8268884.90147  20385314.700    20385320.354
  20748685.136   -11548246.25849  -8985580.17947  20748684.475    20748690.813
  20812295.546   -18229864.37249 -14190738.25847  20812294.948    20812299.396
  21883281.292   -18748253.18649 -14238992.43747  21883280.790    21883286.461
  23957974.958    14675758.41949  11455338.23045  23957973.950    23957982.249
  22707731.044   -11470815.28749  -8681601.74046  22707730.865    22707737.451
  22974228.997   -13172951.83249  -9987174.39145  22974228.253    22974236.076
 03  6  8 17  5  0.0000000  0 11G30G16G23G26G 6G17G21G18G10G29G15
  24498697.501    19456513.98049  15163456.40945  24498697.444    24498707.148
  23440268.018   -11503532.94949  -8949380.19245  23440267.491    23440274.105
  23799368.627    -6290941.59849  -4581149.87145  23799368.030    23799377.134
  21764735.220   -14103571.86549 -10961138.21346  21764735.207    21764741.735
  20390208.241   -10597504.13149  -8248848.00847  20390207.973    20390213.611
  20748341.684   -11550051.31349  -8986986.73047  20748340.982    20748347.350
  20807270.254   -18256272.58649 -14211316.08247  20807269.637    20807274.084
  21868337.806   -18826781.42049 -14300183.22447  21868337.325    21868343.006
  23977844.549    14780173.83749  11536700.80545  23977843.635    23977851.874
  22708445.513   -11467060.81849  -8678676.19746  22708445.350    22708451.960
  22960478.423   -13245211.53649 -10043480.60846  22960477.682    22960485.522
 03  6  8 17  5 30.0000000  0 11G30G16G23G26G 6G17G21G18G10G29G15
  24518391.412    19560005.52349  15244098.98645  24518391.360    24518401.115
  23434240.700   -11535206.11149  -8974060.58545  23434240.273    23434246.842
  23781425.916    -6385231.91449  -4654622.74945  23781425.232    23781434.259
  21756356.269   -14147603.92949 -10995448.88146  21756356.228    21756362.840
  20395193.646   -10571305.65349  -8228433.63047  20395193.371    20395199.011
  20748035.144   -11551662.18949  -8988241.97147  20748034.445    20748040.814
  20802284.167   -18282474.75349 -14231733.35347  20802283.549    20802287.964
  21853460.486   -18904962.14149 -14361103.21447  21853459.974    21853465.692
  23997729.173    14884668.76549  11618125.32545  23997728.378    23997736.709
  22709264.555   -11462757.33749  -8675322.84846  22709264.334    22709270.865
  22946747.193   -13317369.57949 -10099707.60246  22946746.418    22946754.305
 03  6  8 17  6  0.0000000  0 11G30G16G23G26G 6G17G21G18G10G29G15
  24538073.421    19663433.78949  15324692.22545  24538073.355    24538083.016
  23428315.579   -11566342.73649  -8998322.91045  23428315.225    23428321.700
  23763525.310    -6479299.87949  -4727922.37745  23763524.624    23763533.682
  21748085.427   -14191067.18349 -11029316.33746  21748085.424    21748092.025
  20400271.531   -10544621.18549  -8207640.56547  20400271.256    20400276.935
  20747765.705   -11553078.08849  -8989345.28847  20747765.021    20747771.379
  20797337.360   -18308470.30149 -14251989.62747  20797336.733    20797341.182
  21838649.710   -18982793.00549 -14421750.60647  21838649.198    21838654.916
  24017629.030    14989242.20849  11699611.05445  24017628.232    24017636.421
  22710188.230   -11457903.40849  -8671540.58746  22710188.054    22710194.575
  22933035.533   -13389424.59249 -10155854.32446  22933034.761    22933042.605
 03  6  8 17  6 30.0000000  0 11G30G16G23G26G 6G17G21G18G10G29G15
  24557742.679    19766795.35949  15405233.53345  24557742.559    24557752.284
  23422492.720   -11596942.76849  -9022167.09845  23422492.276    23422498.774
  23745667.178    -6573144.73049  -4801048.14945  23745666.487    23745675.509
  21739923.084   -14233960.06349 -11062739.33846  21739923.105    21739929.682
  20405441.782   -10517451.33649  -8186469.27847  20405441.517    20405447.204
  20747533.205   -11554299.96749  -8990297.41147  20747532.512    20747538.869
  20792429.882   -18334259.39949 -14272085.02647  20792429.251    20792433.695
  21823905.672   -19060273.46849 -14482124.94947  21823905.145    21823910.812
  24037543.108    15093890.70749  11781155.24945  24037542.206    24037550.484
  22711216.600   -11452499.54649  -8667329.80146  22711216.392    22711222.911
  22919343.296   -13461377.28649 -10211921.31146  22919342.519    22919350.455
 03  6  8 17  7  0.0000000  0 11G30G16G23G26G 6G17G21G18G10G29G15
  24577398.884    19870088.09849  15485721.19445  24577398.641    24577408.381
  23416772.115   -11627005.30449  -9045592.46045  23416771.506    23416778.012
  23727851.801    -6666764.42149  -4873998.47745  23727851.121    23727860.232
  21731869.904   -14276279.75049 -11095715.69646  21731869.900    21731876.617
  20410704.537   -10489795.56549  -8164919.36047  20410704.273    20410709.974
  20747337.682   -11555327.63349  -8991098.20447  20747336.997    20747343.337
  20787561.803   -18359841.34149 -14292019.01047  20787561.181    20787565.611
  21809228.524   -19137401.95049 -14542225.01847  21809228.045    21809233.703
  24057471.096    15198612.70349  11862756.70945  24057470.240    24057478.533
  22712349.727   -11446545.05349  -8662689.94546  22712349.558    22712356.025
  22905670.652   -13533227.09649 -10267908.11846  22905669.915    22905677.835
 03  6  8 17  7 30.0000000  0 11G30G16G23G26G 6G17G21G18G10G29G15
  24597041.197    19973309.60949  15566153.30545  24597041.252    24597050.912
  23411153.915   -11656529.42449  -9068598.28345  23411153.335    23411159.735
  23710079.619    -6760157.25749  -4946772.01645  23710078.994    23710088.061
  21723926.251   -14318023.85549 -11128243.54446  21723926.199    21723932.911
  20416059.756   -10461653.74349  -8142990.70147  20416059.496    20416065.185
  20747179.249   -11556160.24549  -8991747.00647  20747178.577    20747184.897
  20782733.148   -18385216.23049 -14311791.65247  20782732.524    20782736.952
  21794618.755   -19214176.90649 -14602049.61947  21794618.230    21794623.884
  24077412.675    15303406.04549  11944413.76545  24077411.784    24077420.114
  22713587.608   -11440039.77749  -8657620.91646  22713587.411    22713593.941
  22892017.673   -13604973.77849 -10323814.57146  22892016.996    22892024.879
 03  6  8 17  8  0.0000000  0 11G30G16G23G26G 6G17G21G18G10G29G15
  24616669.476    20076456.82749  15646527.60345  24616669.604    24616679.248
  23405638.148   -11685514.66749  -9091184.22545  23405637.724    23405644.031
  23692350.911    -6853322.08249  -5019367.91245  23692350.327    23692359.300
  21716092.491   -14359190.44949 -11160321.39146  21716092.462    21716099.175
  20421507.450   -10433026.11049  -8120683.48047  20421507.185    20421512.899
  20747057.862   -11556798.26349  -8992244.18047  20747057.161    20747063.502
  20777943.843   -18410384.23449 -14331403.08247  20777943.199    20777947.655
  21780076.391   -19290597.48749 -14661598.08347  21780075.867    21780081.505
  24097367.205    15408267.89049  12026124.18145  24097366.430    24097374.746
  22714930.379   -11432983.50149  -8652122.53446  22714930.201    22714936.696
  22878384.214   -13676617.51649 -10379640.80746  22878383.635    22878391.459
 03  6  8 17  8 30.0000000  0 11G30G16G23G26G 6G17G21G18G10G29G15
  24636283.357    20179527.88849  15726842.54545  24636283.576    24636293.238
  23400225.445   -11713959.77049  -9113349.24745  23400224.822    23400231.132
  23674665.942    -6946256.72049  -5091784.42645  23674665.440    23674674.328
  21708369.258   -14399776.51249 -11191946.86446  21708369.228    21708375.940
  20427047.702   -10403912.11249  -8097997.27247  20427047.409    20427053.141
  20746973.603   -11557240.96249  -8992589.15147  20746972.910    20746979.279
  20773194.181   -18435343.86549 -14350852.14547  20773193.527    20773198.000
  21765601.800   -19366661.96949 -14720869.06247  21765601.248    21765606.891
  24117334.606    15513196.96449  12107887.00445  24117333.947    24117342.057
  22716378.097   -11425375.75349  -8646194.43646  22716377.869    22716384.397
  22864770.672   -13748157.36649 -10435386.07846  22864769.999    22864777.807
 03  6  8 17  9  0.0000000  0 11G30G16G23G26G 6G17G21G18G10G29G15
  24655881.931    20282519.29749  15807095.41745  24655882.328    24655892.352
  23394915.106   -11741864.77349  -9135093.44245  23394914.678    23394920.967
  23657024.857    -7038960.42049  -5164020.98945  23657024.393    23657033.396
  21700756.718   -14439780.76549 -11223118.99146  21700756.668    21700763.361
  20432680.330   -10374312.45549  -8074932.64147  20432680.050    20432685.797
  20746926.358   -11557489.30049  -8992782.67447  20746925.662    20746932.027
  20768483.837   -18460096.75249 -14370140.10447  20768483.188    20768487.654
  21751195.077   -19442369.72149 -14779862.08447  21751194.491    21751200.110
  24137314.315    15618190.04349  12189699.69645  24137313.566    24137321.680
  22717930.626   -11417217.12949  -8639837.07646  22717930.405    22717936.993
  22851176.749   -13819594.01149 -10491050.95346  22851175.980    22851183.819
 03  6  8 17  9 30.0000000  0 11G30G16G23G26G 6G17G21G18G10G29G15
  24675465.372    20385428.75949  15887284.43045  24675465.470    24675475.553
  23389708.094   -11769228.95849  -9156416.18045  23389707.432    23389713.746
  23639428.294    -7131431.45549  -5236076.24245  23639427.675    23639436.689
  21693255.344   -14479200.65049 -11253835.74346  21693255.302    21693262.100
  20438405.451   -10344226.85449  -8051489.34647  20438405.147    20438410.922
  20746916.098   -11557543.24349  -8992824.71647  20746915.429    20746921.788
  20763812.993   -18484642.11249 -14389266.35347  20763812.372    20763816.831
  21736856.517   -19517719.24649 -14838575.95747  21736855.938    21736861.541
  24157305.649    15723245.11649  12271560.67745  24157304.886    24157313.202
  22719587.993   -11408507.25449  -8633050.17946  22719587.827    22719594.437
  22837602.540   -13890927.15849 -10546635.17346  22837601.727    22837609.538
 03  6  8 17 10  0.0000000  0 11G30G16G23G26G 6G17G21G18G10G29G15
  24695032.503    20488253.43449  15967407.41445  24695032.495    24695042.410
  23384603.913   -11796052.01649  -9177317.30745  23384603.076    23384609.519
  23621876.072    -7223668.54049  -5307949.19645  23621875.456    23621884.495
  21685865.528   -14518034.41649 -11284095.80546  21685865.478    21685872.149
  20444222.987   -10313655.54449  -8027667.57847  20444222.699    20444228.481
  20746942.837   -11557402.91649  -8992715.38147  20746942.171    20746948.531
  20759181.749   -18508979.59349 -14408230.61647  20759181.098    20759185.541
  21722586.331   -19592709.44349 -14897009.83647  21722585.747    21722591.340
  24177308.329    15828359.77349  12353468.09445  24177307.638    24177315.926
  22721350.357   -11399246.23549  -8625833.82546  22721350.147    22721356.735
  22824047.840   -13962156.76449 -10602138.72146  22824047.141    22824054.923
 03  6  8 17 10 30.0000000  0 11G30G16G23G26G 6G17G21G18G10G29G15
  24714583.004    20590991.60149  16047462.95045  24714583.020    24714593.094
  23379602.704   -11822332.79149  -9197795.86945  23379602.128    23379608.505
  23604368.876    -7315669.35749  -5379638.06145  23604368.166    23604377.229
  21678587.819   -14556278.82349 -11313896.62446  21678587.776    21678594.474
  20450133.081   -10282597.72449  -8003466.70547  20450132.808    20450138.596
  20747006.726   -11557067.37249  -8992453.93247  20747006.047    20747012.399
  20754590.091   -18533108.67949 -14427032.50347  20754589.467    20754593.902
  21708384.845   -19667338.68049 -14955162.45547  21708384.248    21708389.825
  24197322.136    15933532.91249  12435421.08045  24197321.473    24197329.792
  22723217.636   -11389433.35149  -8618187.44046  22723217.424    22723224.078
  22810513.158   -14033281.88649 -10657560.84346  22810512.451    22810520.201
 03  6  8 17 11  0.0000000  0 11G30G16G23G26G 6G17G21G18G10G29G15
  24734116.512    20693639.99049  16127448.57345  24734116.428    24734126.641
  23374704.987   -11848071.18849  -9217851.76845  23374704.219    23374710.624
  23586906.676    -7407433.06749  -5451142.16045  23586906.045    23586915.076
  21671422.590   -14593932.51349 -11343237.13346  21671422.536    21671429.217
  20456135.644   -10251054.07949  -7978887.27847  20456135.392    20456141.219
  20747107.618   -11556537.26749  -8992040.87747  20747106.927    20747113.251
  20750038.092   -18557029.59949 -14445672.17347  20750037.478    20750041.909
  21694252.139   -19741606.31449 -15013033.29447  21694251.552    21694257.152
  24217346.631    16038761.71149  12517417.44245  24217345.840    24217354.206
  22725189.939   -11379069.12049  -8610111.43546  22725189.709    22725196.304
  22796998.331   -14104302.94049 -10712901.88746  22796997.587    22797005.276
 03  6  8 17 11 30.0000000  0 11G30G16G23G26G 6G17G21G18G10G29G15
  24753632.227    20796196.39749  16207362.47145  24753632.336    24753642.777
  23369910.254   -11873266.43149  -9237484.45745  23369909.838    23369916.168
  23569490.013    -7498957.98749  -5522460.19745  23569489.492    23569498.347
  21664370.064   -14630993.18149 -11372115.54946  21664370.069    21664376.755
  20462230.705   -10219024.29349  -7953929.03747  20462230.452    20462236.272
  20747245.582   -11555812.10249  -8991475.82947  20747244.891    20747251.237
  20745525.819   -18580741.92649 -14464149.30447  20745525.182    20745529.595
  21680188.581   -19815510.55949 -15070620.97847  21680188.018    21680193.566
  24237381.293    16144044.19049  12599455.63945  24237380.491    24237388.713
  22727267.243   -11368153.20649  -8601605.53546  22727266.990    22727273.567
  22783503.426   -14175219.54149 -10768161.53646  22783502.589    22783510.299
 03  6  8 17 12  0.0000000  0 11G30G16G23G26G 6G17G21G18G10G29G15
  24773129.760    20898658.69948  16287203.00045  24773130.349    24773140.948
  23365219.522   -11897917.68249  -9256693.23645  23365218.905    23365225.188
  23552119.177    -7590242.27949  -5593590.72145  23552118.538    23552127.390
  21657431.044   -14667458.19849 -11400529.82146  21657431.012    21657437.710
  20468418.380   -10186508.04449  -7928591.72647  20468418.119    20468423.936
  20747420.824   -11554891.24949  -8990758.29247  20747420.140    20747426.501
  20741053.304   -18604245.33449 -14482463.64447  20741052.648    20741057.065
  21666194.409   -19889050.28649 -15127924.62347  21666193.876    21666199.406
  24257425.740    16249378.35349  12681534.13445  24257424.924    24257433.122
  22729449.524   -11356685.23449  -8592669.46246  22729449.270    22729455.861
  22770028.312   -14246030.96349 -10823339.22446  22770027.578    22770035.220
 03  6  8 17 12 30.0000000  0 11G30G16G23G26G 6G17G21G18G10G29G15
  24792609.071    21001023.72648  16366967.74545  24792610.362    24792620.245
  23360631.985   -11922025.32849  -9275478.43545  23360631.381    23360637.732
  23534794.324    -7681285.12849  -5664533.11845  23534793.671    23534802.540
  21650605.555   -14703326.12749 -11428478.84346  21650605.508    21650612.127
  20474698.453   -10153506.16749  -7902876.00747  20474698.191    20474703.992
  20747633.093   -11553775.62149  -8989888.98647  20747632.423    20747638.816
  20736620.376   -18627540.26749 -14500615.54047  20736619.747    20736624.172
  21652269.741   -19962224.86549 -15184943.74147  21652269.206    21652274.694
  24277479.591    16354761.53949  12763650.84145  24277478.741    24277486.932
  22731736.762   -11344666.00749  -8583303.83846  22731736.516    22731743.064
  22756573.283   -14316737.70349 -10878435.34846  22756572.503    22756580.150
 03  6  8 17 13  0.0000000  0 10G16G23G26G 6G17G21G18G10G29G15
  23356148.634   -11945585.43149  -9293836.96945  23356148.095    23356154.390
  23517516.216    -7772081.65249  -5735283.56545  23517515.563    23517524.401
  21643894.708   -14738591.56849 -11455958.37746  21643894.713    21643901.367
  20481071.546   -10120015.52949  -7876779.44547  20481071.289    20481077.067
  20747883.178   -11552461.47549  -8988864.98947  20747882.520    20747888.902
  20732227.866   -18650623.02249 -14518602.10347  20732227.238    20732231.663
  21638415.340   -20035030.03249 -15241675.00747  21638414.807    21638420.312
  24297542.968    16460195.11349  12845806.77845  24297542.181    24297550.484
  22734129.597   -11332091.79049  -8573505.76146  22734129.380    22734135.832
  22743138.779   -14387336.14049 -10933447.07546  22743138.023    22743145.673
 03  6  8 17 13 30.0000000  0 10G16G23G26G 6G17G21G18G10G29G15
  23351769.107   -11968600.40149  -9311770.73245  23351768.517    23351774.764
  23500284.567    -7862633.32749  -5805843.22845  23500284.072    23500292.894
  21637298.453   -14773255.34349 -11482969.09446  21637298.450    21637305.012
  20487537.151   -10086038.96549  -7850304.24747  20487536.873    20487542.632
  20748170.362   -11550952.42949  -8987689.11947  20748169.681    20748176.047
  20727875.298   -18673495.76749 -14536425.02047  20727874.671    20727879.122
  21624630.966   -20107467.09549 -15298119.43347  21624630.450    21624635.958
  24317615.014    16565673.79049  12927997.84745  24317614.206    24317622.667
  22736627.400   -11318966.11449  -8563277.96946  22736627.151    22736633.606
  22729724.371   -14457829.18849 -10988376.68046  22729723.580    22729731.218
 03  6  8 17 14  0.0000000  0 10G16G23G26G 6G17G21G18G10G29G15
  23347492.749   -11991071.55749  -9329280.74245  23347492.437    23347498.636
  23483099.662    -7952940.46749  -5876212.36245  23483099.109    23483107.935
  21630816.603   -14807317.47749 -11509510.99246  21630816.588    21630823.205
  20494094.825   -10051578.49049  -7823451.95647  20494094.544    20494100.281
  20748494.438   -11549249.51449  -8986362.18447  20748493.747    20748500.114
  20723562.287   -18696160.58549 -14554085.91347  20723561.707    20723566.149
  21610916.487   -20179536.96749 -15354277.73247  21610915.974    21610921.466
  24337694.951    16671193.77349  13010221.13845  24337694.124    24337702.606
  22739229.672   -11305290.73449  -8552621.84146  22739229.479    22739235.978
  22716329.809   -14528218.31949 -11043225.30746  22716328.962    22716336.627
 03  6  8 17 14 30.0000000  0 10G16G23G26G 6G17G21G18G10G29G15
  23343320.749   -12012997.63849  -9346366.00645  23343320.006    23343326.309
  23465961.631    -8043000.59549  -5946389.00145  23465961.143    23465970.076
  21624449.851   -14840774.93149 -11535581.72146  21624449.865    21624456.495
  20500744.655   -10016633.31149  -7796221.97747  20500744.390    20500750.154
  20748855.466   -11547352.09749  -8984883.69147  20748854.807    20748861.173
  20719289.146   -18718616.23549 -14571583.82447  20719288.545    20719292.977
  21597272.385   -20251237.22749 -15410148.02147  21597271.880    21597277.318
  24357782.461    16776754.06549  13092475.86845  24357781.569    24357790.285
  22741936.767   -11291064.64349  -8541536.58246  22741936.525    22741943.136
  22702955.175   -14598502.34349 -11097992.04146  22702954.322    22702961.988
 03  6  8 17 15  0.0000000  0 10G16G23G26G 6G17G21G18G10G29G15
  23339251.895   -12034377.92449  -9363025.99845  23339251.503    23339257.776
  23448871.049    -8132812.20649  -6016372.00545  23448870.524    23448879.381
  21618198.584   -14873625.56049 -11561179.58446  21618198.553    21618205.208
  20507486.779    -9981203.47149  -7768614.34447  20507486.512    20507492.281
  20749253.715   -11545259.48149  -8983253.09947  20749253.041    20749259.410
  20715055.865   -18740862.18649 -14588918.33647  20715055.286    20715059.688
  21583698.839   -20322566.69849 -15465729.38547  21583698.307    21583703.729
  24377877.245    16882352.82849  13174760.53545  24377876.477    24377885.113
  22744748.634   -11276287.87049  -8530022.21946  22744748.448    22744755.091
  22689600.628   -14668680.72749 -11152676.45546  22689599.807    22689607.362
 03  6  8 17 15 30.0000000  0 10G16G23G26G 6G17G21G18G10G29G15
  23335287.559   -12055212.65049  -9379260.83745  23335286.807    23335293.031
  23431827.974    -8222374.38949  -6086160.65845  23431827.373    23431836.128
  21612063.005   -14905868.04849 -11586303.57546  21612063.000    21612069.689
  20514320.952    -9945289.64249  -7740629.57247  20514320.671    20514326.481
  20749689.007   -11542972.28349  -8981470.87947  20749688.290    20749694.670
  20710862.457   -18762898.98549 -14606089.87047  20710861.859    20710866.250
  21570195.920   -20393524.83549 -15521021.40147  21570195.375    21570200.828
  24397979.015    16987987.37549  13257073.10245  24397978.062    24397986.722
  22747665.208   -11260961.04249  -8518079.25046  22747665.029    22747671.671
  22676265.988   -14738754.04149 -11207278.99046  22676265.288    22676272.819
 03  6  8 17 16  0.0000000  0 10G16G23G26G 6G17G21G18G10G29G15
  23331426.779   -12075500.28749  -9395069.38845  23331426.200    23331432.475
  23414832.548    -8311684.74949  -6155753.07745  23414832.159    23414840.932
  21606043.710   -14937499.24849 -11610951.25046  21606043.717    21606050.364
  20521247.380    -9908890.99949  -7712267.01947  20521247.106    20521252.951
  20750161.475   -11540489.46349  -8979536.22747  20750160.793    20750167.167
  20706709.135   -18784724.85849 -14623097.04947  20706708.534    20706712.912
  21556764.015   -20464109.60349 -15576022.47747  21556763.473    21556768.927
  24418087.342    17093656.77149  13339412.80145  24418086.201    24418095.031
  22750686.717   -11245083.19949  -8505706.91646  22750686.477    22750693.110
  22662951.856   -14808720.75649 -11261798.47046  22662951.085    22662958.552
 03  6  8 17 16 30.0000000  0 10G16G23G26G 6G17G21G18G10G29G15
  23327670.251   -12095240.55849  -9410451.42745  23327669.780    23327676.013
  23397885.605    -8400741.50349  -6225147.87745  23397885.131    23397893.927
  21600141.202   -14968517.17249 -11635121.04546  21600141.184    21600147.813
  20528266.154    -9872007.42049  -7683526.60447  20528265.877    20528271.704
  20750671.220   -11537810.94949  -8977449.08947  20750670.510    20750676.888
  20702596.053   -18806339.29449 -14639939.47047  20702595.461    20702599.847
  21543403.493   -20534319.43549 -15630731.39647  21543402.982    21543408.441
  24438201.891    17199359.16549  13421778.22045  24438200.836    24438209.540
  22753813.011   -11228654.56549  -8492905.40546  22753812.803    22753819.338
  22649657.976   -14878580.58449 -11316234.66546  22649657.139    22649664.578
 03  6  8 17 17  0.0000000  0 10G16G23G26G 6G17G21G18G10G29G15
  23324017.754   -12114434.24949  -9425407.55945  23324017.299    23324023.625
  23380986.967    -8489544.43949  -6294344.88945  23380986.470    23380995.177
  21594355.469   -14998921.17649 -11658812.45946  21594355.469    21594362.125
  20535376.905    -9834640.32549  -7654409.42447  20535376.615    20535382.470
  20751218.147   -11534936.98549  -8975209.65047  20751217.441    20751223.800
  20698522.858   -18827744.02849 -14656618.49047  20698522.251    20698526.639
  21530114.230   -20604154.82249 -15685148.54447  21530113.703    21530119.150
  24458322.067    17305091.22449  13504166.77545  24458321.086    24458329.727
  22757043.869   -11211676.42449  -8479675.69946  22757043.617    22757050.161
  22636384.116   -14948334.38349 -11370588.23246  22636383.348    22636390.884
 03  6  8 17 17 30.0000000  0 10G16G23G26G 6G17G21G18G10G29G15
  23320469.440   -12133080.50349  -9439937.10845  23320469.035    23320475.338
  23364137.053    -8578091.44749  -6363342.48245  23364136.505    23364145.172
  21588687.113   -15028708.54149 -11682023.37646  21588687.133    21588693.747
  20542579.767    -9796789.12649  -7624915.01447  20542579.498    20542585.341
  20751802.297   -11531867.14849  -8972817.58847  20751801.607    20751807.964
  20694489.868   -18848937.56149 -14673132.93447  20694489.253    20694493.647
  21516896.615   -20673613.65849 -15739272.27447  21516896.063    21516901.517
  24478447.585    17410851.88249  13586577.59345  24478446.723    24478455.292
  22760379.339   -11194148.06349  -8466017.24946  22760379.108    22760385.713
  22623130.779   -15017980.90649 -11424858.20446  22623130.033    22623137.550
 03  6  8 17 18  0.0000000  0 10G16G23G26G 6G17G21G18G10G29G15
  23317025.440   -12151178.98449  -9454039.83045  23317025.059    23317031.288
  23347336.077    -8666381.06449  -6432139.51045  23347335.496    23347344.124
  21583136.535   -15057877.32549 -11704752.28446  21583136.516    21583143.042
  20549874.730    -9758453.95449  -7595043.48047  20549874.468    20549880.315
  20752423.883   -11528600.87749  -8970272.45747  20752423.186    20752429.544
  20690497.174   -18869919.29649 -14689482.34547  20690496.557    20690500.984
  21503750.826   -20742694.93349 -15793101.80447  21503750.293    21503755.755
  24498578.390    17516639.18149  13669009.19345  24498577.538    24498586.068
  22763819.522   -11176069.86849  -8451930.37546  22763819.316    22763825.943
  22609897.916   -15087519.76749 -11479044.29446  22609897.224    22609904.720
 03  6  8 17 18 30.0000000  0 10G16G23G26G 6G17G21G18G10G29G15
  23313685.551   -12168729.96749  -9467715.91345  23313685.221    23313691.470
  23330584.177    -8754412.44749  -6500735.30545  23330583.613    23330592.189
  21577703.772   -15086426.51649 -11726998.39846  21577703.727    21577710.256
  20557261.604    -9719635.74549  -7564795.56147  20557261.354    20557267.220
  20753082.707   -11525138.72849  -8967574.69847  20753082.020    20753088.367
  20686544.659   -18890689.71249 -14705667.09147  20686544.083    20686548.503
  21490676.933   -20811398.33449 -15846636.88947  21490676.454    21490681.928
  24518713.693    17622450.50449  13751459.48745  24518712.779    24518721.329
  22767364.191   -11157442.60149  -8437415.63746  22767363.972    22767370.683
  22596685.453   -15156951.43849 -11533146.85346  22596684.770    22596692.266
 03  6  8 17 19  0.0000000  0 10G16G23G26G 6G17G21G18G10G29G15
  23310450.154   -12185732.77349  -9480964.85045  23310449.782    23310456.010
  23313881.817    -8842183.74949  -6569128.44445  23313881.206    23313889.817
  21572389.401   -15114353.74849 -11748759.85646  21572389.375    21572395.885
  20564740.459    -9680334.32849  -7534171.11147  20564740.206    20564746.072
  20753778.919   -11521480.14049  -8964723.87147  20753778.248    20753784.613
  20682632.598   -18911247.90149 -14721686.46447  20682631.972    20682636.411
  21477675.358   -20879722.12049 -15899876.16547  21477674.855    21477680.324
  24538853.137    17728284.21349  13833927.23545  24538852.336    24538860.760
  22771013.385   -11138266.15649  -8422472.97346  22771013.176    22771019.800
  22583493.572   -15226275.27149 -11587165.35946  22583492.823    22583500.326
 03  6  8 17 19 30.0000000  0 10G16G23G26G 6G17G21G18G10G29G15
  23307318.932   -12202187.73849  -9493786.90445  23307318.500    23307324.764
  23297229.149    -8929693.98649  -6637318.15545  23297228.474    23297237.135
  21567193.633   -15141657.85349 -11770035.76846  21567193.583    21567199.999
  20572311.098    -9640550.47649  -7503170.74147  20572310.836    20572316.730
  20754512.450   -11517625.63249  -8961720.37747  20754511.750    20754518.126
  20678760.784   -18931594.35249 -14737540.84647  20678760.192    20678764.625
  21464746.080   -20947665.80349 -15952819.26047  21464745.566    21464751.027
  24558996.464    17834138.22649  13916410.79645  24558995.801    24559004.258
  22774766.858   -11118541.50449  -8407103.13246  22774766.607    22774773.282
  22570322.075   -15295491.42049 -11641099.99246  22570321.412    22570328.889
 03  6  8 17 20  0.0000000  0 10G16G23G26G 6G17G21G18G10G29G15
  23304291.980   -12218094.13849  -9506181.51745  23304291.575    23304297.900
  23280626.449    -9016940.98949  -6705302.75045  23280625.828    23280634.540
  21562116.819   -15168336.48849 -11790824.29946  21562116.797    21562123.261
  20579973.627    -9600283.63049  -7471794.00347  20579973.381    20579979.255
  20755283.434   -11513573.89749  -8958563.19647  20755282.757    20755289.154
  20674929.500   -18951727.88249 -14753229.32047  20674928.905    20674933.345
  21451889.455   -21015227.76949 -16005464.91347  21451888.946    21451894.393
  24579143.695    17940011.22749  13998909.16445  24579142.843    24579151.364
  22778624.781   -11098267.80649  -8391305.47346  22778624.556    22778631.248
  22557171.407   -15364598.84449 -11694949.87446  22557170.706    22557178.079
 03  6  8 17 20 30.0000000  0 10G16G23G26G 6G17G21G18G10G29G15
  23301369.457   -12233452.44249  -9518149.02045  23301368.908    23301375.294
  23264073.991    -9103924.47249  -6773082.00445  23264073.357    23264082.028
  21557159.294   -15194388.59349 -11811124.62546  21557159.259    21557165.680
  20587727.863    -9559535.06149  -7440041.89847  20587727.613    20587733.532
  20756091.756   -11509326.26749  -8955253.37247  20756091.057    20756097.470
  20671138.641   -18971648.98649 -14768752.26847  20671138.059    20671142.474
  21439105.456   -21082407.84549 -16057812.99147  21439104.976    21439110.392
  24599293.866    18045900.24249  14081420.02145  24599292.974    24599301.480
  22782587.006   -11077446.67749  -8375081.24546  22782586.723    22782593.397
  22544041.304   -15433597.88249 -11748715.32046  22544040.626    22544047.984
 03  6  8 17 21  0.0000000  0 10G16G23G26G 6G17G21G18G10G29G15
  23298551.175   -12248262.26549  -9529689.14445  23298550.689    23298557.165
  23247571.958    -9190642.99149  -6840654.79345  23247571.261    23247580.012
  21552321.261   -15219812.42249 -11830935.38946  21552321.248    21552327.686
  20595573.702    -9518304.99549  -7407914.60647  20595573.441    20595579.379
  20756937.476   -11504882.10049  -8951790.40147  20756936.792    20756943.204
  20667388.305   -18991357.23049 -14784109.34947  20667387.695    20667392.121
  21426394.433   -21149204.63149 -16109862.40347  21426393.976    21426399.381
  24619446.594    18151803.69549  14163942.13645  24619445.713    24619454.326
  22786653.291   -11056078.19449  -8358430.50146  22786653.028    22786659.704
  22530931.953   -15502488.12049 -11802395.97046  22530931.201    22530938.617
 03  6  8 17 21 30.0000000  0 10G16G23G26G 6G17G21G18G10G29G15
  23295837.346   -12262523.47049  -9540801.77445  23295836.928    23295843.351
  23231120.525    -9277095.06649  -6908019.96545  23231119.900    23231128.623
  21547603.111   -15244606.25849 -11850255.24446  21547603.095    21547609.587
  20603511.103    -9476593.55949  -7375412.22047  20603510.866    20603516.804
  20757820.677   -11500240.89449  -8948173.89147  20757820.000    20757826.414
  20663678.604   -19010851.88749 -14799300.00247  20663678.013    20663682.445
  21413756.549   -21215617.06249 -16161612.31747  21413756.065    21413761.467
  24639601.704    18257719.81049  14246474.08645  24639600.789    24639609.592
  22790823.757   -11034162.52749  -8341353.38846  22790823.461    22790830.167
  22517843.430   -15571269.03349 -11855991.42946  22517842.592    22517849.944
 03  6  8 17 22  0.0000000  0 10G16G23G26G 6G17G21G18G10G29G15
  23293228.016   -12276236.07849  -9551486.91945  23293227.514    23293233.914
  23214720.265    -9363279.12649  -6975176.29545  23214719.584    23214728.253
  21543005.186   -15268768.44149 -11869082.90746  21543005.158    21543011.658
  20611540.093    -9434401.12649  -7342535.02847  20611539.848    20611545.799
  20758741.441   -11495402.25849  -8944403.53947  20758740.753    20758747.172
  20660009.551   -19030132.82149 -14814324.11247  20660008.943    20660013.397
  21401191.946   -21281644.26149 -16213062.05147  21401191.474    21401196.898
  24659759.003    18363646.44049  14329014.23945  24659757.964    24659766.738
  22795098.061   -11011700.21949  -8323850.31546  22795097.812    22795104.623
  22504775.591   -15639940.51749 -11909501.63546  22504774.839    22504782.132
 03  6  8 17 22 30.0000000  0 10G16G23G26G 6G17G21G18G10G29G15
  23290722.933   -12289400.13449  -9561744.63745  23290722.478    23290728.942
  23198371.063    -9449193.87749  -7042122.77145  23198370.443    23198379.088
  21538527.768   -15292297.45649 -11887417.19546  21538527.728    21538534.250
  20619660.525    -9391728.17249  -7309283.41647  20619660.266    20619666.226
  20759699.828   -11490366.04749  -8940479.23647  20759699.119    20759705.553
  20656381.251   -19049199.63449 -14829181.38047  20656380.665    20656385.116
  21388700.812   -21347285.14349 -16264210.76047  21388700.381    21388705.812
  24679917.996    18469581.89249  14411561.26745  24679916.800    24679925.672
  22799476.437   -10988691.65449  -8305921.60346  22799476.211    22799482.987
  22491728.686   -15708502.39149 -11962926.41146  22491727.941    22491735.240
 03  6  8 17 23  0.0000000  0 10G16G23G26G 6G17G21G18G10G29G15
  23288322.201   -12302015.86749  -9571575.08545  23288321.771    23288328.184
  23182073.396    -9534838.40849  -7108858.68945  23182072.785    23182081.385
  21534170.998   -15315192.31549 -11905257.33646  21534170.954    21534177.480
  20627872.210    -9348575.61349  -7275658.07047  20627871.931    20627877.909
  20760695.695   -11485132.65149  -8936401.28647  20760694.990    20760701.423
  20652793.710   -19068052.51249 -14843871.94547  20652793.109    20652797.554
  21376283.338   -21412539.49849 -16315058.28047  21376282.868    21376288.304
  24700078.079    18575524.02449  14494113.44645  24700076.922    24700085.959
  22803958.768   -10965137.72449  -8287567.93146  22803958.538    22803965.237
  22478702.603   -15776954.69749 -12016265.83246  22478701.879    22478709.217
 03  6  8 17 23 30.0000000  0 10G16G23G26G 6G17G21G18G10G29G15
  23286025.928   -12314082.80549  -9580977.89445  23286025.550    23286031.897
  23165827.471    -9620210.88949  -7175382.61545  23165826.842    23165835.480
  21529935.343   -15337450.77549 -11922601.58246  21529935.326    21529941.794
  20636175.239    -9304943.21949  -7241658.83447  20636174.973    20636180.936
  20761729.253   -11479701.12649  -8932168.95047  20761728.594    20761735.028
  20649246.970   -19086690.61349 -14858395.15347  20649246.364    20649250.835
  21363939.679   -21477405.63049 -16365603.28347  21363939.213    21363944.603
  24720239.220    18681471.55849  14576669.90045  24720238.075    24720247.249
  22808544.717   -10941038.49349  -8268789.34046  22808544.523    22808551.198
  22465697.534   -15845296.33349 -12069519.01246  22465696.852    22465704.236
 03  6  8 17 24  0.0000000  0  9G16G23G26G 6G17G21G18G29G15
  23283834.353   -12325599.99649  -9589952.32545  23283833.877    23283840.186
  23149633.733    -9705309.06349  -7241692.79345  23149633.183    23149641.737
  21525821.276   -15359070.33149 -11939447.98246  21525821.234    21525827.783
  20644569.645    -9260830.38949  -7207285.23947  20644569.382    20644575.343
  20762800.805   -11474070.22849  -8927781.26147  20762800.142    20762806.542
  20645741.440   -19105112.41049 -14872749.81247  20645740.831    20645745.299
  21351670.347   -21541881.45549 -16415844.15347  21351669.837    21351675.224
  22813234.646   -10916393.31849  -8249585.35446  22813234.446    22813240.976
  22452713.794   -15913525.93749 -12122684.88346  22452713.140    22452720.493
 03  6  8 17 24 30.0000000  0  9G16G23G26G 6G17G21G18G29G15
  23281746.911   -12336569.38649  -9598499.91345  23281746.432    23281752.711
  23133492.128    -9790133.56749  -7307789.72245  23133491.568    23133500.090
  21521828.638   -15380051.39549 -11955796.85346  21521828.638    21521835.228
  20653055.027    -9216239.59249  -7172539.20347  20653054.768    20653060.738
  20763909.937   -11468241.91849  -8923239.73847  20763909.265    20763915.680
  20642276.715   -19123319.56949 -14886937.21947  20642276.110    20642280.593
  21339475.041   -21605967.87349 -16465781.58647  21339474.579    21339479.960
  22818027.943   -10891204.81849  -8229957.98846  22818027.688    22818034.190
  22439751.235   -15981645.01949 -12175764.63746  22439750.464    22439757.841
 03  6  8 17 25  0.0000000  0  9G16G23G26G 6G17G21G18G29G15
  23279763.686   -12346991.03349  -9606620.66645  23279763.265    23279769.541
  23117402.801    -9874683.32549  -7373672.56445  23117402.196    23117410.708
  21517957.727   -15400392.94449 -11971647.41546  21517957.728    21517964.341
  20661631.255    -9171171.38749  -7137421.16347  20661630.971    20661636.951
  20765056.598   -11462216.36049  -8918544.51447  20765055.921    20765062.329
  20638852.979   -19141311.49949 -14900956.91547  20638852.380    20638856.848
  21327354.010   -21669664.40049 -16515415.20747  21327353.520    21327358.902
  22822924.410   -10865473.54049  -8209907.67446  22822924.218    22822930.798
  22426809.640   -16049653.47049 -12228758.19346  22426808.863    22426816.222
 03  6  8 17 25 30.0000000  0  9G16G23G26G 6G17G21G18G29G15
  23277884.765   -12356865.30349  -9614314.91145  23277884.226    23277890.537
  23101365.975    -9958957.12849  -7439340.39945  23101365.358    23101373.838
  21514208.880   -15420093.42849 -11986998.43646  21514208.883    21514215.420
  20670298.236    -9125626.31349  -7101931.52447  20670297.960    20670303.957
  20766240.832   -11455993.02449  -8913695.18647  20766240.191    20766246.603
  20635470.185   -19159088.44449 -14914809.08647  20635469.562    20635474.010
  21315307.283   -21732970.39149 -16564744.51647  21315306.770    21315312.125
  22827924.062   -10839200.13449  -8189434.94446  22827923.847    22827930.471
  22413889.118   -16117551.05749 -12281665.36746  22413888.348    22413895.653
 03  6  8 17 26  0.0000000  0  9G16G23G26G 6G17G21G18G29G15
  23276110.067   -12366191.87749  -9621582.37945  23276109.514    23276115.761
  23085381.971   -10042953.42949  -7504791.99545  23085381.313    23085389.740
  21510582.394   -15439151.19649 -12001848.64147  21510582.344    21510588.885
  20679055.891    -9079604.49549  -7066070.39747  20679055.628    20679061.631
  20767462.899   -11449571.30949  -8908691.27047  20767462.215    20767468.660
  20632128.462   -19176649.50849 -14928493.04247  20632127.825    20632132.252
  21303335.178   -21795884.26449 -16613768.27847  21303334.648    21303339.983
  22833026.909   -10812384.77749  -8168539.89746  22833026.675    22833033.261
  22400989.868   -16185337.24149 -12334485.71546  22400989.028    22400996.360
 03  6  8 17 26 30.0000000  0  9G16G23G26G 6G17G21G18G29G15
  23274439.461   -12374971.02849  -9628423.27045  23274438.971    23274445.215
  23069451.010   -10126671.19349  -7570026.54345  23069450.302    23069458.741
  21507078.308   -15457565.18849 -12016197.19947  21507078.270    21507084.843
  20687904.136    -9033106.82549  -7029838.48747  20687903.862    20687909.876
  20768722.748   -11442950.94149  -8903532.55947  20768722.043    20768728.505
  20628827.862   -19193994.25149 -14942008.43847  20628827.240    20628831.671
  21291437.796   -21858405.34649 -16662485.97047  21291437.265    21291442.584
  22838232.702   -10785028.50349  -8147223.36646  22838232.451    22838239.087
  22388111.735   -16253011.93149 -12387219.18746  22388110.953    22388118.210
 03  6  8 17 27  0.0000000  0 10G16G23G26G 2G 6G17G21G18G29G15
  23272872.921   -12383203.20949  -9634837.95845  23272872.475    23272878.651
  23053573.123   -10210109.24249  -7635043.12345  23053572.475    23053580.935
  21503696.905   -15475334.13549 -12030043.12746  21503696.920    21503703.450
  25241245.847    -5903700.22949  -4589619.87845  25241245.300    25241254.012
  20696842.782    -8986134.06349  -6993236.37647  20696842.514    20696848.534
  20770020.408   -11436131.80049  -8898218.96047  20770019.724    20770026.197
  20625568.405   -19211122.81649 -14955355.37847  20625567.767    20625572.214
  21279615.227   -21920533.25749 -16710897.29447  21279614.709    21279620.003
  22843541.216   -10757132.04849  -8125485.91546  22843540.956    22843547.673
  22375254.954   -16320574.52149 -12439865.31846  22375254.144    22375261.403
 03  6  8 17 27 30.0000000  0 10G16G23G26G 2G 6G17G21G18G29G15
  23271410.078   -12390890.45349  -9640828.02145  23271409.698    23271415.861
  23037748.305   -10293268.28049  -7699842.30445  23037747.779    23037756.220
  21500438.274   -15492458.69049 -12043386.94247  21500438.236    21500444.736
  25233433.565    -5944756.30449  -4621611.63345  25233432.458    25233441.175
  20705871.347    -8938688.63649  -6956265.96347  20705871.074    20705877.138
  20771355.517   -11429115.70449  -8892751.89047  20771354.840    20771361.325
  20622349.817   -19228036.66749 -14968535.01247  20622349.205    20622353.660
  21267867.310   -21982268.88949 -16759002.94747  21267866.792    21267872.077
  22848952.038   -10728698.06949  -8103329.62146  22848951.800    22848958.472
  22362419.226   -16388026.64649 -12492425.36546  22362418.410    22362425.664
 03  6  8 17 28  0.0000000  0 10G16G23G26G 2G 6G17G21G18G29G15
  23270051.543   -12398030.00349  -9646391.30545  23270051.079    23270057.211
  23021977.599   -10376143.98949  -7764420.69345  23021977.016    23021985.384
  21497303.027   -15508934.55649 -12056225.26746  21497302.987    21497309.472
  25225698.106    -5985407.88649  -4653288.17445  25225696.614    25225705.554
  20714990.411    -8890767.85549  -6918925.13147  20714990.141    20714996.192
  20772728.710   -11421899.65649  -8887129.00747  20772728.030    20772734.526
  20619172.767   -19244732.14949 -14981544.48647  20619172.164    20619176.620
  21256194.788   -22043608.46849 -16806799.99047  21256194.263    21256199.527
  22854465.670   -10699724.04649  -8080752.49746  22854465.492    22854472.096
  22349605.212   -16455364.92549 -12544896.71046  22349604.351    22349611.546
 03  6  8 17 28 30.0000000  0 10G16G23G26G 2G 6G17G21G18G29G15
  23268796.982   -12404622.44349  -9651528.26645  23268796.567    23268802.686
  23006260.828   -10458735.83449  -7828777.90846  23006260.287    23006268.551
  21494291.303   -15524761.15349 -12068557.67646  21494291.282    21494297.749
  25218039.707    -6025654.75949  -4684649.36445  25218038.115    25218046.631
  20724199.641    -8842372.98249  -6881214.86747  20724199.375    20724205.493
  20774139.934   -11414483.66849  -8881350.32847  20774139.253    20774145.781
  20616037.199   -19261209.81949 -14994384.23047  20616036.575    20616041.021
  21244597.621   -22104551.74149 -16854288.21347  21244597.121    21244602.371
  22860081.804   -10670211.36349  -8057755.64346  22860081.585    22860088.299
  22336812.763   -16522589.76849 -12597279.65246  22336811.857    22336819.033
 03  6  8 17 29  0.0000000  0 10G16G23G26G 2G 6G17G21G18G29G15
  23267646.513   -12410668.16449  -9656239.21145  23267646.074    23267652.251
  22990598.405   -10541042.47949  -7892912.87846  22990597.810    22990606.073
  21491403.399   -15539937.16549 -12080383.14047  21491403.401    21491409.894
  25210458.232    -6065495.90149  -4715694.42745  25210456.614    25210465.194
  20733499.053    -8793504.66649  -6843135.69247  20733498.777    20733504.873
  20775589.266   -11406867.31349  -8875415.52347  20775588.609    20775595.109
  20612943.266   -19277468.52649 -15007053.36147  20612942.647    20612947.105
  21233076.035   -22165097.80549 -16901466.93547  21233075.578    21233080.803
  22865800.315   -10640160.41349  -8034339.36546  22865800.116    22865806.866
  22324041.979   -16589700.40749 -12649573.60946  22324041.088    22324048.268
 03  6  8 17 29 30.0000000  0 10G16G23G26G 2G 6G17G21G18G29G15
  23266599.975   -12416167.68449  -9660524.55445  23266599.588    23266605.744
  22974990.400   -10623062.93849  -7956824.86846  22974989.876    22974998.009
  21488639.518   -15554461.63949 -12091700.92047  21488639.465    21488646.018
  25202953.634    -6104930.72249  -4746422.90045  25202952.429    25202961.125
  20742888.314    -8744163.68849  -6804688.21447  20742888.057    20742894.184
  20777076.755   -11399050.71549  -8869324.68147  20777076.089    20777082.573
  20609890.955   -19293508.56849 -15019552.10147  20609890.350    20609894.793
  21221630.168   -22225246.21549 -16948335.79247  21221629.692    21221634.912
  22871621.062   -10609572.64949  -8010504.77846  22871620.786    22871627.538
  22311292.913   -16656696.89149 -12701778.61846  22311292.024    22311299.231
 03  6  8 17 30  0.0000000  0 10G16G23G26G 2G 6G17G21G18G29G15
  23265657.292   -12421121.16149  -9664384.41145  23265656.951    23265663.112
  22959437.062   -10704796.05349  -8020512.93946  22959436.553    22959444.637
  21485999.781   -15568333.37149 -12102510.06846  21485999.742    21486006.260
  25195526.619    -6143958.04549  -4776833.81245  25195525.910    25195534.550
  20752367.425    -8694350.73449  -6765872.96047  20752367.175    20752373.332
  20778602.431   -11391033.40949  -8863077.44747  20778601.773    20778608.244
  20606880.348   -19309329.36749 -15031880.00247  20606879.754    20606884.224
  21210260.195   -22284995.94349 -16994893.99247  21210259.693    21210264.910
  22877543.821   -10578448.46149  -7986252.21846  22877543.586    22877550.300
  22298565.723   -16723578.67149 -12753894.24546  22298564.835    22298572.038
 03  6  8 17 30 30.0000000  0 10G16G23G26G 2G 6G17G21G18G29G15
  23264818.513   -12425529.30949  -9667819.32445  23264818.052    23264824.243
  22943938.625   -10786240.71749  -8083976.23446  22943938.122    22943946.234
  21483484.451   -15581551.68249 -12112810.05246  21483484.413    21483490.931
  25188177.484    -6182577.32249  -4806926.77545  25188176.699    25188185.734
  20761936.175    -8644066.79849  -6726690.71547  20761935.911    20761942.033
  20780166.251   -11382815.47849  -8856673.87447  20780165.601    20780172.038
  20603911.485   -19324930.86649 -15044037.01747  20603910.889    20603915.372
  21198966.109   -22344346.53149 -17041141.17047  21198965.612    21198970.818
  22883568.433   -10546789.13149  -7961582.63546  22883568.166    22883574.916
  22285860.450   -16790345.58849 -12805920.36846  22285859.500    22285866.709
 03  6  8 17 31  0.0000000  0 10G16G23G26G 2G 6G17G21G18G29G15
  23264083.242   -12429393.13549  -9670830.10045  23264082.731    23264088.939
  22928495.140   -10867396.55449  -8147214.47146  22928494.544    22928502.764
  21481093.456   -15594115.99549 -12122600.44146  21481093.438    21481099.983
  25180906.609    -6220788.34649  -4836701.60345  25180905.393    25180914.257
  20771594.353    -8593313.04449  -6687142.37947  20771594.085    20771600.262
  20781768.194   -11374397.23449  -8850114.22347  20781767.542    20781773.998
  20600984.328   -19340313.25649 -15056023.29547  20600983.726    20600988.212
  21187747.987   -22403297.89049 -17087077.26447  21187747.498    21187752.693
  22889694.514   -10514596.00949  -7936497.12046  22889694.304    22889701.147
  22273176.817   -16856997.80249 -12857857.11146  22273175.901    22273183.128
 03  6  8 17 31 30.0000000  0 10G16G23G26G 2G 6G17G21G18G29G15
  23263451.374   -12432712.81849  -9673416.87545  23263451.008    23263457.201
  22913106.802   -10948262.39549  -8210226.74746  22913106.257    22913114.482
  21478827.242   -15606025.24849 -12131880.38047  21478827.197    21478833.804
  25173713.495    -6258590.27649  -4866157.65945  25173711.982    25173720.763
  20781341.757    -8542090.10949  -6647228.45947  20781341.506    20781347.663
  20783408.379   -11365778.16649  -8843398.07847  20783407.696    20783414.184
  20598098.983   -19355475.79349 -15067838.26547  20598098.393    20598102.874
  21176605.984   -22461849.47749 -17132701.85047  21176605.491    21176610.672
  22895922.160   -10481869.66449  -7910996.11746  22895921.913    22895928.743
  22260515.227   -16923534.86749 -12909704.13246  22260514.257    22260521.490
 03  6  8 17 32  0.0000000  0 10G16G23G26G 2G 6G17G21G18G29G15
  23262923.235   -12435488.48049  -9675579.72445  23262922.784    23262929.114
  22897774.016   -11028836.74349  -8273011.89246  22897773.421    22897781.656
  21476685.856   -15617278.16849 -12140648.90246  21476685.810    21476692.439
  25166598.236    -6295981.77549  -4895293.91045  25166596.817    25166605.552
  20791178.428    -8490398.38949  -6606949.23947  20791178.167    20791184.352
  20785086.801   -11356957.77749  -8836525.06847  20785086.154    20785092.664
  20595255.584   -19370418.04249 -15079481.58047  20595254.982    20595259.456
  21165540.315   -22519999.89249 -17178013.82847  21165539.812    21165545.024
  22902251.056   -10448610.94149  -7885080.26346  22902250.882    22902257.635
  22247875.639   -16989956.09849 -12961460.89746  22247874.677    22247881.888
 03  6  8 17 32 30.0000000  0 10G16G23G26G 2G 6G17G21G18G29G15
  23262498.230   -12437722.06249  -9677320.18545  23262497.828    23262504.089
  22882496.608   -11109120.11749  -8335570.29446  22882496.008    22882504.212
  21474669.316   -15627875.27449 -12148906.40547  21474669.306    21474675.862
  25159560.543    -6332963.69649  -4924110.99845  25159559.240    25159568.200
  20801103.837    -8438240.29249  -6566306.59147  20801103.596    20801109.741
  20786803.286   -11347937.66049  -8829496.42247  20786802.616    20786809.155
  20592453.844   -19385141.15149 -15090954.13747  20592453.261    20592457.740
  21154550.716   -22577750.30349 -17223014.12347  21154550.240    21154555.404
  22908681.009   -10414822.17149  -7858751.39046  22908680.770    22908687.512
  22235257.880   -17056262.74249 -13013128.37846  22235256.982    22235264.116
 03  6  8 17 33  0.0000000  0 10G16G23G26G 2G 6G17G21G18G29G15
  23262176.859   -12439410.96549  -9678636.22045  23262176.440    23262182.691
  22867275.235   -11189108.27549  -8397898.65346  22867274.685    22867282.881
  21472778.361   -15637812.56749 -12156649.76447  21472778.315    21472784.867
  25152601.724    -6369531.98849  -4952605.78345  25152600.487    25152609.663
  20811118.406    -8385613.47349  -6525298.71947  20811118.152    20811124.344
  20788558.525   -11338714.05749  -8822309.21347  20788557.851    20788564.394
  20589694.498   -19399641.82449 -15102253.36647  20589693.892    20589698.355
  21143638.016   -22635096.77149 -17267699.66147  21143637.544    21143642.706
  22915212.103   -10380501.27149  -7832007.86346  22915211.829    22915218.571
  22222662.645   -17122451.31249 -13064703.85346  22222661.721    22222668.811
 03  6  8 17 33 30.0000000  0 10G16G23G26G 2G 6G17G21G18G29G15
  23261958.557   -12440558.22749  -9679530.20245  23261958.201    23261964.412
  22852109.880   -11268802.74049  -8459998.16946  22852109.294    22852117.395
  21471012.590   -15647091.75649 -12163880.32047  21471012.587    21471019.071
  25145721.242    -6405688.59749  -4980779.77445  25145720.090    25145729.257
  20821221.516    -8332521.26549  -6483928.21347  20821221.258    20821227.464
  20790352.054   -11329289.02749  -8814965.05447  20790351.399    20790357.923
  20586977.151   -19413921.74149 -15113380.57747  20586976.543    20586980.999
  21132801.842   -22692041.33149 -17312072.01747  21132801.366    21132806.498
  22921843.794   -10345651.56049  -7804852.28446  22921843.518    22921850.288
  22210089.410   -17188523.79149 -13116188.86446  22210088.506    22210095.655
 03  6  8 17 34  0.0000000  0 10G16G23G26G 2G 6G17G21G18G29G15
  23261843.298   -12441163.48649  -9680001.84445  23261842.951    23261849.178
  22837000.731   -11348201.36149  -8521867.14846  22837000.173    22837008.295
  21469372.477   -15655710.96349 -12170596.59647  21469372.473    21469378.860
  25138919.680    -6441431.64649  -5008631.54345  25138918.479    25138927.521
  20831413.256    -8278963.61549  -6442195.01947  20831413.013    20831419.220
  20792184.221   -11319661.26349  -8807462.91647  20792183.521    20792190.060
  20584302.025   -19427979.44149 -15124334.63347  20584301.435    20584305.914
  21122042.506   -22748582.00349 -17356129.65447  21122042.015    21122047.144
  22928576.090   -10310273.14849  -7777284.73246  22928575.877    22928582.666
  22197538.433   -17254478.93149 -13167582.45246  22197537.605    22197544.789
 03  6  8 17 34 30.0000000  0 10G16G23G26G 2G 6G17G21G18G29G15
  23261831.012   -12441228.14049  -9680052.23045  23261830.640    23261836.940
  22821948.020   -11427303.94949  -8583505.46646  22821947.385    22821955.496
  21467857.915   -15663670.08949 -12176798.52547  21467857.891    21467864.328
  25132196.320    -6476761.45749  -5036161.26245  25132195.373    25132204.353
  20841693.213    -8224942.15549  -6400100.42247  20841692.986    20841699.173
  20794054.733   -11309831.67149  -8799803.50647  20794054.036    20794060.577
  20581669.161   -19441815.47349 -15135115.96047  20581668.557    20581673.030
  21111359.936   -22804719.12049 -17399872.83947  21111359.440    21111364.563
  22935408.737   -10274367.79149  -7749306.56846  22935408.447    22935415.235
  22185009.756   -17320317.04149 -13218884.84146  22185008.948    22185016.136
 03  6  8 17 35  0.0000000  0 10G16G23G26G 2G 6G17G21G18G29G15
  23261921.563   -12440751.92749  -9679681.17245  23261921.267    23261927.518
  22806951.848   -11506108.74749  -8644911.72546  22806951.276    22806959.334
  21466469.271   -15670967.57949 -12182484.90147  21466469.243    21466475.725
  25125552.171    -6511676.18649  -5063367.56545  25125551.383    25125560.320
  20852061.476    -8170456.89649  -6357644.42347  20852061.218    20852067.430
  20795963.946   -11299798.69549  -8791985.62447  20795963.274    20795969.778
  20579078.687   -19455428.54549 -15145723.55947  20579078.091    20579082.552
  21100754.395   -22860451.42449 -17443300.58947  21100753.922    21100759.069
  22942341.572   -10237935.73949  -7720917.99146  22942341.317    22942348.056
  22172503.648   -17386037.04249 -13270095.19946  22172502.876    22172510.035
 03  6  8 17 35 30.0000000  0 10G16G23G26G 2G 6G17G21G18G29G15
  23262115.026   -12439735.69449  -9678889.30445  23262114.583    23262120.916
  22792012.525   -11584614.83749  -8706085.23646  22792012.018    22792020.090
  21465206.465   -15677603.03549 -12187655.40547  21465206.507    21465213.036
  25118987.324    -6546175.46349  -5090250.13545  25118986.387    25118995.290
  20862517.745    -8115508.96949  -6314827.90047  20862517.520    20862523.723
  20797911.836   -11289562.63049  -8784009.49047  20797911.136    20797917.675
  20576530.697   -19468818.46149 -15156157.26247  20576530.095    20576534.539
  21090226.000   -22915778.63649 -17486412.68347  21090225.471    21090230.609
  22949374.348   -10200978.22249  -7692119.96346  22949374.108    22949380.868
  22160020.131   -17451638.48349 -13321213.17446  22160019.308    22160026.418
 03  6  8 17 36  0.0000000  0 10G16G23G26G 2G 6G17G21G18G29G15
  23262411.005   -12438180.03849  -9677677.12745  23262410.628    23262416.861
  22777130.273   -11662821.49949  -8767025.42446  22777129.721    22777137.786
  21464069.943   -15683575.91549 -12192309.61047  21464069.954    21464076.474
  25112501.555    -6580258.79649  -5116808.57845  25112500.737    25112509.688
  20873061.890    -8060099.35749  -6271651.62047  20873061.640    20873067.839
  20799898.430   -11279123.07449  -8775874.78247  20799897.720    20799904.242
  20574025.155   -19481985.07449 -15166416.96147  20574024.529    20574029.010
  21079774.738   -22970700.26149 -17529208.73747  21079774.206    21079779.333
  22956506.856   -10163496.48649  -7662913.44946  22956506.671    22956513.425
  22147559.055   -17517121.22049 -13372238.65246  22147558.335    22147565.396
 03  6  8 17 36 30.0000000  0 10G16G23G26G 2G 6G17G21G18G29G15
  23262809.512   -12436086.43349  -9676045.75445  23262809.113    23262815.325
  22762305.080   -11740728.33349  -8827731.98246  22762304.495    22762312.579
  21463059.441   -15688886.11649 -12196447.43747  21463059.423    21463065.974
  25106094.805    -6613926.17949  -5143042.90845  25106093.854    25106103.033
  20883693.561    -8004229.61749  -6228116.80347  20883693.310    20883699.538
  20801923.549   -11268480.80149  -8767582.12247  20801922.898    20801929.444
  20571562.011   -19494928.82349 -15176503.00447  20571561.434    20571565.894
  21069400.649   -23025216.30749 -17571688.75147  21069400.138    21069405.259
  22963738.874   -10125492.39549  -7633299.89846  22963738.694    22963745.394
  22135120.628   -17582485.52549 -13423171.84246  22135119.905    22135126.922
 03  6  8 17 37  0.0000000  0 10G16G23G26G 2G 6G17G21G18G29G15
  23263310.342   -12433455.03949  -9673995.34245  23263309.886    23263316.158
  22747537.194   -11818333.60049  -8888203.54346  22747536.708    22747544.670
  21462175.298   -15693532.31949 -12200067.87547  21462175.325    21462181.842
  25099767.470    -6647176.36649  -5168952.14745  25099766.633    25099775.602
  20894412.786    -7947900.02549  -6184223.65447  20894412.519    20894418.750
  20803987.518   -11257634.72549  -8759130.65447  20803986.840    20803993.366
  20569141.602   -19507648.37549 -15186414.34247  20569140.990    20569145.433
  21059103.968   -23079325.68649 -17613851.88147  21059103.436    21059108.571
  22971070.225   -10086966.19949  -7603279.52246  22971070.019    22971076.783
  22122704.976   -17647730.07549 -13474011.72546  22122704.221    22122711.262
 03  6  8 17 37 30.0000000  0 10G16G23G26G 2G 6G17G21G18G29G15
  23263913.119   -12430287.16749  -9671526.88745  23263912.698    23263919.023
  22732826.865   -11895637.25349  -8948440.09346  22732826.292    22732834.159
  21461417.511   -15697514.61649 -12203170.97347  21461417.540    21461424.106
  25093519.767    -6680009.31449  -5194536.26745  25093518.888    25093527.704
  20905219.238    -7891112.21549  -6139973.45247  20905218.948    20905225.186
  20806090.280   -11246584.84349  -8750520.37247  20806089.604    20806096.135
  20566763.824   -19520143.83749 -15196151.06347  20566763.206    20566767.651
  21048884.724   -23133028.38049 -17655698.11547  21048884.161    21048889.321
  22978500.485   -10047919.90349  -7572853.86946  22978500.246    22978507.075
  22110311.996   -17712855.30949 -13524758.63446  22110311.300    22110318.299
 03  6  8 17 38  0.0000000  0 10G16G23G26G 2G 6G17G21G18G29G15
  23264618.102   -12426582.37949  -9668640.04845  23264617.680    23264624.054
  22718174.127   -11972637.30649  -9008440.06546  22718173.656    22718181.462
  21460786.356   -15700831.47549 -12205755.54847  21460786.377    21460792.914
  25087351.972    -6712423.47049  -5219794.03145  25087350.618    25087359.539
  20916112.744    -7833866.33249  -6095366.32547  20916112.497    20916118.718
  20808231.979   -11235330.24949  -8741750.58047  20808231.321    20808237.855
  20564428.823   -19532414.38649 -15205712.53447  20564428.193    20564432.656
  21038743.034   -23186323.16149 -17697226.49347  21038742.482    21038747.626
  22986029.729   -10008353.73749  -7542023.12046  22986029.503    22986036.272
  22097942.048   -17777859.91549 -13575411.55146  22097941.314    22097948.310
 03  6  8 17 38 30.0000000  0 10G16G23G26G 2G 6G17G21G18G29G15
  23265424.969   -12422342.07349  -9665335.92845  23265424.562    23265430.981
  22703579.344   -12049333.35449  -9068203.14846  22703578.799    22703586.622
  21460281.794   -15703482.94849 -12207821.63647  21460281.786    21460288.424
  25081263.507    -6744418.69749  -5244725.36745  25081262.183    25081271.030
  20927093.211    -7776163.90249  -6050403.43747  20927092.925    20927099.195
  20810412.649   -11223871.09049  -8732821.38047  20810411.962    20810418.493
  20562136.670   -19544459.60049 -15215098.41547  20562136.069    20562140.538
  21028678.899   -23239210.14149 -17738437.10647  21028678.379    21028683.530
  22993657.569    -9968269.32149  -7510788.55346  22993657.322    22993664.077
  22085595.000   -17842744.05249 -13625970.59446  22085594.281    22085601.279
 03  6  8 17 39  0.0000000  0 10G16G23G26G 2G 6G17G21G18G29G15
  23266333.640   -12417567.22049  -9661615.28345  23266333.262    23266339.615
  22689042.523   -12125724.48249  -9127728.63046  22689041.983    22689049.809
  21459903.952   -15705468.39949 -12209368.75447  21459903.987    21459910.611
  25075254.546    -6775994.67049  -5269330.01045  25075253.453    25075262.300
  20938160.353    -7718005.89849  -6005085.55047  20938160.073    20938166.332
  20812632.230   -11212207.04849  -8723732.52947  20812631.555    20812638.071
  20559887.489   -19556279.04749 -15224308.37347  20559886.896    20559891.346
  21018692.567   -23291688.56049 -17779329.35747  21018692.062    21018697.208
  23001383.769    -9927667.90649  -7479151.10846  23001383.514    23001390.376
  22073270.972   -17907507.29049 -13676435.42846  22073270.203    22073277.248
 03  6  8 17 39 30.0000000  0 10G16G23G26G 2G 6G17G21G18G29G15
  23267343.971   -12412258.28049  -9657478.45845  23267343.583    23267349.910
  22674563.953   -12201809.54849  -9187015.64446  22674563.447    22674571.226
  21459653.091   -15706787.45449 -12210396.59847  21459653.082    21459659.602
  25069325.595    -6807150.55249  -5293607.29845  25069324.748    25069333.490
  20949314.002    -7659393.16549  -5959413.33747  20949313.732    20949319.999
  20814890.893   -11200337.76849  -8714483.75447  20814890.231    20814896.748
  20557681.392   -19567872.17549 -15233341.98147  20557680.794    20557685.261
  21008784.137   -23343757.92249 -17819902.85847  21008783.622    21008788.750
  23009208.172    -9886550.43149  -7447111.55046  23009207.897    23009214.872
  22060970.072   -17972148.93249 -13726805.51646  22060969.329    22060976.326
 03  6  8 17 40  0.0000000  0 10G16G23G26G 2G 6G17G21G18G29G15
  23268455.702   -12406416.30549  -9652926.27545  23268455.304    23268461.571
  22660143.820   -12277587.67149  -9246063.45646  22660143.300    22660151.067
  21459528.991   -15707439.45549 -12210904.65847  21459528.977    21459535.537
  25063476.577    -6837885.77649  -5317556.77945  25063475.936    25063484.888
  20960553.945    -7600326.91549  -5913387.73547  20960553.681    20960559.995
  20817188.603   -11188263.10249  -8705074.94447  20817187.951    20817194.472
  20555518.458   -19579238.59649 -15242198.93847  20555517.851    20555522.316
  20998953.525   -23395418.00549 -17860157.44547  20998953.008    20998958.134
  23017130.608    -9844918.23049  -7414670.91946  23017130.342    23017137.312
  22048692.316   -18036668.66049 -13777080.61246  22048691.588    22048698.621
 03  6  8 17 40 30.0000000  0 10G16G23G26G 2G 6G17G21G18G29G15
  23269668.796   -12400042.10149  -9647959.39545  23269668.324    23269674.555
  22645782.264   -12353058.06549  -9304871.49746  22645781.732    22645789.420
  21459531.900   -15707424.02049 -12210892.63847  21459531.935    21459538.468
  25057708.111    -6868199.94649  -5341178.19845  25057707.360    25057716.428
  20971879.983    -7540808.15749  -5867009.52747  20971879.730    20971886.100
  20819525.678   -11175981.91349  -8695505.20747  20819524.993    20819531.513
  20553398.610   -19590378.27949 -15250879.21347  20553398.029    20553402.511
  20989200.934   -23446668.01249 -17900092.49147  20989200.429    20989205.538
  23025150.644    -9802772.77249  -7381830.33646  23025150.430    23025157.261
  22036437.889   -18101065.92449 -13827260.27946  22036437.152    22036444.208
 03  6  8 17 41  0.0000000  0 10G16G23G26G 2G 6G17G21G18G29G15
  23270983.017   -12393136.10049  -9642578.09745  23270982.464    23270988.701
  22631479.381   -12428219.59349  -9363438.85246  22631478.823    22631486.577
  21459661.983   -15706740.46949 -12210360.00247  21459661.975    21459668.608
  25052020.065    -6898092.26649  -5364470.88645  25052019.019    25052028.046
  20983292.057    -7480837.64849  -5820279.31747  20983291.779    20983298.167
  20821902.008   -11163494.07449  -8685774.44047  20821901.367    20821907.873
  20551322.221   -19601289.93349 -15259381.80447  20551321.616    20551326.089
  20979526.570   -23497507.37349 -17939707.55347  20979526.026    20979531.087
  23033268.262    -9760114.70749  -7348590.32746  23033268.010    23033274.800
  22024206.903   -18165339.91549 -13877343.88646  22024206.239    22024213.231
 03  6  8 17 41 30.0000000  0 10G16G23G26G 2G 6G17G21G18G29G15
  23272397.916   -12385700.36949  -9636784.03845  23272397.454    23272403.731
  22617235.373   -12503072.42849  -9421765.66246  22617234.724    22617242.521
  21459919.052   -15705389.42849 -12209307.24947  21459919.077    21459925.694
  25046412.169    -6927563.26249  -5387435.28445  25046410.811    25046419.913
  20994789.682    -7420417.39149  -5773198.64847  20994789.410    20994795.791
  20824317.593   -11150800.49849  -8675883.35647  20824316.905    20824323.387
  20549289.130   -19611974.28849 -15267707.27747  20549288.494    20549292.952
  20969930.165   -23547936.88249 -17979003.24847  20969929.640    20969934.668
  23041482.902    -9716946.58749  -7314952.86446  23041482.663    23041489.497
  22011999.391   -18229491.22349 -13927331.89446  22011998.660    22012005.603
 03  6  8 17 42  0.0000000  0 10G16G23G26G 2G 6G17G21G18G29G15
  23273913.855   -12377734.31749  -9630576.73545  23273913.305    23273919.652
  22603050.403   -12577614.16049  -9479850.05246  22603049.815    22603057.646
  21460303.479   -15703369.37549 -12207733.18247  21460303.501    21460310.055
  25040884.284    -6956610.83749  -5410069.74345  25040883.217    25040892.370
  21006372.971    -7359547.17549  -5725767.35247  21006372.691    21006379.096
  20826772.665   -11137899.00349  -8665830.26147  20826771.996    20826778.493
  20547299.544   -19622429.48249 -15275854.18847  20547298.921    20547303.360
  20960412.107   -23597954.57749 -18017978.05647  20960411.569    20960416.594
  23049794.624    -9673268.35649  -7280917.91946  23049794.429    23049801.232
  21999815.499   -18293517.93449 -13977222.82346  21999814.725    21999821.656
 03  6  8 17 42 30.0000000  0 10G16G23G26G 2G 6G17G21G18G29G15
  23275530.312   -12369239.86549  -9623957.70245  23275529.796    23275536.079
  22588924.748   -12651844.99249  -9537692.19446  22588924.083    22588931.941
  21460815.153   -15700680.83549 -12205638.22147  21460815.167    21460821.699
  25035437.026    -6985235.64849  -5432374.78845  25035436.258    25035445.184
  21018041.404    -7298229.07849  -5677987.05547  21018041.153    21018047.579
  20829267.168   -11124790.50249  -8655615.86147  20829266.479    20829273.005
  20545353.472   -19632656.07049 -15283822.96247  20545352.868    20545357.315
  20950972.313   -23647560.93049 -18056632.33547  20950971.794    20950976.805
  23058203.113    -9629082.09049  -7246487.10046  23058202.858    23058209.628
  21987655.287   -18357420.44849 -14027016.96946  21987654.503    21987661.396
 03  6  8 17 43  0.0000000  0 10G16G23G26G 2G 6G17G21G18G29G15
  23277247.183   -12360217.82149  -9616927.54145  23277246.677    23277252.903
  22574858.360   -12725764.02749  -9595291.35746  22574857.711    22574865.543
  21461454.055   -15697323.39349 -12203022.03647  21461454.065    21461460.555
  25030070.464    -7013437.01649  -5454349.85845  25030069.653    25030078.658
  21029794.895    -7236464.05649  -5629858.50947  21029794.636    21029801.092
  20831801.086   -11111474.66849  -8645239.90847  20831800.405    20831806.945
  20543451.033   -19642653.44449 -15291613.13147  20543450.445    20543454.920
  20941610.856   -23696755.49749 -18094965.73647  20941610.355    20941615.339
  23066707.823    -9584389.24049  -7211661.54046  23066707.561    23066714.463
  21975518.772   -18421198.26049 -14076713.94846  21975517.946    21975524.868
 03  6  8 17 43 30.0000000  0 10G16G23G26G 2G 6G17G21G18G29G15
  23279064.205   -12350669.86649  -9609487.59345  23279063.659    23279069.819
  22560851.350   -12799370.87049  -9652647.27146  22560850.739    22560858.570
  21462220.133   -15693297.39349 -12199884.88447  21462220.144    21462226.719
  25024784.560    -7041215.18449  -5475995.16745  25024783.674    25024792.625
  21041633.124    -7174254.02349  -5581383.18447  21041632.871    21041639.295
  20834374.542   -11097951.16149  -8634702.13247  20834373.863    20834380.406
  20541592.228   -19652421.67549 -15299224.74547  20541591.592    20541596.086
  20932327.735   -23745538.68549 -18132978.58447  20932327.232    20932332.191
  23075308.597    -9539191.57149  -7176442.62246  23075308.336    23075315.313
  21963405.916   -18484851.59949 -14126313.92846  21963405.131    21963412.017
 03  6  8 17 44  0.0000000  0 10G16G23G26G 2G 6G17G21G18G29G15
  23280981.232   -12340595.40749  -9601637.37645  23280980.762    23280986.984
  22546904.166   -12872663.21449  -9709758.12546  22546903.623    22546911.436
  21463113.902   -15688601.05349 -12196225.39947  21463113.905    21463120.415
  25019579.246    -7068568.26849  -5497309.25445  25019578.576    25019587.337
  21053556.113    -7111598.37949  -5532560.65947  21053555.866    21053562.347
  20836987.836   -11084218.22049  -8624001.16147  20836987.174    20836993.681
  20539777.421   -19661958.50049 -15306656.05047  20539776.788    20539781.283
  20923123.179   -23793908.58249 -18170669.39347  20923122.714    20923127.667
  23084005.542    -9493488.89849  -7140830.20146  23084005.345    23084012.262
  21951317.158   -18548378.32249 -14175815.25846  21951316.360    21951323.274
 03  6  8 17 44 30.0000000  0 10G16G23G26G 2G 6G17G21G18G29G15
  23282998.115   -12329996.64549  -9593378.61945  23282997.597    23283003.901
  22533016.897   -12945641.43149  -9766624.20446  22533016.287    22533024.107
  21464134.937   -15683235.53249 -12192044.47647  21464134.948    21464141.470
  25014454.532    -7095497.02149  -5518292.68845  25014454.094    25014463.082
  21065563.444    -7048499.58249  -5483392.80947  21065563.214    21065569.697
  20839640.807   -11070276.88449  -8613137.81047  20839640.137    20839646.650
  20538006.417   -19671265.14749 -15313907.99147  20538005.804    20538010.288
  20913997.215   -23841865.74249 -18208038.58147  20913996.741    20914001.704
  23092798.137    -9447283.92249  -7104826.35846  23092797.909    23092804.866
  21939252.424   -18611779.12949 -14225218.46446  21939251.572    21939258.473
 03  6  8 17 45  0.0000000  0 10G16G23G26G 2G 6G17G21G18G29G15
  23285114.462   -12318874.83649  -9584712.28545  23285114.041    23285120.345
  22519189.507   -13018305.01349  -9823245.09746  22519188.810    22519196.611
  21465283.327   -15677200.83749 -12187342.10947  21465283.323    21465289.797
  25009411.082    -7122001.16449  -5538945.27345  25009410.625    25009419.582
  21077654.857    -6984959.09649  -5433880.78147  21077654.603    21077661.105
  20842333.484   -11056126.92349  -8602111.88947  20842332.813    20842339.322
  20536279.339   -19680341.08749 -15320980.16047  20536278.710    20536283.210
  20904949.759   -23889410.36449 -18245086.31247  20904949.265    20904954.227
  23101685.963    -9400578.29349  -7068432.40046  23101685.726    23101692.759
  21927211.611   -18675053.64449 -14274523.26346  21927210.838    21927217.720
 03  6  8 17 45 30.0000000  0 10G16G23G26G 2G 6G17G21G18G29G15
  23287330.205   -12307230.82349  -9575639.05145  23287329.787    23287336.089
  22505422.071   -13090652.75249  -9879619.89846  22505421.451    22505429.181
  21466559.118   -15670496.56749 -12182118.01047  21466559.111    21466565.577
  25004448.549    -7148080.12749  -5559266.53145  25004448.001    25004456.846
  21089830.143    -6920977.81949  -5384025.29247  21089829.894    21089836.371
  20845066.015   -11041767.48349  -8590922.73647  20845065.342    20845071.851
  20534596.398   -19689185.02349 -15327871.54747  20534595.775    20534600.268
  20895980.934   -23936541.73649 -18281812.03647  20895980.434    20895985.402
  23110668.817    -9353373.12349  -7031649.19146  23110668.597    23110675.576
  21915195.059   -18738201.30149 -14323729.20646  21915194.237    21915201.113
 03  6  8 17 46  0.0000000  0 10G16G23G26G 2G 6G17G21G18G29G15
  23289645.105   -12295065.76749  -9566159.82045  23289644.705    23289651.089
  22491714.919   -13162683.77449  -9935747.90246  22491714.360    22491722.080
  21467962.310   -15663122.55449 -12176372.01947  21467962.299    21467968.700
  24999566.979    -7173733.52549  -5579256.18645  24999566.300    24999575.065
  21102089.023    -6856557.05049  -5333827.34047  21102088.778    21102095.240
  20847838.339   -11027198.83849  -8579570.56447  20847837.662    20847844.204
  20532957.576   -19697797.18749 -15334582.33347  20532956.970    20532961.440
  20887090.841   -23983259.31749 -18318215.32647  20887090.368    20887095.323
  23119746.542    -9305669.74749  -6994477.77946  23119746.342    23119753.306
  21903202.673   -18801221.25249 -14372835.64146  21903201.909    21903208.775
 03  6  8 17 46 30.0000000  0 10G16G23G26G 2G 6G17G21G18G29G15
  23292059.179   -12282380.32849  -9556275.06945  23292058.734    23292065.080
  22478068.296   -13234397.27649  -9991628.48046  22478067.718    22478075.410
  21469493.034   -15655078.55549 -12170103.96347  21469493.020    21469499.453
  24994766.293    -7198960.79049  -5598913.79745  24994765.814    24994774.487
  21114431.384    -6791697.66949  -5283287.62047  21114431.153    21114437.626
  20850650.681   -11012419.84349  -8568054.48447  20850650.025    20850656.608
  20531363.035   -19706176.53649 -15341111.70147  20531362.434    20531366.892
  20878279.589   -24029562.78349 -18354295.93047  20878279.078    20878284.042
  23128918.773    -9257469.43349  -6956919.13546  23128918.573    23128925.508
  21891234.758   -18864112.79149 -14421842.02246  21891234.004    21891240.881
 03  6  8 17 47  0.0000000  0 10G16G23G26G 2G 6G17G21G18G29G15
  23294571.860   -12269176.12849  -9545986.09445  23294571.484    23294577.739
  22464482.152   -13305792.70349 -10047261.21546  22464481.573    22464489.207
  21471151.125   -15646364.80649 -12163314.03247  21471151.131    21471157.660
  24990046.556    -7223761.68649  -5618239.16245  24990046.261    24990055.069
  21126856.945    -6726401.07649  -5232407.21147  21126856.711    21126863.219
  20853503.124   -10997430.23449  -8556374.28747  20853502.451    20853509.064
  20529812.953   -19714322.37649 -15347459.11147  20529812.327    20529816.811
  20869547.125   -24075452.11449 -18390053.83647  20869546.594    20869551.582
  23138185.264    -9208773.88549  -6918974.59646  23138185.078    23138192.040
  21879291.355   -18926875.40649 -14470747.94046  21879290.672    21879297.569
 03  6  8 17 47 30.0000000  0 10G16G23G26G 2G 6G17G21G18G29G15
  23297183.144   -12255454.44149  -9535293.89845  23297182.686    23297188.902
  22450956.529   -13376869.81749 -10102645.90646  22450955.977    22450963.619
  21472936.680   -15636981.70349 -12156002.52247  21472936.705    21472943.232
  24985408.331    -7248136.45749  -5637232.47645  24985407.852    24985416.647
  21139365.318    -6660669.09849  -5181187.52947  21139365.092    21139371.643
  20856395.663   -10982230.09149  -8544530.03847  20856394.968    20856401.563
  20528307.194   -19722235.14949 -15353624.91447  20528306.599    20528311.098
  20860893.422   -24120927.39849 -18425489.09647  20860892.914    20860897.916
  23147545.665    -9159585.10849  -6880645.71446  23147545.418    23147552.350
  21867372.501   -18989509.13349 -14519553.42446  21867371.814    21867378.751
 03  6  8 17 48  0.0000000  0 10G16G23G26G 2G 6G17G21G18G29G15
  23299892.443   -12241216.52149  -9524199.43945  23299892.051    23299898.288
  22437491.771   -13447627.78749 -10157781.92346  22437491.168    22437498.759
  21474849.611   -15626929.22049 -12148169.40947  21474849.611    21474856.132
  24980851.059    -7272084.70249  -5655893.43345  24980850.717    24980859.295
  21151956.396    -6594502.91249  -5129629.50047  21151956.165    21151962.669
  20859328.314   -10966818.99849  -8532521.41047  20859327.608    20859334.213
  20526845.940   -19729913.90349 -15359608.36447  20526845.361    20526849.879
  20852318.615   -24165988.27549 -18460601.44347  20852318.111    20852323.114
  23156999.614    -9109904.40049  -6841933.51746  23156999.393    23157006.319
  21855478.280   -19052013.34249 -14568257.98446  21855477.628    21855484.592
 03  6  8 17 48 30.0000000  0 10G16G23G26G 2G 6G17G21G18G29G15
  23302699.899   -12226463.23349  -9512703.39545  23302699.517    23302705.752
  22424087.966   -13518065.43449 -10212668.35046  22424087.308    22424094.885
  21476889.996   -15616207.22649 -12139814.61547  21476889.989    21476896.436
  24976375.478    -7295605.83549  -5674221.56445  24976374.805    24976383.479
  21164629.875    -6527903.50549  -5077733.91747  21164629.672    21164636.169
  20862301.251   -10951196.21949  -8520347.84247  20862300.550    20862307.142
  20525429.374   -19737358.05249 -15365409.01247  20525428.801    20525433.318
  20843822.723   -24210634.18949 -18495390.45247  20843822.242    20843827.224
  23166546.913    -9059733.01249  -6802838.98246  23166546.733    23166553.751
  21843609.013   -19114386.92949 -14616860.76646  21843608.345    21843615.303
 03  6  8 17 49  0.0000000  0 10G16G23G26G 2G 6G17G21G18G29G15
  23305605.192   -12211195.92349  -9500806.81645  23305604.746    23305611.088
  22410744.964   -13588182.42749 -10267304.89646  22410744.415    22410751.973
  21479057.665   -15604815.88449 -12130938.23747  21479057.678    21479064.124
  24971981.035    -7318699.88149  -5692216.90645  24971980.218    24971988.877
  21177385.551    -6460872.39049  -5025501.92747  21177385.301    21177391.812
  20865314.498   -10935361.63549  -8508009.22247  20865313.814    20865320.363
  20524057.482   -19744567.30449 -15371026.61847  20524056.911    20524061.456
  20835405.828   -24254865.31749 -18529856.24747  20835405.349    20835410.326
  23176187.170    -9009072.84649  -6763363.57146  23176187.030    23176194.023
  21831764.594   -19176629.93749 -14665361.79646  21831763.864    21831770.821
 03  6  8 17 49 30.0000000  0 10G16G23G26G 2G 6G17G21G18G29G15
  23308608.108   -12195416.18449  -9488510.93445  23308607.516    23308613.962
  22397463.228   -13657978.25449 -10321691.19546  22397462.709    22397470.229
  21481352.696   -15592755.67049 -12121540.65947  21481352.709    21481359.139
  24967667.603    -7341366.78949  -5709879.41845  24967666.724    24967675.375
  21190223.063    -6393411.14949  -4972934.77747  21190222.804    21190229.334
  20868368.193   -10919314.54149  -8495505.02147  20868367.490    20868374.052
  20522730.344   -19751541.54449 -15376461.10147  20522729.760    20522734.315
  20827067.808   -24298681.77149 -18563998.92447  20827067.331    20827072.310
  23185920.201    -8957925.61749  -6723508.62446  23185920.012    23185927.130
  21819945.105   -19238741.85249 -14713760.67946  21819944.377    21819951.328
 03  6  8 17 50  0.0000000  0 10G16G23G26G 2G 6G17G21G18G29G15
  23311708.179   -12179125.31349  -9475816.77845  23311707.640    23311713.986
  22384242.788   -13727452.07049 -10375826.56246  22384242.241    22384249.739
  21483774.977   -15580026.70549 -12111621.97647  21483774.942    21483781.389
  24963435.567    -7363606.13249  -5727208.76545  24963434.664    24963443.452
  21203142.163    -6325520.96949  -4920033.38547  21203141.910    21203148.449
  20871462.353   -10903054.79149  -8482835.10847  20871461.638    20871468.228
  20521448.178   -19758279.48249 -15381711.45047  20521447.597    20521452.134
  20818808.739   -24342083.08949 -18597818.11547  20818808.289    20818813.294
  23195745.627    -8906292.74949  -6683275.26546  23195745.439    23195752.583
  21808150.660   -19300722.10149 -14762056.95846  21808149.952    21808156.845
 03  6  8 17 50 30.0000000  0 10G16G23G26G 2G 6G17G21G18G29G15
  23314905.342   -12162324.17449  -9462725.01445  23314904.737    23314911.090
  22371083.796   -13796603.06549 -10429710.38646  22371083.211    22371090.665
  21486324.548   -15566628.87249 -12101182.10547  21486324.497    21486330.914
  24959285.052    -7385417.60849  -5744204.71745  24959284.247    24959292.833
  21216142.641    -6257203.14149  -4866798.76347  21216142.380    21216148.929
  20874597.081   -10886581.82449  -8469999.05447  20874596.397    20874602.976
  20520211.034   -19764780.98249 -15386777.56247  20520210.444    20520214.933
  20810628.844   -24385068.81249 -18631313.47147  20810628.382    20810633.381
  23205663.202    -8854175.80849  -6642664.70046  23205662.994    23205670.145
  21796381.485   -19362569.90449 -14810250.04146  21796380.729    21796387.588
 03  6  8 17 51  0.0000000  0 10G16G23G26G 2G 6G17G21G18G29G15
  23318199.606   -12145012.76849  -9449235.64045  23318199.026    23318205.412
  22357986.554   -13865429.13849 -10483341.02346  22357985.969    22357993.451
  21489001.440   -15552561.16949 -12090220.25047  21489001.404    21489007.860
  24955216.079    -7406799.67749  -5760866.04745  24955215.364    24955223.923
  21229224.445    -6188457.79849  -4813231.01547  21229224.214    21229230.791
  20877772.722   -10869894.03949  -8456995.61447  20877771.999    20877778.565
  20519019.218   -19771044.26949 -15391658.05847  20519018.619    20519023.092
  20802528.317   -24427637.46849 -18664483.83847  20802527.820    20802532.833
  23215672.824    -8801574.96649  -6601677.05146  23215672.604    23215679.744
  21784637.833   -19424283.20449 -14858338.30846  21784637.090    21784643.916
 03  6  8 17 51 30.0000000  0 10G16G23G26G 2G 6G17G21G18G29G15
  23321590.083   -12127196.06049  -9435352.51645  23321589.459    23321595.877
  22344950.613   -13933933.12049 -10536720.68446  22344950.033    22344957.504
  21491805.224   -15537827.25149 -12078739.26347  21491805.183    21491811.670
  24951228.316    -7427755.67849  -5777195.39745  24951227.565    24951236.120
  21242386.720    -6119289.65949  -4759333.80647  21242386.442    21242393.101
  20880988.669   -10852994.01349  -8443826.78547  20880987.943    20880994.541
  20517872.354   -19777071.24049 -15396354.40547  20517871.743    20517876.224
  20794506.461   -24469792.53149 -18697331.91547  20794505.953    20794510.989
  23225773.518    -8748495.39449  -6560316.36646  23225773.302    23225780.479
  21772919.267   -19485864.72749 -14906323.88346  21772918.522    21772925.356
 03  6  8 17 52  0.0000000  0 10G16G23G26G 2G 6G17G21G18G29G15
  23325076.726   -12108873.17349  -9421074.96745  23325076.235    23325082.517
  22331976.510   -14002112.26049 -10589847.22646  22331975.905    22331983.404
  21494736.168   -15522425.23149 -12066737.69047  21494736.154    21494742.636
  24947322.123    -7448283.40049  -5793191.00945  24947321.169    24947329.897
  21255629.563    -6049698.06349  -4705106.64247  21255629.334    21255635.991
  20884245.475   -10835879.16949  -8430490.57247  20884244.798    20884251.413
  20516770.808   -19782859.91849 -15400865.07847  20516770.196    20516774.656
  20786563.766   -24511531.57249 -18729855.83147  20786563.262    20786568.291
  23235965.463    -8694936.41549  -6518582.12246  23235965.276    23235972.455
  21761226.225   -19547311.88249 -14954204.75346  21761225.517    21761232.344
 03  6  8 17 52 30.0000000  0 10G16G23G26G 2G 6G17G21G18G29G15
  23328659.506   -12090045.23849  -9406403.86545  23328659.025    23328665.381
  22319064.267   -14069965.85649 -10642720.09946  22319063.724    22319071.242
  21497794.131   -15506355.50249 -12054215.82247  21497794.087    21497800.570
  24943497.249    -7468382.54449  -5808852.66245  24943496.407    24943505.126
  21268952.818    -5979684.34349  -4650550.55247  21268952.570    21268959.227
  20887543.279   -10818549.43149  -8416986.90447  20887542.565    20887549.192
  20515714.739   -19788409.77049 -15405189.64947  20515714.127    20515718.609
  20778700.281   -24552854.41549 -18762055.43247  20778699.775    20778704.780
  23246248.418    -8640899.66949  -6476475.58546  23246248.187    23246255.406
  21749558.903   -19608623.90949 -15001980.33746  21749558.195    21749565.020
 03  6  8 17 53  0.0000000  0 10G16G23G26G 2G 6G17G21G18G29G15
  23332338.058   -12070714.23149  -9391340.76845  23332337.619    23332343.993
  22306214.117   -14137493.77449 -10695339.19646  22306213.549    22306221.037
  21500978.965   -15489618.73949 -12041174.19047  21500978.942    21500985.454
  24939754.015    -7488053.47649  -5824180.65445  24939753.198    24939761.796
  21282356.011    -5909250.31649  -4595666.94547  21282355.791    21282362.439
  20890881.902   -10801004.85849  -8403315.83147  20890881.214    20890887.854
  20514704.158   -19793720.56149 -15409327.93547  20514703.526    20514707.980
  20770915.930   -24593761.26649 -18793930.88447  20770915.435    20770920.425
  23256621.824    -8586387.45649  -6433998.56046  23256621.616    23256628.745
  21737917.339   -19669800.59349 -15049650.44546  21737916.604    21737923.476
 03  6  8 17 53 30.0000000  0 10G16G23G26G 2G 6G17G21G18G29G15
  23336112.079   -12050881.78349  -9375886.93945  23336111.566    23336118.078
  22293425.966   -14204695.48349 -10747704.10546  22293425.453    22293432.864
  21504290.666   -15472215.57849 -12027613.28447  21504290.659    21504297.178
  24936092.242    -7507296.28549  -5839175.03545  24936091.343    24936099.944
  21295838.961    -5838397.37149  -4540456.91047  21295838.697    21295845.340
  20894261.556   -10783244.79049  -8389476.83847  20894260.864    20894267.485
  20513739.159   -19798791.62149 -15413279.41547  20513738.544    20513743.002
  20763210.729   -24634252.41549 -18825482.41647  20763210.249    20763215.237
  23267085.300    -8531401.47149  -6391152.37746  23267085.112    23267092.228
  21726301.578   -19730841.49949 -15097214.75746  21726300.855    21726307.737
 03  6  8 17 54  0.0000000  0 10G16G23G26G 2G 6G17G21G18G29G15
  23339981.395   -12030548.69549  -9360042.99745  23339980.878    23339987.399
  22280700.167   -14271569.88249 -10799813.98146  22280699.683    22280707.070
  21507729.259   -15454145.90449 -12013533.02146  21507729.229    21507735.715
  24932512.114    -7526110.37049  -5853835.35445  24932511.192    24932519.842
  21309401.411    -5767126.59149  -4484921.29047  21309401.129    21309407.781
  20897682.410   -10765268.16249  -8375469.09747  20897681.726    20897688.340
  20512819.974   -19803622.09349 -15417043.42647  20512819.331    20512823.812
  20755584.776   -24674326.87949 -18856709.26247  20755584.298    20755589.282
  23277638.614    -8475943.19149  -6347938.17146  23277638.436    23277645.678
  21714711.898   -19791745.54249 -15144672.43146  21714711.198    21714718.058
 03  6  8 17 54 30.0000000  0 10G16G23G26G 2G 6G17G21G18G29G15
  23343945.539   -12009717.25049  -9343810.71945  23343944.983    23343951.530
  22268036.534   -14338117.31349 -10851669.06546  22268036.030    22268043.423
  21511294.345   -15435410.89049 -11998934.31446  21511294.341    21511300.850
  24929013.266    -7544496.27649  -5868162.02545  24929012.494    24929021.170
  21323042.909    -5695440.24249  -4429061.85047  21323042.615    21323049.283
  20901144.329   -10747075.81249  -8361293.25747  20901143.649    20901150.278
  20511946.501   -19808212.11749 -15420620.07547  20511945.875    20511950.324
  20748038.045   -24713985.55149 -18887612.11347  20748037.522    20748042.511
  23288281.546    -8420014.60249  -6304357.46446  23288281.328    23288288.584
  21703148.197   -19852513.00349 -15192023.67246  21703147.553    21703154.342
 03  6  8 17 55  0.0000000  0 10G16G23G26G 2G 6G17G21G18G29G15
  23348004.312   -11988387.96649  -9327190.53845  23348003.873    23348010.384
  22255435.463   -14404336.34349 -10903268.25046  22255434.913    22255442.269
  21514986.184   -15416010.19349 -11983816.89447  21514986.175    21514992.672
  24925596.123    -7562453.19749  -5882154.42245  24925595.429    24925604.014
  21336763.365    -5623338.81749  -4372878.97547  21336763.096    21336769.756
  20904647.601   -10728666.02849  -8346947.99047  20904646.914    20904653.553
  20511119.107   -19812560.32549 -15424008.29247  20511118.478    20511122.901
  20740570.525   -24753227.54449 -18918190.27947  20740570.002    20740574.993
  23299013.748    -8363616.69249  -6260411.07046  23299013.539    23299020.730
  21691610.850   -19913142.23449 -15239267.20346  21691610.161    21691616.912
 03  6  8 17 55 30.0000000  0 10G16G23G26G 2G 6G17G21G18G29G15
  23352157.390   -11966563.52549  -9310184.50245  23352156.968    23352163.446
  22242896.755   -14470227.57949 -10954612.01946  22242896.194    22242903.528
  21518804.374   -15395945.45649 -11968182.03347  21518804.372    21518810.824
  24922260.451    -7579982.30849  -5895813.48445  24922259.709    24922268.349
  21350562.272    -5550825.29549  -4316374.98447  21350562.003    21350568.681
  20908192.073   -10710039.70649  -8332433.99247  20908191.420    20908198.063
  20510337.566   -19816667.28449 -15427208.52847  20510336.949    20510341.404
  20733182.062   -24792053.91749 -18948444.58847  20733181.577    20733186.548
  23309834.513    -8306752.83049  -6216101.59245  23309834.358    23309841.564
  21680099.711   -19973633.94349 -15286403.56746  21680098.980    21680105.706
 03  6  8 17 56  0.0000000  0 10G16G23G26G 2G 6G17G21G18G29G15
  23356404.432   -11944244.97549  -9292793.44845  23356404.008    23356410.623
  22230420.729   -14535789.64649 -11005699.28446  22230420.120    22230427.423
  21522748.993   -15375216.54549 -11952029.64347  21522748.991    21522755.428
  24919006.448    -7597082.89849  -5909138.62045  24919005.472    24919014.280
  21364439.537    -5477900.28449  -4259550.34947  21364439.236    21364445.909
  20911778.008   -10691195.46649  -8317750.18947  20911777.338    20911784.002
  20509602.114   -19820532.05449 -15430220.03847  20509601.498    20509605.952
  20725872.861   -24830464.04249 -18978374.55647  20725872.377    20725877.324
  23320743.944    -8249423.64649  -6171429.52746  23320743.775    23320751.064
  21668614.976   -20033986.54149 -15333431.53846  21668614.250    21668620.956
 03  6  8 17 56 30.0000000  0 10G16G23G26G 2G 6G17G21G18G29G15
  23360745.231   -11921434.18349  -9275018.84045  23360744.793    23360751.330
  22218007.273   -14601022.72449 -11056530.19946  22218006.644    22218013.957
  21526819.749   -15353824.67749 -11935360.65747  21526819.723    21526826.284
  24915833.452    -7613755.48049  -5922130.23645  24915832.718    24915841.466
  21378394.644    -5404565.99449  -4202406.79447  21378394.336    21378401.015
  20915405.438   -10672133.20749  -8302896.49547  20915404.777    20915411.441
  20508912.871   -19824154.01949 -15433042.35647  20508912.255    20508916.747
  20718642.759   -24868458.41649 -19007980.55647  20718642.292    20718647.234
  23331741.376    -8191631.65549  -6126396.82845  23331741.291    23331748.461
  21657156.697   -20094199.95449 -15380351.04847  21657155.963    21657162.707
